GFSMA_con_3kmhel_000.txt.gz
Helicity
74 62 58 66 61 56 56 56 56 58 57 57 62 62 67 77 84 117 125 135 158 115 78 71 66 56 54 56 62 78 79 74 79 102 114 108 107 95 79 65 57 56 50
98 96 82 68 66 65 63 59 56 57 58 59 59 63 68 77 82 81 110 108 146 139 115 94 94 96 91 79 69 83 92 89 82 81 101 123 127 120 112 102 94 84 78
86 66 59 57 60 61 52 57 57 61 58 59 59 69 77 72 75 72 83 95 92 114 121 81 67 84 96 98 91 96 108 120 118 121 117 127 140 146 143 131 129 124 116
76 61 53 57 67 58 55 48 51 49 55 66 71 72 73 67 59 62 71 78 85 98 109 77 72 52 45 62 79 88 112 119 123 118 114 102 124 154 155 154 148 139 133
73 63 69 63 52 52 57 59 58 58 55 56 61 65 66 66 60 66 61 56 62 77 96 89 121 125 115 70 49 49 71 95 114 120 125 119 113 132 140 159 167 170 166
107 80 82 99 92 82 74 69 68 64 52 54 55 46 42 38 43 67 80 96 93 97 93 87 96 107 105 104 109 84 68 80 95 103 109 121 127 125 135 156 163 168 169
133 126 96 91 80 64 50 36 30 23 17 23 8 52 32 -36 78 60 223 120 82 83 74 83 92 115 121 89 81 67 80 84 77 86 112 119 112 111 112 121 142 149 161
104 84 72 50 41 24 29 29 38 37 58 73 77 71 42 44 117 196 103 76 101 87 108 89 44 71 106 110 101 80 99 82 59 93 81 88 103 110 117 109 104 104 121
77 56 42 29 31 29 35 38 49 50 57 63 98 92 102 103 87 66 97 64 193 167 137 140 174 155 113 94 82 52 23 29 11 -7 26 87 90 85 96 99 108 118 120
63 48 40 34 24 11 30 38 60 63 70 79 69 77 83 98 106 103 119 126 102 187 138 136 135 126 116 98 106 102 68 76 77 59 76 51 64 108 109 83 90 90 96
44 25 -11 -21 28 49 62 59 59 57 54 65 72 71 78 88 98 134 132 121 106 111 123 117 95 109 113 95 107 133 163 181 181 171 186 162 98 70 134 182 101 94 95
-8 25 38 77 93 83 71 57 51 53 55 57 52 45 53 75 75 98 122 118 111 89 94 119 106 106 141 128 129 128 160 208 226 225 192 206 193 134 86 84 84 25 127
65 97 104 97 87 78 65 56 52 41 32 35 22 27 48 56 75 93 114 151 147 120 117 122 130 157 187 168 156 166 151 134 157 146 205 225 134 82 130 20 52 128 41
77 83 81 83 83 83 77 61 38 38 39 38 36 42 70 75 93 110 150 178 190 190 171 156 162 184 187 164 168 140 130 101 95 97 119 152 139 123 126 78 77 37 70
83 92 97 100 99 90 69 52 54 53 61 68 73 86 115 129 136 144 189 203 221 237 230 183 141 107 108 117 93 168 137 33 63 50 26 80 91 59 81 85 58 36 24
108 102 104 101 87 67 59 65 68 76 82 111 123 117 121 118 150 159 154 162 170 181 223 185 142 85 80 65 97 110 82 31 16 82 26 48 49 92 73 51 20 18 86
111 99 98 86 63 60 70 77 86 97 114 119 104 102 119 120 162 163 157 146 165 162 220 190 161 112 76 54 39 25 18 26 12 20 2 63 62 24 79 86 73 53 81
109 96 77 59 60 73 88 92 105 115 112 109 119 139 150 162 154 141 149 155 164 150 178 175 151 133 95 82 71 46 14 15 -9 -18 9 10 16 10 13 68 87 101 117
88 72 68 73 76 86 89 93 122 114 122 134 140 155 151 157 157 165 167 159 154 150 136 141 148 134 124 107 83 63 37 7 4 15 23 19 4 35 35 32 92 82 93
84 85 90 83 75 85 91 116 129 134 135 150 162 162 161 156 160 162 146 122 113 113 111 128 122 111 92 79 89 82 14 -9 -6 13 56 37 98 60 81 93 153 142 133
90 92 79 64 77 95 112 142 136 131 140 161 160 162 156 158 113 100 130 107 89 107 118 109 114 111 87 94 83 67 30 -12 -40 -19 37 6 14 39 89 137 110 134 152
88 82 70 69 85 114 116 104 105 135 142 163 180 156 149 126 124 84 53 46 47 73 58 99 125 122 106 122 113 101 57 -2 -41 5 -11 -26 0 17 52 70 83 68 107
84 87 72 77 90 105 92 88 95 134 160 182 168 153 148 133 106 96 74 46 58 32 57 98 121 121 128 120 86 67 0 -38 -37 -34 -35 -1 1 12 33 58 82 88 112
95 86 73 81 96 97 89 98 119 141 175 167 141 128 110 92 88 75 79 85 77 110 94 102 106 114 118 77 36 3 -41 -38 -41 -29 -11 16 -26 -1 23 38 85 131 147
97 79 77 88 97 96 102 112 119 145 156 142 116 96 90 93 60 37 73 100 106 89 46 48 29 27 3 1 14 -44 -59 -66 -59 -18 -17 -22 -16 -4 -11 -24 65 76 97
88 97 89 98 104 84 88 67 91 145 140 140 100 102 85 82 44 30 84 93 81 66 65 41 48 39 23 23 -1 -32 -73 -68 -65 -48 -33 23 -26 0 -44 6 30 29 99

GFSMA_con_3kmhel_003.txt.gz
Helicity
105 97 79 72 70 66 49 59 53 56 60 70 72 67 68 73 85 122 145 124 145 146 120 99 80 78 97 109 103 109 116 119 123 125 140 154 167 161 151 139 123 106 92
87 80 69 72 71 78 71 61 61 63 62 68 73 68 57 69 75 84 116 128 137 154 141 112 85 61 55 75 89 114 125 130 134 130 127 136 152 163 163 158 149 140 133
89 82 75 79 91 75 68 74 64 65 68 70 70 74 76 73 71 66 80 108 118 116 140 105 85 77 63 37 38 71 103 121 131 137 132 128 128 147 166 166 165 159 151
111 91 98 100 85 91 83 91 85 85 75 58 56 60 57 54 56 55 67 76 116 114 123 98 88 71 72 82 60 45 63 85 112 127 127 132 133 134 147 163 164 158 154
144 134 125 115 105 100 98 91 87 80 68 55 69 79 68 66 63 45 34 41 76 100 133 88 86 97 100 90 63 58 53 53 67 90 111 126 132 134 131 130 142 161 174
158 140 129 128 111 97 92 77 67 61 48 59 70 54 71 61 73 68 129 247 128 129 116 97 118 150 148 64 51 64 65 58 80 78 66 92 124 138 134 131 126 132 141
161 152 122 111 96 75 58 43 38 32 18 65 57 88 70 114 104 220 166 123 122 142 125 106 68 65 69 99 40 49 41 50 61 43 81 92 66 79 99 127 126 120 126
140 112 95 62 45 15 30 20 32 39 69 78 85 64 43 47 144 116 101 80 65 135 118 128 150 137 135 123 90 103 50 24 48 34 37 17 38 81 109 87 97 127 149
98 67 39 15 7 -3 23 49 68 72 74 74 94 65 48 51 65 62 81 79 152 113 123 126 132 126 113 121 90 87 99 125 150 154 161 120 76 79 9 73 75 90 98
55 22 6 9 30 42 65 70 86 73 77 72 64 74 58 78 83 88 109 85 113 115 102 127 143 122 97 115 121 92 90 207 207 194 159 153 158 142 113 72 47 84 63
23 11 5 36 65 81 90 85 83 77 67 72 65 56 57 74 88 103 122 127 144 126 171 135 250 182 107 84 104 161 154 237 187 172 236 225 208 209 242 247 84 34 142
22 56 65 89 101 102 98 83 69 50 51 64 65 51 69 84 92 128 126 141 142 152 214 236 190 199 215 213 169 165 154 243 200 192 189 133 250 229 293 285 174 188 -129
67 96 106 112 111 99 83 71 68 56 61 79 64 95 78 81 114 117 115 152 157 186 205 196 202 144 191 167 198 194 159 139 89 85 125 100 163 180 133 157 96 7 34
111 118 121 112 98 88 84 83 82 72 74 108 75 109 97 106 115 162 157 197 188 214 208 176 190 155 174 118 119 151 108 150 174 164 121 71 24 59 74 128 125 68 14
114 128 121 108 99 97 96 92 90 80 100 100 110 108 114 159 150 198 207 245 236 208 244 241 203 164 198 134 159 114 68 60 103 156 85 80 107 43 41 105 139 135 79
133 140 129 117 107 102 99 91 88 94 109 122 130 144 144 159 182 219 221 252 285 290 287 251 221 185 127 136 108 96 113 71 59 63 39 45 110 82 71 113 107 113 108
137 140 136 121 110 103 90 96 94 102 122 135 145 147 145 153 203 253 267 265 255 235 265 239 203 158 109 96 96 89 80 84 85 49 27 14 9 58 62 100 89 101 140
153 149 134 118 100 90 98 96 106 116 143 142 143 151 165 217 231 264 262 252 262 236 209 195 168 132 119 98 88 92 67 70 69 42 36 42 15 23 67 102 112 91 88
146 134 122 101 91 105 109 102 106 144 147 145 153 176 188 206 246 252 249 270 210 181 173 173 169 146 126 97 86 90 61 35 81 62 48 40 27 27 36 88 70 76 72
131 118 101 97 100 104 108 96 142 153 147 153 158 162 169 211 210 244 205 168 167 166 155 166 167 141 105 78 110 123 54 55 84 75 56 38 14 26 29 45 80 116 101
113 98 97 93 99 118 105 162 150 146 151 143 128 133 167 164 133 120 178 180 163 176 174 165 151 140 144 107 104 92 124 118 100 79 64 34 6 6 -46 -9 -3 24 82
102 90 86 97 121 127 106 108 137 150 134 120 108 132 155 144 160 130 118 92 103 145 139 162 181 178 160 145 151 141 138 123 73 46 48 16 7 -23 -9 -51 13 45 73
87 96 105 117 128 131 105 114 112 146 117 99 110 154 165 179 162 172 123 93 134 86 99 144 159 159 137 149 120 118 116 97 102 11 -0 2 -17 -25 -25 -55 9 55 52
104 114 118 126 137 139 108 117 109 117 115 98 132 149 160 181 155 130 146 145 119 122 133 162 179 145 145 129 111 68 24 4 21 -6 -79 -22 -76 -19 -80 -32 -6 59 98
112 122 125 127 126 140 112 117 117 112 117 110 140 159 145 151 110 121 141 148 106 105 102 83 67 49 30 11 20 -14 7 -56 -12 -62 -70 -70 -52 -73 -43 11 19 36 99
119 132 125 118 103 138 122 107 101 135 123 135 148 152 104 112 129 116 123 122 126 117 95 61 71 71 57 56 15 -10 -55 -39 -58 -37 -64 -82 -58 -66 10 -10 17 1 -36

GFSMA_con_3kmhel_006.txt.gz
Helicity
93 88 69 52 67 73 68 68 59 60 60 62 59 50 37 38 72 104 132 93 105 125 101 81 74 63 55 50 47 48 83 91 85 93 97 94 104 120 137 140 137 138 135
89 78 67 108 90 75 75 79 79 68 58 49 39 36 50 47 41 46 59 69 54 84 100 80 62 53 45 44 46 55 49 81 120 116 105 104 104 109 127 148 150 148 143
126 105 119 112 106 115 126 109 106 87 75 64 52 68 80 69 75 89 90 86 106 106 113 98 74 47 44 24 19 34 66 54 60 86 116 118 116 113 101 110 136 156 156
172 209 173 169 158 135 134 114 92 78 63 54 73 63 49 54 65 47 45 110 113 103 84 74 45 53 43 14 43 35 38 62 63 60 64 88 111 120 121 110 106 117 140
249 202 196 174 181 155 127 101 82 54 32 43 53 54 77 48 56 126 158 142 95 71 58 79 36 53 58 55 44 46 66 78 67 86 80 78 76 84 101 113 121 123 134
225 215 184 152 140 124 101 79 66 60 58 48 57 57 58 95 98 82 78 85 69 92 97 100 96 108 103 82 66 34 63 73 31 25 50 69 95 80 68 67 81 106 111
181 171 142 116 95 90 68 68 33 34 31 72 55 63 55 83 95 93 94 92 97 88 88 69 27 -3 12 21 -2 17 60 110 96 56 6 -29 -17 31 -23 61 111 67 98
132 96 79 66 62 55 65 52 37 23 42 62 31 40 -6 31 85 63 43 44 39 25 26 33 44 56 63 55 44 55 85 81 115 153 147 145 118 116 90 22 51 49 60
80 67 57 46 40 30 39 53 53 60 52 75 77 45 -4 1 28 18 52 34 49 63 66 72 70 94 90 128 122 90 101 182 246 222 164 155 161 168 182 176 182 155 119
66 41 20 14 37 48 65 59 78 78 82 65 65 73 64 70 52 35 72 85 92 72 75 79 73 85 91 93 130 154 276 293 302 323 340 276 216 158 161 185 212 189 253
53 25 13 24 51 72 86 86 80 77 75 79 77 79 81 93 83 93 77 95 92 88 111 87 139 128 104 79 102 72 170 193 206 135 175 227 276 137 174 206 183 236 274
53 32 33 61 86 91 87 83 78 77 72 80 90 96 102 114 99 97 109 109 114 133 135 177 160 143 130 120 113 123 151 60 66 128 150 167 166 231 148 261 180 161 216
59 50 59 79 89 94 96 93 85 83 84 95 103 115 117 130 124 113 134 138 150 162 162 180 152 127 153 113 131 161 110 148 130 67 79 115 152 174 172 89 76 128 9
76 87 82 95 103 104 100 97 97 98 99 113 114 122 133 138 145 158 161 156 162 175 163 146 208 208 142 183 160 81 95 116 83 78 84 77 100 161 182 104 78 74 48
107 95 86 99 104 104 103 103 110 111 122 132 134 147 158 166 170 173 190 195 214 184 200 222 201 173 211 178 138 154 105 62 61 45 47 65 65 93 91 87 110 124 111
117 87 87 110 107 105 106 114 124 126 132 140 138 151 149 162 174 190 203 233 259 289 260 237 249 224 168 165 132 112 100 49 40 47 35 41 43 47 71 81 79 86 129
116 90 101 106 109 110 113 127 131 126 143 135 147 142 153 153 186 210 213 238 264 276 306 278 232 175 149 127 105 95 98 90 73 40 25 46 39 42 39 46 62 70 45
108 102 110 111 112 118 123 134 141 143 142 173 156 151 155 172 174 182 221 217 252 240 249 235 222 205 174 144 136 111 81 67 83 63 35 41 25 31 45 47 46 53 63
109 103 113 115 121 123 130 143 147 148 187 160 154 156 149 152 155 184 196 204 201 208 219 254 254 235 205 180 186 151 102 88 93 32 44 40 55 49 43 59 54 32 39
103 104 109 115 125 127 135 136 136 173 169 173 144 136 133 139 154 162 169 160 177 229 233 249 258 251 194 142 172 168 83 59 62 70 71 42 35 33 44 60 62 65 57
95 103 114 121 127 126 133 132 147 171 175 156 143 126 134 120 78 93 143 177 199 212 219 233 221 213 214 190 150 122 94 83 112 114 88 97 51 67 87 50 51 75 67
103 104 110 119 131 131 85 82 111 170 178 150 131 125 131 115 117 114 124 96 107 158 205 199 172 168 147 166 191 144 140 142 94 104 75 92 104 102 75 48 35 73 83
94 100 110 124 133 139 73 85 112 161 165 140 126 135 142 155 141 139 113 97 144 140 132 160 154 161 153 159 134 143 136 132 133 121 122 98 114 121 -10 -27 -5 5 37
104 110 118 120 136 135 77 88 88 161 156 137 131 137 144 143 132 103 113 158 158 147 134 121 143 140 131 99 82 57 62 35 129 142 120 32 -13 -9 -22 -50 -25 0 30
106 115 117 124 135 128 83 85 101 143 154 144 149 139 130 124 81 64 105 143 158 157 84 71 58 52 33 15 12 -9 63 20 19 2 -16 11 19 5 -6 33 96 68 36
101 120 119 123 99 113 88 69 99 160 160 168 152 154 99 94 64 37 95 130 132 103 105 90 75 53 61 74 20 24 19 15 16 45 -25 -36 -9 -12 10 51 108 82 65

GFSMA_con_3kmhel_009.txt.gz
Helicity
88 82 97 93 87 85 93 112 134 113 82 66 49 50 55 49 43 40 42 32 38 38 46 38 26 27 29 29 16 25 35 51 50 61 86 91 93 84 63 68 91 111 112
95 118 126 133 157 162 167 143 116 99 80 64 60 74 67 60 59 56 63 86 92 133 162 140 87 44 43 54 60 44 43 43 42 59 62 77 93 92 93 85 75 86 107
156 210 209 217 200 172 150 132 128 102 96 97 87 84 71 65 73 90 124 132 134 155 185 206 237 204 137 136 115 62 61 74 54 54 64 68 62 61 75 86 93 95 99
257 226 201 198 188 173 149 133 104 90 93 85 65 68 68 70 109 136 119 111 115 98 102 154 179 197 227 197 173 182 176 170 137 151 151 123 100 77 67 56 73 87 96
235 215 187 177 173 150 137 112 103 86 59 60 49 44 57 72 89 75 90 91 103 84 70 72 93 111 136 149 160 161 127 123 114 133 64 88 105 36 74 92 101 91 62
215 178 155 150 137 117 113 91 79 63 29 24 31 47 47 63 61 88 87 110 90 83 79 49 22 14 65 68 79 84 79 95 47 80 98 85 79 71 49 46 -6 45 81
155 137 114 108 90 81 68 56 24 30 34 46 21 52 43 58 87 69 95 90 86 70 37 20 11 24 59 99 76 87 89 87 102 131 162 174 201 193 111 78 94 73 100
110 96 77 64 68 56 55 50 40 27 23 32 -1 -14 -12 -0 66 70 50 61 44 32 45 57 63 67 59 55 81 144 125 153 182 231 254 224 200 173 219 218 227 269 232
90 76 69 52 38 32 42 42 54 53 35 42 70 35 7 25 38 34 27 49 43 51 54 55 48 54 66 46 49 70 124 188 245 265 259 243 247 258 210 228 180 208 205
79 65 52 32 23 22 53 49 62 57 64 68 62 89 97 102 69 62 120 67 56 75 63 74 66 71 64 61 55 92 124 185 183 198 229 240 224 263 254 280 222 223 241
64 47 33 24 25 35 51 75 86 97 82 78 83 78 90 97 110 139 102 117 104 114 108 108 109 96 80 68 83 105 116 154 176 184 201 208 210 199 194 175 211 172 215
39 44 42 36 40 57 70 78 84 92 85 88 94 100 120 121 117 131 122 118 122 141 148 152 135 125 89 109 129 80 136 161 161 175 140 162 170 171 159 203 176 202 210
50 46 45 44 43 60 81 88 88 90 90 98 103 119 134 139 170 180 184 174 176 181 185 161 148 133 166 149 95 139 140 99 105 116 118 116 138 144 135 147 143 152 170
70 61 64 70 68 76 88 90 89 94 97 105 106 128 145 158 167 170 202 213 209 210 195 169 155 145 119 142 148 88 105 107 79 73 77 96 97 88 102 69 78 104 120
88 88 90 79 71 80 91 92 96 99 105 111 124 137 166 156 151 165 195 205 229 255 238 173 163 122 147 137 119 118 125 81 53 54 60 63 78 73 83 105 112 121 91
102 101 89 79 81 96 99 101 106 105 112 122 128 157 162 154 166 171 182 208 234 239 270 190 161 150 134 137 131 120 132 48 53 45 45 48 74 63 61 59 75 78 96
112 98 94 93 98 104 103 102 100 96 124 136 147 166 163 147 164 172 180 197 222 253 246 192 175 142 132 140 155 134 117 103 105 39 32 49 40 39 39 35 37 51 65
103 108 112 108 110 102 95 98 111 125 140 157 153 155 159 155 153 158 189 201 219 204 216 190 174 158 150 154 155 108 101 108 119 92 56 33 30 33 33 39 42 60 72
122 121 115 107 100 97 100 110 125 131 143 151 156 159 145 145 156 177 185 204 185 173 162 174 188 199 211 179 168 140 148 131 143 71 47 25 23 20 27 71 58 65 85
116 114 110 105 96 92 99 100 115 132 147 160 152 148 141 153 164 164 163 164 163 162 158 182 202 212 227 189 131 129 105 128 129 119 67 39 16 37 39 25 26 38 54
119 108 102 93 89 99 99 102 117 142 159 156 152 147 144 118 104 133 175 155 138 147 164 180 210 223 140 101 91 126 148 139 138 115 91 140 86 101 99 45 32 30 56
108 99 92 90 102 102 77 71 105 150 160 164 155 150 161 122 115 112 89 72 75 128 143 201 163 167 129 115 139 177 170 104 67 106 123 128 121 114 108 103 32 27 56
100 91 91 107 117 123 85 96 96 137 172 174 172 178 174 146 108 121 80 58 81 79 76 130 142 133 122 138 151 90 57 122 143 143 84 76 126 121 136 79 27 17 11
102 99 107 118 136 130 95 86 96 156 174 171 173 173 145 116 99 72 87 92 109 103 89 109 114 134 116 97 57 46 7 41 130 136 91 77 82 99 60 78 73 36 17
106 112 122 128 135 123 90 115 137 170 171 182 184 155 123 114 64 43 56 93 101 82 30 48 46 46 25 26 33 -32 37 -12 11 71 118 124 138 123 75 147 171 57 54
105 126 121 118 98 126 112 109 145 177 187 185 167 138 75 83 49 12 59 85 72 61 4 55 30 39 61 64 1 3 -7 5 41 85 155 92 94 54 -18 103 121 114 126

GFSMA_con_3kmhel_012.txt.gz
Helicity
93 99 112 131 130 147 122 110 106 94 86 74 68 68 71 77 95 86 85 129 163 191 190 194 198 189 162 144 112 86 74 72 67 68 63 52 44 35 44 65 66 63 65
143 173 189 174 145 122 106 103 96 97 88 75 84 88 86 91 110 126 114 135 198 217 228 247 248 289 286 305 271 251 219 209 198 194 163 147 106 86 76 52 47 57 65
206 200 192 160 130 127 124 112 119 111 107 103 99 96 96 108 126 145 146 141 150 161 206 224 243 259 262 248 227 250 235 215 198 192 198 185 156 150 143 116 102 91 53
193 183 158 153 133 132 118 113 114 121 124 100 77 74 82 110 122 119 108 111 122 111 145 185 201 203 220 222 212 190 194 180 167 145 166 174 160 158 147 147 109 84 98
185 179 160 139 133 127 130 124 126 107 80 75 62 67 76 97 85 119 92 126 105 109 122 138 127 127 143 152 151 143 146 140 120 97 100 124 145 143 160 137 106 122 139
168 155 140 134 118 114 118 106 101 74 52 53 49 79 72 96 89 114 93 146 104 118 88 73 32 79 120 163 150 168 173 173 169 165 119 110 98 86 119 155 180 158 147
151 138 119 110 99 91 69 63 43 67 56 54 40 64 75 86 115 91 89 76 105 132 47 87 70 85 73 115 163 196 192 196 187 200 194 173 183 170 127 114 118 209 166
142 124 110 97 87 66 70 66 62 48 40 35 6 -4 27 45 78 47 75 61 114 42 87 69 78 78 105 84 92 134 158 154 195 196 165 173 171 169 176 170 180 180 208
126 110 92 72 64 51 53 49 52 52 40 28 38 25 28 53 38 28 31 62 54 83 76 83 81 99 98 97 110 120 128 180 213 189 175 180 181 191 189 191 212 237 278
114 93 76 60 51 38 47 38 50 50 47 53 32 87 76 101 73 63 92 59 72 78 88 105 112 105 116 120 123 138 168 173 146 156 171 177 176 191 210 219 196 197 221
99 76 60 48 40 37 38 54 70 88 73 72 70 70 79 106 105 138 114 117 97 102 126 134 143 140 140 138 140 133 158 101 144 141 150 137 158 163 156 161 169 176 172
83 72 57 50 48 51 60 71 85 102 97 93 91 96 97 99 106 118 140 145 151 171 177 190 164 156 153 152 150 133 94 117 131 123 119 150 153 160 182 182 171 125 162
73 65 64 64 60 68 83 94 103 108 102 94 87 93 106 128 163 187 191 151 162 203 226 224 192 187 183 182 150 98 107 98 107 116 125 139 152 140 156 168 141 144 92
81 78 79 78 91 106 111 112 102 97 89 92 86 99 120 139 172 213 220 215 190 224 253 252 219 185 175 160 113 71 127 75 83 97 109 131 146 162 138 118 105 77 48
113 119 112 113 118 123 118 111 103 98 95 95 96 104 125 142 166 173 207 244 285 307 298 265 226 175 175 158 122 107 124 81 66 66 98 114 129 116 107 111 103 58 52
146 139 129 129 127 115 117 114 111 106 106 112 107 123 136 148 173 175 199 228 257 293 363 236 189 155 146 151 115 96 127 65 41 62 62 74 93 100 66 94 118 103 104
153 142 129 133 122 129 127 121 116 102 109 110 114 138 148 154 160 174 188 215 247 253 279 224 185 155 132 122 125 117 109 95 99 36 42 44 53 80 89 84 96 90 74
154 138 133 124 133 132 119 116 111 107 112 132 146 161 157 148 156 168 197 205 218 222 249 200 180 162 145 137 116 127 100 96 73 56 18 27 40 24 33 38 37 55 55
148 134 133 143 138 127 114 108 103 112 128 152 157 155 152 165 168 168 181 212 208 177 178 192 209 197 202 167 150 76 50 56 83 54 30 22 23 21 21 31 41 64 71
136 144 151 142 131 115 99 90 108 128 149 149 150 168 176 177 165 157 170 175 192 182 175 200 217 163 168 163 93 74 48 86 142 125 84 97 31 24 13 18 19 32 38
145 149 154 141 119 102 89 104 126 140 140 163 179 190 186 164 146 156 172 181 155 160 193 177 170 178 177 71 52 61 125 158 108 114 110 126 97 132 136 60 31 23 29
161 161 147 115 102 98 101 128 140 153 172 177 170 181 204 147 138 111 108 83 78 129 134 147 175 125 81 91 113 149 113 66 -6 82 127 125 134 133 140 135 29 -6 -10
156 143 119 105 106 112 123 133 156 180 176 164 174 188 186 179 137 140 83 43 79 67 102 141 107 111 118 133 99 57 98 130 150 147 135 29 148 147 168 127 47 30 21
150 126 109 102 103 106 129 159 165 170 163 168 173 172 171 145 122 97 100 123 143 197 76 96 131 118 83 -16 2 20 -23 23 154 177 68 75 160 145 135 141 111 84 48
126 110 97 94 109 114 124 144 148 155 143 142 156 171 127 114 70 36 103 110 88 98 70 48 30 18 21 12 5 -34 -18 -14 74 159 139 127 185 170 131 223 173 121 29
93 97 104 114 107 131 102 114 133 137 139 155 160 134 55 73 41 71 73 96 94 70 25 45 60 55 47 72 28 31 85 104 129 191 178 138 182 189 124 247 130 132 111

GFSMA_con_3kmhel_015.txt.gz
Helicity
81 91 114 115 117 107 93 81 81 84 70 73 80 85 96 108 122 131 138 194 204 205 201 187 249 211 235 260 262 262 228 253 248 214 198 179 157 151 120 106 91 57 29
122 140 136 137 123 100 99 81 76 74 64 62 81 97 100 110 129 154 142 164 221 234 227 254 241 235 244 249 273 239 241 248 236 224 217 214 198 180 157 136 124 104 100
147 143 138 127 102 102 93 90 91 87 87 100 101 105 101 127 149 158 150 152 158 204 220 233 235 238 241 253 256 239 215 209 211 202 195 187 190 174 160 148 144 151 142
153 157 134 125 113 109 94 84 87 90 96 81 68 90 86 117 159 171 151 141 122 138 163 208 195 194 195 210 216 210 194 165 161 170 150 140 145 160 177 193 198 176 154
158 153 133 123 113 110 110 94 87 73 51 63 75 91 89 113 146 139 151 132 122 131 127 153 151 156 159 177 169 172 177 171 154 134 139 142 120 119 133 148 147 140 150
165 155 137 132 110 100 102 84 81 58 42 41 58 82 88 108 121 131 101 103 107 115 123 104 79 100 143 172 169 194 192 192 184 179 206 222 194 170 146 133 129 103 130
169 154 128 115 102 90 73 77 60 77 55 58 49 84 93 103 107 123 69 93 89 114 103 81 77 95 96 134 158 185 172 184 194 233 255 260 246 240 222 213 187 165 122
158 142 112 96 91 76 79 75 76 60 56 51 29 28 54 72 108 77 103 98 100 66 57 70 77 89 110 106 117 158 182 174 209 238 236 204 206 229 243 234 220 214 213
150 128 114 96 86 64 58 55 59 67 60 54 66 52 43 72 69 40 90 95 66 70 67 74 80 98 115 124 141 150 177 203 252 258 224 277 261 253 238 217 211 217 203
149 126 113 90 70 53 67 57 64 58 52 56 58 97 76 92 99 90 75 102 42 65 54 73 91 97 110 127 130 154 170 205 229 219 246 253 240 202 168 219 229 209 181
153 133 106 86 76 64 60 70 73 79 74 79 84 89 94 107 91 132 130 96 66 64 70 68 100 129 123 140 153 150 160 185 173 204 202 189 183 237 237 226 210 201 195
140 128 114 100 91 80 74 76 83 92 100 110 109 107 103 107 114 114 134 115 103 98 114 132 104 132 137 151 144 160 155 155 165 164 166 166 188 183 200 203 174 151 147
134 130 117 111 92 85 90 100 106 113 116 120 112 113 118 122 136 142 142 122 125 143 137 187 141 154 155 169 175 149 130 129 137 133 128 137 152 163 165 153 144 151 155
154 143 132 120 116 115 113 118 117 124 116 115 111 115 117 127 150 167 163 143 116 146 163 183 184 155 126 149 124 75 159 104 110 115 119 130 133 146 129 127 134 140 158
165 152 143 140 131 129 133 135 128 123 117 114 111 109 126 135 145 160 172 183 205 212 189 235 177 161 149 166 134 119 144 104 86 95 107 108 117 104 105 106 122 147 154
180 168 159 157 159 153 145 141 129 115 117 119 119 128 140 153 152 150 170 178 192 226 322 236 196 173 158 178 141 118 159 84 75 91 82 70 47 63 80 94 99 110 128
196 191 177 180 169 152 149 139 123 113 126 123 128 134 137 138 160 167 156 155 175 205 263 247 218 184 187 182 153 104 92 145 138 37 38 36 37 58 39 51 74 79 71
206 195 189 188 170 157 140 130 127 119 117 123 125 138 139 157 161 150 161 171 202 222 257 203 198 199 185 164 131 125 140 82 75 5 -15 6 32 14 32 54 43 38 36
218 207 205 190 169 148 134 123 114 111 116 122 124 137 143 148 152 165 185 202 194 158 181 210 228 220 183 177 148 182 118 98 61 6 24 37 18 32 39 27 28 36 43
217 214 201 180 159 133 115 106 106 109 114 115 136 149 145 161 175 187 176 166 183 182 187 212 208 205 196 170 196 159 99 75 126 119 82 85 59 38 23 15 19 25 35
215 208 190 161 143 120 103 103 104 108 115 138 129 132 154 170 176 177 180 183 168 174 191 187 190 196 225 165 126 114 148 35 149 206 138 132 123 151 154 75 42 -3 -9
221 183 166 157 138 110 85 107 128 140 147 120 129 152 183 163 144 119 105 80 78 135 129 144 191 170 138 157 126 116 133 12 26 166 130 143 146 90 125 105 70 18 -7
181 182 171 138 114 101 88 113 131 141 121 132 157 180 185 157 123 140 94 53 97 125 100 118 156 158 111 126 97 67 108 144 176 186 59 152 167 162 170 150 57 31 8
187 173 135 110 107 101 109 115 92 130 148 158 176 170 152 134 111 82 113 159 101 99 116 124 114 122 95 50 37 74 92 151 240 234 170 216 209 211 182 182 125 76 43
157 127 112 106 106 107 99 93 120 152 172 159 158 134 93 101 64 41 117 123 114 111 85 47 52 45 51 37 40 77 113 119 200 213 161 195 224 213 210 253 202 119 76
123 119 107 109 105 109 88 109 136 151 152 160 147 107 85 86 37 66 97 100 107 63 107 95 70 68 79 107 50 87 130 163 195 230 200 188 198 184 202 287 198 175 101

GFSMA_con_3kmhel_018.txt.gz
Helicity
72 84 101 105 108 101 92 84 76 74 75 72 71 82 92 113 145 138 147 195 192 192 232 224 202 181 184 248 223 227 258 258 218 201 191 182 198 198 169 149 143 133 116
101 109 123 122 112 94 74 66 66 69 66 62 76 96 100 107 129 138 136 142 188 207 209 204 205 192 212 213 213 195 184 198 198 184 188 172 173 171 165 149 136 127 126
126 148 146 130 105 84 82 71 72 73 78 86 90 87 86 109 143 146 136 130 141 188 192 200 189 191 192 185 186 184 179 169 168 171 171 157 144 164 170 180 177 183 182
134 149 136 112 98 91 69 61 64 66 68 69 69 74 82 108 162 158 143 116 119 119 144 182 166 154 143 145 152 168 176 169 164 146 123 123 133 121 131 151 179 184 180
158 154 122 121 107 93 80 60 62 55 41 57 78 84 74 109 156 160 143 129 130 98 95 141 136 116 111 109 111 123 138 131 131 119 116 139 152 134 113 104 113 133 152
175 155 153 131 106 89 81 60 58 44 27 37 53 74 78 108 132 152 134 131 108 91 91 93 52 56 99 103 112 125 128 122 122 115 135 140 136 126 123 122 126 124 113
185 160 137 120 97 78 52 50 26 51 41 39 35 78 87 98 100 116 122 89 109 93 80 78 45 66 76 99 100 126 134 126 134 146 173 195 183 158 170 192 200 192 191
171 152 132 111 85 47 49 44 46 26 24 19 11 6 46 69 127 91 77 132 118 97 56 103 79 90 93 105 94 107 118 114 132 158 181 180 152 208 215 211 215 220 209
171 152 130 99 73 47 34 28 30 40 36 24 38 28 14 42 63 70 127 94 113 74 80 72 71 77 86 93 94 89 92 103 130 158 188 185 221 230 231 207 182 167 169
173 151 128 95 79 54 52 32 33 30 32 44 41 70 75 95 75 72 96 113 88 92 59 76 65 68 76 81 65 81 109 125 148 176 177 189 196 182 173 184 201 275 259
174 147 119 111 98 68 57 67 64 66 52 51 54 73 98 123 130 161 147 131 83 69 64 44 91 41 37 66 91 85 72 95 121 144 154 154 164 174 180 186 214 212 234
162 145 136 121 104 94 88 81 79 81 77 83 87 89 97 105 130 140 160 125 100 70 102 74 38 54 55 72 67 78 95 110 123 125 144 147 151 159 174 190 209 218 234
147 144 130 130 119 118 119 111 99 91 90 100 103 113 127 127 139 143 140 112 103 77 18 99 28 56 59 74 94 97 115 135 158 175 169 164 173 178 181 195 194 196 195
153 139 148 155 158 150 133 121 104 102 108 112 117 122 119 118 144 157 156 122 74 107 106 102 90 52 62 117 65 41 118 83 112 139 148 155 153 152 182 188 172 169 163
167 173 178 179 173 160 144 137 120 114 118 118 116 110 130 131 148 158 181 185 178 163 131 201 143 158 115 108 79 79 108 61 70 79 70 79 108 130 138 138 140 151 137
196 199 196 189 180 166 159 146 128 124 125 121 115 125 128 155 167 189 202 206 219 226 298 234 179 145 125 146 127 103 123 42 53 28 34 33 68 58 82 92 102 99 94
208 204 199 193 187 183 162 145 132 116 127 120 121 129 141 161 193 196 212 225 226 217 236 240 202 172 169 120 137 138 125 115 116 60 50 34 49 50 44 41 40 56 55
217 210 208 206 198 167 147 144 137 123 121 125 126 142 146 157 167 194 216 199 192 191 240 227 208 178 157 158 145 118 110 116 171 121 103 74 56 32 25 20 27 29 40
227 230 223 213 179 157 148 132 122 119 118 122 129 141 138 158 177 177 162 177 191 195 201 226 211 199 206 151 127 130 123 153 179 93 69 63 57 27 2 -12 -18 -23 -1
237 228 218 189 162 145 135 125 122 113 121 133 135 137 154 156 137 126 142 170 202 202 182 190 225 195 186 179 142 136 100 146 167 145 129 156 49 30 16 -15 -27 -36 -35
233 221 203 168 156 144 128 106 104 120 132 132 134 145 136 104 75 143 193 202 169 175 177 174 237 179 159 134 119 153 185 148 210 187 189 210 190 212 196 84 37 2 -23
229 204 174 171 163 127 85 92 115 133 136 141 142 132 137 99 139 130 118 90 88 113 163 155 161 168 160 160 160 126 144 167 220 188 223 294 244 238 235 215 110 44 29
195 175 174 155 129 107 88 102 94 139 149 141 126 137 162 167 141 165 113 74 104 65 81 122 129 139 154 128 115 108 167 220 264 276 198 268 221 242 230 197 84 46 28
177 165 145 124 114 108 98 88 95 149 140 127 140 153 165 153 139 95 102 128 110 105 122 117 117 132 114 91 89 152 174 181 260 263 204 292 259 260 209 216 144 83 39
165 137 117 112 108 93 87 110 117 132 126 139 164 126 125 133 73 28 99 111 96 105 84 37 48 51 53 51 67 100 124 133 177 224 196 234 280 275 301 373 259 189 133
133 122 110 102 82 103 98 93 89 117 147 164 131 137 102 91 31 47 89 92 93 102 93 88 84 77 81 110 57 89 116 150 164 217 212 250 275 281 364 455 366 286 238

GFSMA_con_3kmhel_021.txt.gz
Helicity
94 104 116 110 100 93 87 78 68 67 69 66 73 83 83 88 101 97 103 152 172 200 167 173 144 145 172 178 176 140 147 161 166 160 156 147 144 142 137 140 147 141 126
124 136 136 125 118 96 87 80 78 64 63 65 78 92 86 80 91 102 106 123 175 173 168 159 155 157 159 143 140 131 128 129 143 152 140 153 136 146 158 163 159 156 146
150 151 155 134 108 95 87 74 69 66 72 70 71 75 72 86 106 124 117 118 123 160 158 156 156 150 139 132 131 127 122 112 101 110 111 108 111 109 115 134 145 141 134
170 163 142 120 101 88 80 75 67 56 53 57 59 64 65 72 123 132 128 124 119 112 126 162 157 144 130 119 114 106 108 110 96 90 90 80 82 100 107 97 93 97 105
180 167 143 115 108 96 80 66 61 48 51 50 50 52 52 79 124 135 140 128 127 121 113 113 130 116 105 95 98 95 103 104 97 88 86 90 98 102 100 97 91 78 74
192 152 147 127 99 92 87 66 60 52 31 32 32 46 67 84 100 118 127 114 117 125 113 92 93 70 85 79 82 80 89 90 90 76 76 74 86 86 78 67 57 70 81
169 145 170 130 108 105 85 66 33 32 39 36 35 61 64 75 85 91 93 97 107 128 96 72 83 69 79 90 94 96 85 90 94 83 79 86 98 108 98 80 111 112 113
156 192 151 125 103 83 80 63 36 16 18 22 3 -12 45 58 102 73 78 127 87 130 108 119 97 99 94 94 90 97 103 103 103 107 115 122 136 132 113 142 140 142 146
196 186 156 122 105 80 59 51 47 33 27 18 25 14 6 38 61 66 91 100 121 95 82 72 64 60 66 68 70 80 84 95 96 96 107 119 130 126 128 149 137 132 124
205 177 150 124 104 72 63 52 35 29 12 40 17 40 38 46 29 30 45 93 88 86 57 44 34 34 26 41 58 76 94 97 96 114 123 136 154 153 156 157 161 166 171
195 170 140 122 102 87 77 64 50 45 38 28 34 38 53 64 75 75 85 90 84 48 36 17 19 -2 5 23 41 48 47 77 98 115 142 154 159 176 192 180 176 166 168
192 167 145 124 111 98 86 77 73 69 57 55 46 45 49 47 49 70 93 86 89 42 62 10 33 39 35 47 51 56 74 95 101 109 126 133 136 133 136 143 154 174 177
183 158 136 124 115 102 98 92 96 86 82 77 71 74 76 82 99 108 107 107 126 83 46 69 59 37 21 39 79 78 100 114 136 161 171 152 144 147 142 136 132 125 103
183 158 154 139 126 118 117 115 109 104 92 88 87 90 103 104 107 109 115 103 85 100 105 114 73 42 92 113 77 42 66 46 84 102 91 98 118 132 132 137 121 171 117
195 171 155 146 142 141 136 128 118 109 108 112 107 108 110 106 114 122 137 153 158 146 137 154 140 157 131 105 47 37 75 48 40 34 51 77 78 80 109 109 115 135 146
198 174 167 166 158 150 142 133 127 126 115 114 115 110 107 120 124 138 160 179 191 197 275 211 185 153 93 62 51 42 60 43 44 55 54 58 87 71 59 58 73 76 85
189 187 182 172 162 152 147 143 140 119 114 114 116 123 125 134 148 164 175 185 204 210 243 234 203 143 94 81 82 80 70 76 114 88 42 25 6 17 17 24 29 35 39
206 197 185 178 165 156 150 148 125 110 113 121 123 133 133 153 148 148 167 174 190 181 203 183 170 149 119 94 85 97 128 131 117 75 39 40 14 -11 -8 1 4 8 16
214 201 188 184 166 155 144 121 103 108 115 115 124 126 131 139 138 145 156 165 162 154 154 184 186 187 138 118 136 126 102 109 113 63 89 56 36 36 28 23 20 12 -3
209 201 196 171 155 141 123 106 100 105 112 113 125 132 129 124 127 139 144 117 120 154 145 166 203 196 158 121 118 117 106 115 115 111 170 99 86 67 55 45 31 25 10
215 199 170 152 145 122 112 101 101 110 116 125 125 117 118 123 111 122 149 154 146 152 153 185 180 147 123 110 100 98 131 120 126 121 202 174 179 213 189 97 73 35 19
203 175 156 147 135 118 94 96 108 118 129 128 114 109 128 129 123 76 94 86 108 121 131 140 135 129 114 104 101 125 144 100 135 110 153 247 195 220 203 182 78 26 14
166 148 145 135 119 101 92 99 100 125 132 116 113 123 137 134 92 126 95 64 74 71 82 106 112 107 112 113 100 117 113 132 174 217 134 238 222 234 224 225 128 82 50
143 137 131 112 111 103 90 100 105 119 114 116 121 119 111 104 107 95 103 123 98 79 89 91 84 107 111 103 55 105 87 111 188 209 131 268 258 262 276 353 201 121 137
134 126 108 115 108 92 97 95 99 114 118 123 116 85 99 105 81 45 113 103 86 72 61 28 42 49 44 31 56 111 125 118 108 161 150 182 208 219 291 383 269 232 191
123 119 114 95 77 93 93 88 96 118 126 112 81 96 89 98 52 59 87 88 86 59 45 61 71 66 55 66 59 86 113 122 111 130 144 177 180 118 180 249 311 316 284

GFSMA_con_3kmhel_024.txt.gz
Helicity
119 124 114 107 107 83 73 64 66 66 68 59 49 48 50 55 62 69 84 147 162 154 148 135 125 148 136 128 131 116 112 116 129 136 134 130 141 128 135 148 148 140 122
146 131 127 134 115 90 75 73 80 69 61 53 47 51 56 57 55 72 83 104 147 148 140 137 133 138 133 121 118 112 98 100 100 99 103 106 109 109 112 125 136 143 151
143 148 146 135 114 90 70 66 64 54 48 46 44 45 45 50 60 73 88 100 100 138 150 144 139 137 131 125 116 111 98 93 93 91 90 96 92 86 87 95 105 116 118
139 155 147 123 101 79 76 70 53 46 46 43 37 38 39 48 69 94 111 119 126 114 103 130 133 124 114 105 103 105 99 95 100 95 86 84 84 84 82 84 86 91 89
158 179 147 112 92 86 82 61 56 52 50 42 32 34 42 53 78 92 116 120 118 106 103 95 96 81 95 86 84 92 100 89 98 83 85 78 92 88 81 75 75 72 68
187 209 139 110 105 89 74 59 55 50 43 34 27 33 55 67 83 91 106 104 104 85 97 91 82 79 52 64 70 80 93 83 96 84 87 72 70 73 73 72 67 57 42
227 193 148 119 114 92 80 63 48 44 37 32 18 41 57 75 79 90 83 76 118 92 77 82 84 80 80 81 88 111 116 116 106 107 97 92 90 85 79 78 71 66 76
232 145 142 131 109 93 81 69 46 25 29 34 26 27 60 66 103 58 108 101 86 108 111 109 105 103 98 92 99 100 116 129 140 133 128 126 126 125 120 117 113 116 120
203 153 147 133 114 91 77 62 51 37 29 33 40 29 18 65 92 63 85 97 100 112 105 94 80 71 70 69 72 82 103 113 123 128 136 143 142 140 145 149 155 158 166
178 179 154 131 116 94 75 61 52 48 23 35 18 46 56 72 67 65 65 20 92 75 81 78 69 62 63 73 79 72 103 132 128 131 137 145 145 152 155 152 149 160 169
184 173 148 131 119 99 82 64 51 51 49 41 45 47 51 53 57 79 69 69 78 70 58 52 34 20 24 32 38 36 83 40 47 65 92 119 144 178 196 202 208 197 203
188 165 151 137 120 101 82 69 64 60 58 60 59 60 64 71 73 78 74 76 77 56 70 56 38 32 42 62 58 86 79 66 83 105 119 123 123 129 139 143 148 181 179
177 159 146 134 122 108 93 77 72 69 69 63 73 82 86 82 92 94 96 92 100 89 62 38 60 59 78 61 72 81 102 115 133 136 142 142 158 176 179 179 178 188 169
186 159 157 147 130 112 97 84 83 80 84 89 97 101 103 105 110 107 112 107 100 89 96 77 116 122 130 109 127 71 89 68 48 50 69 91 101 122 138 142 167 176 134
202 176 162 149 133 116 103 92 91 91 94 109 117 114 111 121 118 113 117 121 114 101 112 122 110 168 188 175 142 127 119 66 54 43 55 70 66 63 56 59 71 96 102
203 185 168 150 135 124 111 102 104 106 106 126 137 129 121 126 119 119 124 135 143 146 210 192 187 201 187 176 141 96 77 71 46 37 34 21 21 37 39 38 36 41 47
205 186 168 155 141 127 119 111 108 114 120 139 134 124 121 121 119 128 142 154 168 182 211 215 207 187 172 136 112 111 115 113 112 38 39 33 29 25 25 9 13 6 23
204 188 175 162 150 139 129 119 116 124 132 130 127 126 122 132 121 134 160 170 188 191 214 177 183 169 142 121 104 92 101 97 89 55 18 21 16 14 15 25 28 23 27
203 193 176 163 156 144 128 120 121 123 121 118 121 123 122 126 134 161 167 177 188 201 194 216 198 158 146 130 104 108 69 79 72 40 25 30 19 24 24 28 26 27 25
198 186 174 172 157 138 124 120 118 112 114 112 113 109 121 132 143 151 158 166 182 207 176 172 172 167 161 125 110 97 87 65 77 70 81 54 39 40 44 51 37 29 29
193 172 172 160 147 128 132 124 114 114 104 108 104 113 130 145 122 135 186 183 191 191 157 159 171 182 123 102 91 78 78 82 80 67 111 113 117 135 167 103 79 54 65
169 171 163 151 134 129 133 114 113 108 104 101 112 129 131 129 143 146 159 151 120 131 131 143 160 136 87 92 71 74 93 87 38 75 101 180 131 149 188 172 107 74 46
163 157 145 129 129 121 123 116 101 92 108 121 121 126 143 170 167 181 149 70 76 52 79 102 113 91 88 56 72 63 94 96 128 159 110 136 134 171 176 192 148 83 41
151 136 130 125 110 124 110 97 87 91 118 119 121 129 157 174 165 127 96 119 114 90 78 97 82 73 77 94 88 63 86 56 146 163 100 122 145 138 170 227 144 63 109
126 126 111 110 125 105 101 93 97 105 114 119 132 129 149 115 87 52 106 113 95 73 66 48 31 28 38 22 38 98 107 89 100 122 123 87 98 130 125 218 144 86 112
119 104 114 99 105 89 97 90 91 104 124 155 134 113 94 95 68 57 95 95 90 63 57 52 59 53 45 46 31 75 114 103 102 97 108 82 102 80 29 134 131 157 160

GFSMA_con_3kmhel_027.txt.gz
Helicity
86 84 156 139 126 99 77 64 59 51 55 48 46 47 53 57 66 76 109 139 145 147 148 136 125 126 112 111 108 102 88 89 96 100 102 105 114 120 125 134 142 153 160
123 161 152 137 139 111 89 75 76 65 58 51 46 47 54 62 56 68 97 101 128 136 131 128 125 118 112 111 105 93 83 74 81 90 91 88 89 96 95 95 103 118 136
158 148 159 146 125 103 83 77 69 61 47 44 37 51 51 54 53 57 72 108 75 106 114 116 117 108 107 111 100 87 77 74 74 83 80 84 88 101 102 96 96 99 102
137 145 157 150 107 101 93 90 75 49 40 43 41 47 41 44 48 71 89 93 107 93 80 103 92 86 92 103 97 89 85 92 82 87 99 94 96 94 104 99 96 97 97
148 152 163 140 95 110 101 84 75 58 49 43 30 39 53 52 67 80 80 90 93 89 99 87 74 60 69 88 97 96 101 106 103 96 99 102 110 106 111 106 100 92 95
194 204 169 127 115 105 97 81 68 59 49 35 25 30 59 59 77 67 73 82 78 87 89 99 74 84 76 76 77 87 106 109 109 103 101 96 95 94 93 93 96 90 87
223 204 189 151 109 111 107 80 67 58 50 37 10 32 32 63 57 70 75 72 99 83 92 92 98 92 90 92 92 106 105 111 120 122 114 109 102 95 89 87 79 77 77
271 237 183 144 128 123 106 83 65 46 40 33 9 -14 32 53 53 64 73 121 94 120 112 117 109 103 111 107 101 108 112 125 129 135 138 134 130 128 125 119 114 106 93
329 283 209 163 133 123 105 86 72 55 38 33 33 18 11 58 92 78 76 105 99 112 119 105 90 100 106 94 94 109 101 95 99 119 116 119 128 133 138 146 157 160 159
370 268 223 165 156 130 102 81 69 54 22 43 11 44 63 97 83 92 137 104 94 115 81 102 98 95 83 86 97 83 88 96 102 106 99 108 120 133 145 155 170 184 187
366 346 197 160 155 135 104 87 69 60 54 47 46 48 49 53 50 87 90 81 115 113 122 99 95 80 63 82 98 97 93 94 71 60 52 63 84 110 140 173 203 224 263
349 255 176 183 153 135 107 94 82 67 62 61 61 60 70 92 112 132 121 105 102 100 104 114 99 77 59 69 73 73 107 84 69 47 50 90 127 166 198 216 210 221 214
361 254 189 171 156 137 112 93 77 64 64 66 74 76 104 102 116 121 125 123 131 134 108 85 96 98 132 188 145 87 122 64 69 83 110 148 180 193 186 183 171 162 171
277 246 197 165 149 126 112 95 84 78 79 74 88 100 114 117 130 133 146 148 132 142 129 91 134 124 203 180 176 126 166 121 94 70 79 104 109 115 122 114 100 93 85
230 207 194 173 146 130 113 96 92 82 82 98 108 110 110 123 144 153 159 157 155 152 139 136 125 221 228 244 202 209 195 109 63 60 59 65 60 60 66 61 54 57 48
202 200 204 173 150 133 119 109 105 112 104 117 123 123 134 150 162 162 148 150 163 174 212 204 192 210 209 231 209 174 144 67 91 50 41 28 40 53 51 44 34 22 17
211 201 196 174 150 134 121 107 116 119 110 121 125 133 139 151 155 148 151 161 177 194 214 224 215 214 219 209 189 159 146 131 121 50 28 22 33 31 26 29 22 2 -5
234 200 191 171 152 139 127 116 115 116 123 124 138 148 143 149 148 140 154 169 191 188 203 200 217 227 190 165 151 144 121 125 103 59 32 17 19 21 21 21 6 15 27
235 212 184 168 156 147 130 129 136 135 130 133 139 144 141 141 146 161 177 192 195 208 219 241 243 216 184 157 132 107 121 100 126 65 28 19 21 6 12 27 26 23 19
204 188 177 168 164 150 137 147 135 124 125 133 131 128 129 143 148 172 205 204 211 226 238 248 228 189 161 137 120 127 118 118 98 94 64 68 25 36 42 46 22 -2 15
179 165 153 159 162 131 164 157 129 132 130 121 120 125 134 157 162 147 178 184 203 233 222 195 179 163 147 121 112 117 114 97 91 97 118 127 109 157 135 89 64 35 36
170 149 167 167 140 160 166 135 137 129 112 111 127 141 153 158 163 173 161 169 175 176 152 153 157 148 111 118 118 109 94 93 99 99 90 99 130 169 163 160 66 35 9
165 176 159 142 147 125 162 128 113 99 104 109 133 148 160 163 181 205 195 152 145 68 48 103 109 119 115 112 97 123 115 112 125 117 104 139 158 160 140 135 82 108 17
160 152 142 126 119 137 135 108 93 83 102 117 135 131 149 163 172 166 177 159 132 105 87 103 106 112 105 103 134 139 109 121 142 144 109 133 142 121 99 162 140 113 37
151 128 110 129 117 108 129 100 96 105 117 115 124 151 154 165 138 118 138 137 103 100 70 31 37 21 18 13 40 113 125 111 106 155 135 126 108 97 101 147 157 111 126
113 126 126 102 106 93 106 111 111 114 109 150 165 158 137 140 120 94 105 107 95 83 70 57 68 66 59 74 37 83 110 126 136 111 130 100 101 72 72 152 148 186 169

GFSMA_con_3kmhel_030.txt.gz
Helicity
77 44 151 205 163 114 83 86 104 94 81 68 67 66 71 82 99 104 95 130 134 132 120 108 100 95 88 87 82 83 78 70 72 84 90 89 87 93 102 103 108 112 121
72 180 266 212 160 130 120 135 125 104 88 73 62 59 70 83 90 107 79 79 106 112 104 97 91 92 89 89 81 78 79 73 65 70 88 93 97 94 99 100 94 97 108
218 271 232 183 129 118 112 139 110 95 91 71 56 47 73 70 74 87 105 71 63 78 78 82 86 81 78 79 83 78 73 76 84 74 79 92 89 103 101 108 106 99 100
287 262 221 164 131 112 149 153 129 104 87 74 53 44 55 59 57 95 114 115 79 69 75 79 75 72 69 77 82 88 84 84 86 96 94 96 101 106 106 109 116 116 111
239 231 192 176 151 158 166 128 128 106 88 65 41 35 59 58 54 92 95 105 94 104 83 67 69 67 56 75 83 87 96 98 95 97 102 106 106 114 117 116 117 114 114
251 233 200 188 182 193 158 141 112 93 77 57 33 24 47 38 68 82 82 91 82 106 82 86 68 83 104 81 81 90 95 103 111 114 112 104 98 95 96 93 92 97 92
312 245 226 256 222 169 135 124 110 95 93 67 44 31 23 47 42 39 54 77 107 91 82 76 106 87 75 84 91 77 84 94 103 102 107 117 115 108 103 98 95 89 84
294 280 314 288 253 225 175 145 100 82 69 68 43 21 34 35 40 33 81 108 113 110 124 121 100 78 87 96 90 79 107 107 101 113 130 137 123 115 112 111 110 108 109
326 341 337 349 282 221 171 144 112 92 68 50 51 32 43 31 41 89 88 119 104 112 113 90 81 87 115 104 85 97 96 75 75 74 98 96 94 90 97 107 120 131 142
392 381 394 343 297 257 195 144 111 89 69 54 43 50 55 64 62 69 112 114 96 135 111 107 97 101 110 100 85 100 80 68 66 68 81 79 74 84 98 115 125 142 158
428 426 413 374 326 248 202 167 124 106 88 64 53 49 49 56 60 92 86 96 103 100 104 102 105 103 93 102 115 122 91 87 92 82 75 69 77 93 99 114 151 182 192
506 455 420 369 349 274 228 174 131 110 95 90 78 70 68 73 87 122 141 116 107 97 119 106 98 94 96 92 78 114 115 100 77 53 37 27 47 79 131 160 181 178 195
511 458 427 383 321 287 200 144 126 103 91 91 89 85 103 103 124 133 150 134 155 136 117 111 90 91 100 127 172 184 171 132 118 83 58 66 110 150 161 159 157 158 134
495 429 385 376 279 237 186 149 127 109 103 92 93 100 108 113 133 153 163 159 134 164 160 100 102 99 164 173 188 184 188 185 129 89 81 110 139 127 132 111 116 116 108
417 382 382 318 249 230 161 134 116 107 98 87 88 98 102 110 140 160 168 175 183 173 144 137 125 141 133 143 157 170 170 134 110 88 114 110 94 90 98 105 91 71 50
376 378 363 283 271 205 165 143 129 119 106 100 96 120 122 139 160 165 165 176 189 205 221 222 179 172 160 162 153 145 153 102 92 81 72 66 70 64 73 60 48 36 24
385 370 304 275 222 176 149 140 132 118 107 102 120 127 128 151 154 162 172 170 186 204 212 207 202 180 209 183 158 156 147 144 139 58 48 51 44 51 41 28 30 25 18
312 352 314 242 211 166 146 136 117 118 111 111 128 143 142 164 167 161 166 167 193 198 228 197 198 201 207 177 177 167 151 136 129 63 25 29 18 25 16 19 23 22 25
352 325 305 260 200 177 155 140 135 125 125 123 132 138 142 160 161 167 178 197 215 207 221 234 219 212 194 171 172 148 145 141 113 65 27 33 19 17 17 9 23 20 19
334 335 309 234 181 154 136 115 111 117 120 143 138 139 145 148 157 172 188 189 190 204 204 214 220 206 178 159 143 155 136 123 119 107 76 44 36 45 19 39 43 38 41
353 261 263 190 129 108 109 146 159 151 157 144 140 139 148 159 145 142 173 192 192 195 214 215 195 184 172 160 126 125 144 140 124 119 110 119 132 147 126 75 69 67 61
224 304 193 145 157 128 150 145 146 142 145 141 136 137 147 136 134 155 166 154 160 176 194 186 186 156 123 119 140 148 146 145 140 106 151 122 134 163 133 139 63 59 80
170 169 165 132 138 133 135 136 144 144 134 123 126 129 140 151 153 170 152 128 134 102 107 127 127 118 107 108 137 149 175 178 177 154 120 110 131 155 144 109 56 52 81
164 147 156 123 122 115 125 154 140 133 119 111 109 120 142 149 147 145 180 200 176 149 117 121 103 93 102 91 101 128 128 156 183 147 127 163 157 142 126 107 91 81 63
146 137 115 122 123 165 130 136 137 126 123 118 128 148 155 154 140 118 204 189 145 126 92 36 16 13 21 16 36 102 117 134 150 158 158 189 177 135 134 130 94 36 100
132 132 127 132 128 122 106 123 120 120 114 127 133 125 107 141 141 144 159 141 123 101 81 81 85 73 62 90 39 88 112 142 168 168 180 175 155 121 48 128 82 153 138

GFSMA_con_3kmhel_033.txt.gz
Helicity
102 117 121 91 71 69 86 94 96 105 97 92 81 79 88 108 79 84 78 115 113 119 105 92 87 87 88 84 81 79 70 66 63 64 77 81 87 93 100 115 118 113 114
98 139 166 146 120 130 149 127 122 112 107 86 93 78 79 99 84 80 77 80 97 97 93 94 92 89 90 85 74 74 73 66 65 63 64 77 84 85 94 99 109 111 102
142 206 212 169 142 172 181 161 156 129 122 101 100 79 71 76 94 82 79 75 78 84 85 88 85 84 81 84 82 79 75 76 76 75 71 81 88 97 102 102 104 111 109
245 252 236 184 191 205 170 187 169 164 132 107 80 75 69 66 78 91 77 73 69 69 76 79 84 81 80 89 88 85 78 83 83 88 97 100 105 109 113 118 116 113 114
311 286 238 210 230 231 198 184 185 141 131 103 73 68 53 58 57 78 89 75 60 66 56 48 61 96 95 93 84 88 90 90 91 98 109 116 122 125 130 128 124 117 111
334 309 259 237 233 253 224 205 188 168 116 96 73 64 42 42 45 54 61 54 71 82 71 65 84 73 79 68 71 85 86 91 92 112 112 114 117 120 117 114 109 104 103
358 309 273 264 235 244 197 189 191 165 142 102 90 81 58 43 36 21 38 66 73 71 67 87 71 60 63 66 70 77 78 80 99 95 103 106 118 115 110 98 92 88 87
384 368 320 289 267 276 229 202 185 166 127 113 95 88 90 63 37 39 54 66 80 92 95 85 73 68 58 61 56 81 68 85 92 93 94 110 126 121 114 103 101 104 108
430 398 364 345 314 304 246 212 174 156 136 109 93 76 89 66 55 52 70 91 124 119 124 116 97 75 68 71 76 68 68 68 70 66 71 98 96 95 88 93 97 103 102
479 418 433 394 354 310 268 228 207 159 140 113 95 89 83 77 68 74 82 100 134 158 129 100 89 92 88 91 81 67 58 61 56 59 68 73 72 74 78 88 94 114 150
526 538 460 426 367 321 290 277 250 201 147 117 99 92 94 92 105 114 92 109 141 110 98 118 99 100 123 121 110 88 63 69 76 79 74 79 84 91 105 117 139 176 158
536 547 521 430 409 336 314 308 261 206 208 148 108 96 91 97 103 123 116 119 108 87 118 100 100 118 123 106 124 154 153 114 91 87 73 66 65 75 86 121 149 160 181
556 590 553 496 423 330 346 325 267 252 180 132 105 101 104 106 122 135 153 126 143 126 100 88 94 95 110 140 134 157 154 154 135 120 97 82 94 111 136 170 159 150 145
573 582 531 483 388 368 365 324 295 234 160 131 117 109 106 112 130 147 153 153 141 156 146 84 101 100 95 81 98 116 141 156 154 136 116 118 133 164 149 139 121 134 118
570 565 500 465 380 337 330 279 277 216 146 113 100 99 109 119 152 171 180 178 176 164 127 130 112 113 86 95 95 108 136 122 114 115 112 118 130 131 110 129 102 118 89
471 536 485 427 410 291 358 316 249 167 131 111 99 103 112 125 141 164 169 179 192 197 223 204 156 130 105 104 99 127 135 121 106 93 107 110 106 103 105 103 103 89 82
438 498 503 468 275 292 328 264 203 139 120 102 105 94 101 126 147 178 179 180 187 211 210 202 189 150 153 135 140 163 156 147 147 83 81 87 85 96 95 83 71 60 41
458 494 478 306 399 333 258 246 173 123 99 91 84 96 88 124 157 158 165 163 185 181 197 165 164 167 162 163 187 192 179 163 155 103 69 61 63 59 60 39 37 41 53
452 395 394 386 251 294 280 254 184 121 89 89 79 98 102 135 144 152 164 169 174 179 191 205 177 180 191 177 192 190 176 170 153 59 42 34 29 37 35 35 45 56 58
480 419 332 308 308 273 266 170 159 126 115 106 130 131 131 130 130 135 141 143 162 177 175 181 190 197 183 159 165 178 167 130 126 111 85 54 35 29 49 59 64 68 59
540 384 462 306 210 205 185 190 158 120 126 143 156 153 150 133 117 121 160 170 176 185 186 207 216 196 165 176 176 148 131 124 124 116 121 106 124 161 156 89 69 51 46
463 432 365 370 198 172 165 125 133 143 154 154 150 148 136 116 123 129 145 135 159 186 218 225 211 196 181 159 141 129 132 136 99 77 128 140 133 146 152 136 37 28 51
230 241 147 161 137 92 121 166 168 160 146 142 133 127 133 138 156 161 137 129 143 116 117 164 192 163 155 131 131 139 146 130 127 132 117 145 131 139 140 126 49 49 57
154 80 55 75 119 122 156 150 151 146 146 136 128 147 163 160 151 151 168 195 184 165 144 160 149 141 138 115 100 101 82 99 122 131 130 163 134 152 133 158 76 37 18
38 22 105 124 152 126 115 125 137 129 138 135 138 151 145 146 155 154 199 207 187 149 114 64 49 42 36 33 47 99 101 107 116 124 129 156 148 158 136 149 97 18 48
88 126 145 131 101 100 81 99 101 112 131 130 115 134 140 158 134 131 170 181 163 125 112 102 98 75 68 85 44 98 124 137 142 128 130 171 141 114 38 163 103 175 150

GFSMA_con_3kmhel_036.txt.gz
Helicity
92 106 89 83 77 95 88 95 106 111 110 98 91 88 85 89 89 86 89 122 117 111 108 100 93 91 88 82 82 79 76 78 80 77 77 82 89 87 95 100 105 111 101
121 143 108 87 92 95 97 123 122 121 124 109 109 101 85 82 82 82 78 89 110 105 102 101 95 83 80 78 75 77 81 78 77 76 76 82 88 92 97 105 108 109 107
144 154 138 139 129 122 151 172 168 157 150 132 124 104 93 79 68 73 73 82 91 102 92 88 87 81 79 87 82 78 78 89 91 89 94 96 102 103 105 115 121 118 119
160 182 174 162 184 170 182 186 184 188 167 145 120 108 91 78 71 67 69 66 64 67 71 73 77 82 86 103 99 99 87 77 92 97 102 107 112 121 128 124 122 120 115
206 229 213 225 233 213 210 209 188 168 159 146 122 110 93 77 74 73 58 49 40 51 53 53 78 91 93 98 93 94 98 79 86 88 102 112 128 132 139 143 141 136 130
249 270 277 290 262 258 244 216 197 190 165 150 144 127 101 83 64 64 50 52 46 51 56 67 73 77 84 89 83 85 90 88 83 84 89 104 114 127 132 139 140 132 126
295 313 315 333 295 276 244 233 218 187 183 151 163 149 121 99 70 51 54 60 67 71 77 82 81 83 78 66 68 66 91 79 82 88 93 97 103 113 118 118 110 99 99
375 343 341 350 325 316 267 230 198 200 181 158 156 162 145 114 92 82 72 76 92 98 118 116 97 82 74 76 60 63 72 81 87 97 103 97 99 116 118 104 101 95 87
423 358 334 375 373 348 281 227 200 193 194 176 153 149 168 133 117 100 105 120 128 137 143 153 130 119 104 91 87 81 65 69 77 86 91 92 99 109 107 108 103 109 104
438 445 419 407 424 383 305 252 220 213 215 200 191 172 158 135 117 110 99 112 149 159 153 127 127 134 142 139 132 117 91 74 70 80 90 93 90 94 93 87 99 98 120
431 440 441 444 442 420 329 296 264 234 230 229 191 166 162 153 148 148 125 127 141 149 133 144 133 175 201 198 182 169 175 137 115 99 96 92 96 96 94 104 106 119 132
522 479 473 477 476 487 417 329 286 254 258 250 191 201 170 131 120 138 140 131 131 126 160 143 167 197 194 204 202 201 174 139 114 103 91 83 83 88 95 103 115 138 161
550 513 517 551 528 575 481 406 355 331 283 274 225 213 167 137 130 136 142 126 141 126 128 131 135 177 194 176 132 136 126 128 117 119 111 95 103 121 140 149 179 164 173
584 594 592 594 565 597 505 426 388 405 354 274 277 197 174 140 124 122 125 136 143 156 171 129 151 159 157 104 92 105 127 129 135 132 130 149 162 171 173 184 178 143 151
590 596 557 522 454 564 478 435 414 432 244 288 270 224 154 124 122 125 130 136 150 141 140 158 149 129 115 84 61 89 109 109 105 110 131 154 167 177 177 177 132 132 166
527 513 460 433 457 543 473 471 438 459 289 281 256 195 155 126 113 113 121 154 188 164 212 185 180 147 108 100 88 109 120 104 104 114 118 142 155 143 141 115 138 128 100
433 411 420 457 495 536 500 458 384 253 185 311 234 162 118 100 88 96 126 177 171 211 219 216 193 159 156 136 133 148 143 159 161 111 118 138 128 112 109 112 81 83 83
343 398 492 544 556 558 517 418 203 279 227 232 147 156 130 106 87 99 150 147 183 182 209 180 175 166 148 136 152 166 180 169 164 119 110 99 88 82 85 73 68 69 63
392 410 504 575 541 510 504 348 389 258 205 196 195 159 124 94 97 133 163 179 176 180 197 199 169 170 153 152 161 170 179 180 188 123 98 74 65 65 62 62 67 71 82
406 480 520 508 475 420 351 242 309 266 249 228 185 156 81 99 128 152 163 155 169 179 170 181 185 195 173 171 175 177 199 177 187 156 112 68 50 54 57 67 66 70 78
429 465 471 524 511 438 384 404 310 267 189 133 77 107 133 143 135 122 156 152 161 182 190 199 214 234 203 165 177 192 197 175 153 129 130 101 112 126 155 113 86 57 53
460 490 496 397 384 359 200 226 104 98 86 99 133 154 163 156 156 139 137 142 156 202 216 227 244 208 183 189 190 181 180 167 107 58 127 107 110 125 140 136 56 25 33
373 340 395 308 167 181 114 68 68 84 125 153 162 160 166 174 189 177 160 153 171 181 176 199 199 190 190 161 169 160 150 118 124 129 108 102 102 128 126 120 44 37 35
174 168 192 175 101 57 52 80 109 146 152 152 139 140 148 141 148 156 176 206 214 203 171 175 187 160 162 137 123 118 102 109 117 111 100 114 106 132 121 146 73 25 2
110 111 74 41 46 79 72 94 126 127 129 134 127 131 143 147 142 169 196 199 203 173 144 97 68 63 55 50 60 117 122 115 106 103 99 106 108 120 127 139 93 16 19
56 39 44 62 74 75 70 67 88 117 121 122 131 137 159 181 163 153 196 206 197 152 139 115 114 85 71 86 56 117 137 142 136 97 108 121 108 98 45 146 106 182 163

GFSMA_con_3kmhel_039.txt.gz
Helicity
138 128 103 87 83 98 89 94 102 106 116 117 104 100 93 95 94 93 99 131 120 106 102 99 95 90 82 76 76 77 77 83 87 89 87 85 93 98 102 108 111 109 111
150 134 119 92 95 96 94 99 112 117 121 117 118 110 100 93 91 91 93 100 114 103 98 98 90 88 88 84 79 78 76 80 83 86 91 95 96 101 104 114 121 124 120
172 154 139 113 99 115 119 138 152 151 152 148 135 120 107 86 83 86 84 88 95 94 92 88 88 90 93 99 94 89 88 86 83 87 92 99 98 104 116 126 129 130 137
178 160 155 129 135 157 160 169 173 172 149 135 129 119 115 99 82 83 83 76 69 74 74 76 79 82 97 97 94 93 88 70 80 88 99 98 104 114 119 121 123 129 135
175 182 172 157 194 209 200 201 188 156 139 136 131 130 122 105 85 82 69 64 56 63 63 65 75 88 95 97 99 97 87 81 79 74 82 93 101 106 118 123 130 126 119
182 196 196 208 243 250 234 209 198 186 152 142 150 151 136 115 93 82 65 67 62 66 69 78 86 85 93 94 95 94 92 92 84 77 77 82 92 101 112 117 120 121 118
209 206 204 234 280 293 242 247 233 187 173 152 167 155 142 135 122 94 80 76 72 81 89 97 101 97 91 94 89 83 95 98 90 84 85 85 80 80 100 106 101 101 105
270 247 265 251 300 331 306 279 254 239 195 164 163 164 146 141 138 126 101 93 95 116 123 132 131 123 112 106 92 87 92 90 94 92 93 92 90 82 90 88 86 89 85
324 289 296 289 331 341 329 289 285 267 245 200 168 175 173 149 141 145 141 137 140 148 153 159 148 148 136 125 123 115 111 103 90 86 87 92 97 86 79 75 82 73 79
340 346 331 311 353 380 343 329 316 305 291 239 228 197 194 177 162 139 144 143 157 158 161 154 154 154 173 174 190 178 179 153 118 105 104 100 91 84 83 78 75 79 90
392 405 395 362 355 410 371 361 364 333 295 281 275 253 233 229 211 199 155 148 144 132 135 141 146 182 223 233 216 222 225 199 164 131 109 96 89 88 87 87 90 94 94
444 424 433 404 383 389 389 344 329 362 326 284 286 257 249 230 199 216 208 172 152 150 153 147 175 199 231 242 230 241 219 177 146 118 94 88 87 93 90 103 103 100 102
469 409 465 487 457 424 439 426 378 398 378 283 315 322 263 261 226 228 212 180 161 150 151 138 160 202 230 230 198 219 166 160 135 116 108 102 108 107 127 112 108 109 131
403 443 491 498 486 510 501 477 474 481 438 332 380 313 289 202 217 256 185 176 164 172 161 118 133 169 213 194 160 148 133 122 115 105 108 111 123 129 128 126 130 137 159
459 470 535 513 533 554 503 500 513 508 495 464 485 344 375 241 163 230 185 158 175 183 167 137 126 160 170 151 109 107 92 78 81 88 94 104 123 135 147 160 152 168 169
430 473 470 508 557 518 482 500 546 497 565 533 412 474 248 369 203 182 155 153 147 147 170 111 137 156 165 142 106 105 105 84 82 93 94 108 123 134 154 166 168 156 170
423 419 416 469 459 448 463 528 544 579 581 498 505 356 198 281 243 203 133 147 143 159 193 183 167 170 170 144 132 139 125 139 140 99 108 117 131 146 152 162 148 139 103
377 365 371 387 441 499 568 582 611 495 474 418 352 207 198 278 246 142 151 138 137 160 180 178 173 168 145 135 124 130 129 136 152 110 114 122 149 164 154 116 100 91 73
330 347 387 437 529 604 645 581 479 425 410 371 317 306 267 222 198 149 145 143 154 163 188 197 164 137 123 126 128 124 135 135 152 117 107 115 152 139 113 94 95 83 88
379 395 422 463 513 511 475 436 432 407 458 452 349 245 186 151 113 88 126 131 160 185 171 167 169 171 151 115 134 121 124 158 181 175 126 120 109 84 80 88 80 69 55
352 392 429 489 491 493 475 508 465 481 427 287 180 123 61 61 74 82 130 148 162 169 167 175 177 181 173 149 134 152 191 182 183 156 151 150 117 160 187 134 101 62 49
381 403 426 423 414 376 326 310 269 289 189 135 61 77 105 119 154 175 172 163 161 183 193 199 187 182 180 178 197 192 193 203 175 101 150 142 115 138 171 149 64 28 35
306 328 320 306 308 239 207 228 191 112 56 76 99 107 137 146 165 156 149 159 180 165 140 163 186 197 188 177 183 180 174 165 151 151 126 136 104 136 135 109 38 29 33
194 222 227 179 185 139 111 82 77 73 99 108 105 100 110 124 136 143 142 148 165 163 141 184 189 163 171 152 144 131 118 124 146 130 114 133 102 130 90 132 64 25 8
170 148 160 99 95 44 36 57 78 90 85 77 88 115 114 131 117 125 144 165 169 161 151 108 93 98 82 65 65 109 126 123 109 110 117 117 106 93 99 117 78 3 9
75 55 44 56 20 21 37 62 61 72 105 123 129 132 120 120 110 113 159 184 170 139 150 129 125 91 71 76 54 109 132 146 142 113 133 157 134 90 32 139 110 162 158

GFSMA_con_3kmhel_042.txt.gz
Helicity
118 133 117 110 101 101 91 91 97 101 97 94 88 86 87 91 93 98 114 132 113 96 86 81 81 76 71 69 73 74 78 84 84 80 78 81 85 92 93 100 102 100 99
142 142 136 120 119 103 101 102 101 110 114 102 104 98 94 94 99 103 108 112 114 97 92 85 78 75 72 65 67 69 74 76 79 79 84 91 94 99 101 102 104 106 109
157 148 140 140 122 120 127 134 136 136 142 132 130 117 104 93 96 102 104 107 108 101 89 81 77 75 76 81 71 69 64 60 63 70 78 86 90 98 108 109 115 118 122
178 162 157 145 137 149 152 159 172 170 150 123 121 116 114 96 88 90 95 98 93 97 91 87 78 78 91 88 82 75 67 53 54 59 69 76 78 82 91 97 103 110 117
205 195 178 138 164 174 180 206 201 174 155 135 121 123 112 101 88 94 93 93 88 86 81 81 84 94 97 92 91 83 73 69 58 53 55 63 75 76 81 88 91 90 89
213 223 198 159 197 220 214 227 229 211 163 147 150 145 127 110 103 99 95 95 92 92 93 95 92 94 100 85 84 83 79 79 75 69 63 69 67 69 72 80 88 87 84
217 224 200 178 223 247 230 227 263 216 201 183 189 152 136 123 111 109 110 101 98 104 107 107 102 103 95 94 94 84 80 86 83 78 77 74 77 73 68 76 72 72 72
243 239 231 230 237 259 255 278 303 268 228 182 178 176 134 129 135 138 128 113 105 127 133 130 125 124 115 101 96 98 96 87 85 91 94 90 83 77 70 71 63 61 64
287 261 268 298 260 275 260 277 296 307 296 207 192 190 167 125 158 165 154 145 138 146 154 157 157 149 130 120 123 120 120 120 110 101 95 95 95 91 76 66 60 61 57
343 295 308 319 308 316 291 295 303 338 311 281 241 215 228 197 169 163 168 174 165 161 172 177 168 153 146 143 155 162 179 177 174 159 139 125 107 93 81 69 60 60 65
373 332 345 328 329 353 328 347 350 333 308 340 344 321 289 272 248 249 207 182 176 180 191 184 175 168 166 163 163 180 200 191 180 159 132 115 100 88 81 77 73 70 85
373 333 336 335 351 386 387 381 356 333 308 298 343 346 341 304 298 294 289 264 220 169 182 178 183 176 184 194 196 211 208 202 169 138 124 110 104 107 102 99 86 96 88
360 328 342 364 386 387 399 416 400 373 354 331 321 321 368 319 260 317 301 359 247 226 229 170 177 179 187 184 168 215 193 173 167 145 128 116 114 114 106 104 100 89 84
284 304 379 382 387 393 419 460 416 404 400 379 360 364 364 370 379 251 311 263 344 293 272 225 161 164 171 167 177 183 162 155 134 109 108 107 108 108 113 105 100 93 107
283 298 328 388 420 435 461 461 447 464 450 449 428 440 515 361 336 380 450 333 296 251 207 238 166 105 87 109 102 129 116 86 82 82 72 69 74 81 96 107 102 107 120
292 310 334 388 441 451 432 443 455 471 512 500 518 532 393 513 478 460 410 266 286 225 279 188 132 118 119 137 145 134 107 75 77 79 75 65 65 78 88 97 106 109 124
263 275 295 354 365 378 398 410 449 515 583 606 588 593 465 513 529 512 340 411 267 189 228 206 144 151 152 144 136 131 114 123 128 85 93 86 107 111 108 118 119 120 117
208 227 257 295 315 357 395 436 496 549 598 588 530 504 494 486 462 474 406 290 240 168 151 131 134 151 143 129 118 121 116 118 128 87 88 83 113 137 139 119 111 107 97
162 186 236 296 340 370 425 472 533 542 528 531 434 475 463 392 437 326 169 158 111 111 128 153 146 131 116 113 124 108 117 120 118 72 63 79 122 135 115 110 108 111 89
257 295 296 328 350 394 462 525 497 554 520 489 377 275 356 304 230 185 138 72 68 122 144 175 170 156 141 111 117 120 97 109 130 128 89 94 117 101 98 100 96 76 61
245 260 316 367 408 471 450 449 453 365 343 292 298 283 264 177 107 47 63 94 125 156 156 153 164 154 140 127 116 120 149 127 146 126 138 178 141 145 181 138 115 73 61
281 318 335 353 377 356 312 283 286 291 264 255 255 191 114 49 86 93 116 133 129 157 148 147 151 147 146 135 163 159 145 152 137 96 149 162 116 135 181 166 75 36 38
231 273 305 293 278 243 202 238 223 209 197 149 75 77 81 100 132 132 119 133 152 146 142 172 180 157 148 140 148 161 157 146 147 129 131 156 117 150 152 134 36 31 31
217 224 241 215 200 150 175 185 131 63 77 95 63 98 128 122 117 115 116 130 145 151 157 155 138 135 155 138 135 135 102 114 132 129 117 155 124 158 113 138 60 6 2
195 209 148 164 131 122 79 62 43 26 73 112 95 97 108 105 78 95 143 159 135 113 120 90 101 101 83 49 50 98 109 110 107 116 142 145 150 141 119 127 58 -7 22
104 89 81 52 13 11 28 46 52 76 97 87 90 87 83 99 106 77 108 137 143 127 114 105 101 69 59 66 50 103 134 144 140 109 122 164 175 128 89 171 171 172 136

GFSMA_con_3kmhel_045.txt.gz
Helicity
78 73 77 91 92 99 99 99 90 86 81 75 72 69 75 85 91 100 100 126 113 96 75 71 69 61 53 54 55 56 62 65 64 67 69 73 77 80 82 83 85 87 87
91 87 93 101 105 99 104 101 99 102 98 91 91 84 90 92 94 101 106 103 118 96 88 79 68 60 54 52 50 51 54 55 58 60 68 71 75 83 90 93 96 99 102
97 105 108 121 112 111 118 128 128 127 124 115 120 107 101 99 100 100 105 108 110 114 97 80 72 68 68 65 55 53 46 40 47 48 55 58 65 69 75 80 89 98 102
109 116 133 134 126 140 136 131 139 142 141 125 119 109 105 105 102 102 105 107 112 115 110 93 77 82 86 77 67 62 52 47 42 41 44 49 53 55 62 69 74 80 85
128 120 131 134 146 165 155 145 164 158 152 137 128 115 114 113 105 105 102 106 109 111 112 97 99 99 92 87 80 70 62 56 46 40 36 36 43 49 51 56 62 68 72
150 148 138 125 156 179 174 178 176 181 160 164 152 129 120 117 111 105 104 114 110 110 108 107 98 99 100 91 82 73 65 58 53 47 40 46 43 46 51 54 58 63 63
174 174 167 148 158 172 184 184 220 196 205 203 198 150 119 117 106 110 120 124 122 117 111 110 109 101 102 104 96 78 67 63 57 54 54 52 53 52 52 52 52 54 58
239 225 193 185 175 185 187 219 242 272 231 217 207 179 118 112 123 129 138 139 137 142 127 121 124 121 117 117 109 104 88 76 69 71 67 65 61 59 56 56 55 53 52
269 273 234 242 233 231 242 254 270 275 296 232 210 189 151 115 137 162 154 163 161 162 154 153 153 153 144 138 129 121 120 122 108 98 91 86 86 76 67 59 64 68 67
254 288 266 272 289 289 257 287 307 302 302 306 250 183 207 211 159 139 165 169 172 172 173 192 193 196 184 167 164 165 155 133 110 103 92 92 94 91 78 70 68 67 68
227 263 262 279 305 307 277 315 349 326 315 303 346 299 281 289 293 251 228 216 204 197 203 207 203 205 199 182 160 158 158 143 132 119 102 95 94 94 85 81 82 83 91
278 273 286 298 295 326 326 346 368 348 340 328 326 313 331 296 302 321 300 279 238 221 232 254 240 210 211 195 181 175 165 153 140 116 103 102 112 126 112 104 97 91 84
254 243 276 296 316 295 298 343 352 358 368 348 347 322 284 281 291 319 375 314 337 349 214 219 234 230 206 205 192 181 155 141 124 120 120 135 145 137 126 119 105 98 97
185 149 193 236 252 298 317 321 328 337 359 345 386 348 358 327 334 362 412 378 530 290 327 322 240 219 192 190 185 196 118 115 120 125 140 140 129 131 128 126 114 107 105
176 159 141 179 208 226 257 282 352 330 323 372 408 404 420 427 456 462 458 433 360 373 427 393 398 235 221 193 162 161 115 72 90 100 101 98 92 91 93 92 92 99 99
124 117 128 149 210 256 279 299 323 327 369 383 443 468 500 515 547 538 544 554 469 432 503 666 555 406 255 176 122 94 66 72 63 81 91 83 75 74 74 75 77 68 63
107 128 113 129 154 182 223 310 341 353 389 466 512 538 580 575 628 556 582 553 491 468 354 405 326 286 216 94 96 92 88 91 95 75 84 75 95 102 93 85 80 87 102
102 127 132 128 136 179 235 296 335 352 421 501 581 600 618 580 504 503 308 362 318 316 324 319 241 169 106 95 91 94 110 100 89 77 73 80 103 122 118 108 113 115 112
134 148 131 128 180 211 258 300 348 434 494 530 528 499 403 365 376 336 303 257 251 230 212 187 170 113 112 110 115 96 83 86 84 54 61 84 110 117 110 108 116 115 89
207 208 202 210 237 268 286 340 392 480 531 457 435 389 281 262 260 249 249 217 232 215 135 89 105 112 130 95 90 87 105 96 91 81 74 69 75 75 75 83 96 82 75
244 233 261 279 284 300 314 379 394 393 383 354 324 291 277 230 219 178 169 126 102 98 98 112 135 130 124 122 119 121 97 76 92 92 100 110 111 97 98 93 91 68 72
203 245 278 267 258 267 261 282 265 252 230 230 249 206 190 152 115 115 131 86 61 111 119 156 141 138 133 108 92 97 120 131 153 78 100 79 68 85 107 101 60 50 47
190 192 166 212 228 189 187 203 191 230 235 204 160 124 101 104 118 92 94 116 121 129 148 152 132 110 118 121 145 146 119 103 85 66 71 84 84 93 81 84 42 36 28
196 193 215 231 197 200 201 169 178 152 110 71 68 74 98 101 97 120 135 144 137 143 148 145 132 135 140 128 103 76 52 50 67 71 67 115 81 86 81 91 54 11 -2
156 128 125 141 154 124 119 100 59 56 76 98 109 107 102 116 137 132 144 137 119 120 129 124 135 116 84 32 29 58 59 72 81 79 79 90 106 97 112 140 60 36 50
95 69 72 58 58 37 25 39 45 56 75 84 107 114 119 121 124 123 162 135 123 120 119 121 96 49 34 32 32 67 87 91 89 95 131 133 123 84 70 145 140 151 99

GFSMA_con_3kmhel_048.txt.gz
Helicity
69 62 67 71 70 72 74 69 71 75 69 66 62 59 61 65 67 75 97 111 124 89 74 69 67 58 51 46 45 47 53 53 54 54 59 62 63 66 69 73 73 74 76
75 76 72 73 79 81 77 84 89 89 84 76 74 66 76 77 73 76 78 86 113 97 80 72 62 56 52 53 44 44 44 46 50 52 54 57 63 68 68 69 73 76 81
66 79 77 82 83 92 89 100 104 110 104 93 86 84 86 84 83 83 84 90 86 108 90 72 69 68 61 57 53 50 42 38 44 45 49 50 53 57 59 63 65 74 79
64 76 89 93 91 101 113 115 117 120 110 104 111 104 95 93 90 93 97 93 88 81 94 82 72 67 72 67 65 62 55 49 42 45 45 44 46 49 52 55 58 60 68
81 81 88 96 102 116 125 123 125 115 115 119 126 121 111 100 94 103 93 101 99 96 89 110 85 100 84 77 79 73 62 60 46 39 35 32 35 37 40 42 42 46 53
98 103 105 100 108 129 137 156 141 128 114 124 147 136 124 113 106 101 103 104 108 107 99 96 104 101 101 92 91 82 75 62 54 50 41 35 34 30 30 33 35 37 40
92 107 117 120 123 135 142 154 154 150 168 180 187 160 131 114 105 109 113 111 116 114 110 105 102 106 109 117 120 111 95 79 65 58 51 44 36 34 31 32 35 36 43
110 130 128 142 140 155 149 160 181 217 187 208 203 182 157 129 120 115 125 124 124 139 129 117 116 114 127 123 142 142 126 101 86 78 70 57 49 42 38 31 34 37 39
151 159 148 172 202 199 198 208 214 220 250 220 212 195 219 182 175 136 126 139 153 166 151 145 140 144 151 162 158 149 144 143 129 118 111 106 94 81 65 52 45 45 52
174 161 185 184 196 243 207 253 261 256 249 258 266 207 270 287 214 196 220 154 142 157 161 178 170 179 168 170 192 217 168 151 138 137 126 115 97 84 77 69 63 58 60
138 168 164 184 209 248 237 252 283 285 308 292 305 334 258 246 229 270 198 192 172 190 196 215 208 221 221 222 193 215 195 176 164 147 121 104 98 93 86 81 84 88 95
124 128 156 169 193 251 223 233 263 267 327 303 304 303 311 315 257 263 231 250 213 196 237 281 264 240 283 235 264 283 219 221 196 162 138 118 104 112 118 109 111 111 98
180 183 147 134 167 206 237 278 286 295 313 320 343 344 327 355 402 296 307 323 316 338 293 294 386 236 255 266 243 236 220 238 205 181 124 112 114 116 123 127 122 113 99
181 151 136 152 151 156 161 175 233 270 274 300 304 311 310 382 389 358 358 397 356 378 460 473 452 364 372 298 334 330 286 230 219 167 122 94 94 98 120 122 112 111 115
117 112 126 141 123 136 172 210 246 236 242 263 268 285 342 390 445 428 399 415 412 427 466 425 459 382 412 405 462 482 442 276 163 134 103 90 89 96 97 107 109 117 121
101 79 89 112 133 179 208 202 209 214 227 228 270 290 360 430 518 478 435 470 503 466 527 497 548 538 461 483 362 310 245 181 121 114 105 72 58 68 75 87 83 78 93
138 113 98 81 91 119 155 182 225 236 233 298 294 333 397 456 510 556 540 495 483 474 458 396 514 392 318 269 234 230 174 144 130 76 48 46 59 68 76 77 67 79 93
132 140 91 82 74 95 133 173 204 232 286 295 333 397 461 488 541 545 336 326 418 261 335 324 381 302 253 220 154 151 135 126 105 94 75 64 65 74 71 61 69 94 88
180 129 71 89 97 135 153 186 239 261 288 305 334 385 414 415 353 338 297 270 317 257 254 249 265 199 167 159 136 102 105 109 110 63 48 55 75 93 96 94 108 93 92
180 152 176 180 128 142 195 207 266 321 348 366 373 351 325 288 236 214 199 246 244 239 222 171 171 176 167 136 134 134 132 116 114 100 77 80 107 97 79 82 74 58 50
167 219 101 210 221 162 189 242 239 267 279 304 296 271 273 250 182 169 186 183 180 180 153 156 145 142 145 136 120 138 122 116 126 106 123 130 106 88 68 54 42 36 43
139 151 181 194 210 201 195 208 237 227 221 241 256 236 245 218 171 177 164 145 133 148 156 155 157 140 123 121 135 145 158 143 144 81 116 77 58 64 71 65 36 37 51
202 159 198 189 220 181 177 134 162 218 211 190 196 193 167 157 153 127 128 125 120 121 130 124 115 125 155 158 194 157 129 121 82 45 45 60 63 62 58 57 25 37 46
159 117 173 174 188 142 168 186 183 191 166 145 152 110 98 98 112 122 140 135 107 108 116 142 152 164 164 144 120 99 51 25 34 47 55 82 56 63 60 58 39 27 17
134 136 147 137 168 149 121 147 79 47 53 61 80 96 92 101 104 102 105 127 125 140 154 155 157 138 101 59 29 34 37 49 59 60 71 65 66 66 79 110 53 28 59
54 27 46 7 15 13 18 21 29 38 44 53 62 80 97 113 132 137 153 156 160 170 171 149 116 61 23 20 27 45 57 70 67 74 106 102 80 67 70 101 107 104 79

GFSMA_con_3kmhel_051.txt.gz
Helicity
70 64 53 70 64 70 52 80 68 82 69 67 71 62 62 60 67 84 155 137 135 98 84 75 70 63 58 51 49 49 51 53 54 59 61 61 65 72 75 77 80 87 93
76 80 72 70 75 72 74 83 99 102 89 92 83 74 73 75 81 92 130 115 126 101 81 77 65 55 50 48 50 55 60 62 62 60 60 64 65 65 68 72 72 72 75
107 81 84 89 90 86 72 87 91 117 120 121 107 89 87 81 88 97 108 146 104 110 88 81 69 60 51 51 54 57 59 62 62 59 55 56 57 59 60 62 62 63 64
76 103 124 110 108 104 110 107 117 132 134 145 138 123 107 108 99 99 117 120 128 85 108 90 77 67 69 63 61 63 62 63 60 56 49 46 46 47 50 50 50 51 54
79 99 115 122 121 159 146 132 142 144 151 159 143 155 142 133 109 113 118 119 127 114 99 126 115 86 87 71 71 77 70 70 63 56 48 41 40 35 38 40 39 37 41
114 134 128 117 123 169 191 172 152 172 162 171 149 173 169 160 142 127 117 122 127 131 139 159 137 139 121 90 90 89 89 79 71 58 49 44 42 35 36 37 37 35 32
118 147 168 122 144 162 178 155 166 172 186 205 225 212 195 156 151 153 134 143 133 139 136 161 135 127 146 123 117 122 114 102 86 72 62 60 53 45 41 38 39 39 39
171 183 190 184 172 192 175 184 188 206 221 242 303 220 214 189 167 174 162 153 149 164 146 156 150 150 166 155 154 152 149 118 97 85 84 82 78 72 64 54 47 43 39
230 207 192 207 202 231 227 227 238 241 264 278 269 320 270 269 235 171 181 189 168 173 151 180 169 185 198 216 232 186 161 157 151 139 123 117 113 103 99 91 81 73 64
137 160 195 184 197 232 242 258 284 330 333 300 293 233 253 357 287 247 200 194 197 173 221 183 209 208 247 253 253 250 209 210 187 171 188 175 152 140 121 114 93 77 72
116 140 125 188 196 220 220 232 281 346 386 326 367 342 286 350 349 318 275 251 212 202 215 200 273 273 277 275 316 279 253 217 203 199 214 200 154 142 127 107 101 98 93
171 163 149 146 190 214 222 211 242 292 347 310 317 349 380 418 375 391 343 323 267 237 246 259 294 279 280 302 316 295 244 239 258 241 214 210 186 165 157 141 110 87 74
176 202 182 167 172 171 170 180 234 285 307 311 279 343 330 349 369 298 346 399 415 401 365 336 403 437 411 387 437 426 394 247 334 286 235 229 199 171 155 134 109 91 81
139 128 144 156 160 158 170 179 228 233 284 310 284 271 331 358 436 477 453 472 467 395 371 388 450 464 467 421 437 436 376 307 387 234 214 185 163 126 120 112 106 101 95
135 124 126 152 141 156 163 174 209 238 262 252 239 233 311 391 399 406 460 423 320 296 372 461 440 392 428 507 454 488 495 450 290 226 161 118 118 108 128 123 139 117 92
188 165 133 124 161 132 147 185 215 245 259 268 271 245 347 405 365 352 386 450 448 451 459 414 390 354 381 424 443 425 358 275 204 127 103 127 124 106 105 98 87 86 80
193 187 179 164 101 135 136 152 179 200 211 278 308 339 368 324 305 333 370 421 423 373 377 399 356 318 268 295 310 254 192 169 146 115 118 99 85 96 95 90 83 76 83
154 152 158 171 188 153 128 136 182 212 256 292 302 301 288 298 319 306 300 289 265 205 253 328 264 280 295 275 246 236 173 153 154 120 98 91 98 105 82 73 73 78 74
144 136 190 222 257 222 176 144 147 211 241 247 245 245 244 264 278 259 248 245 234 287 230 210 267 271 246 208 178 157 153 143 140 85 68 75 94 84 80 84 86 79 78
180 214 266 268 194 155 126 77 94 162 200 211 211 217 229 229 223 229 238 208 236 202 227 236 224 228 177 138 114 124 120 124 151 122 117 97 76 82 89 93 80 60 46
137 143 188 189 179 122 64 165 123 52 170 256 256 254 224 186 179 192 190 189 195 227 177 166 195 148 141 134 116 133 151 142 145 114 147 132 129 138 112 60 41 36 39
105 124 164 101 126 161 105 169 236 178 247 214 223 244 241 206 169 147 151 155 122 134 150 167 152 137 134 130 162 181 197 176 143 112 177 116 118 85 73 79 34 29 40
158 183 222 198 189 132 192 269 197 247 217 215 137 98 107 133 145 124 141 116 103 110 142 169 151 142 171 226 238 192 160 154 129 107 70 73 87 78 86 69 32 28 36
128 119 157 144 127 115 167 147 129 141 123 76 133 100 95 80 110 111 131 133 106 107 122 135 158 189 209 198 176 151 118 71 51 64 58 78 86 82 83 89 52 18 14
125 104 82 77 68 63 76 50 31 21 15 24 26 42 57 73 86 85 92 110 126 163 170 151 163 140 112 90 61 41 33 41 52 57 70 54 73 80 96 97 65 17 49
9 -2 -6 6 32 36 35 34 26 30 35 39 58 68 94 114 129 145 156 189 202 224 214 170 122 75 38 24 5 39 46 64 65 66 72 92 103 70 49 126 102 134 108

GFSMA_con_3kmhel_054.txt.gz
Helicity
141 108 92 109 79 93 71 111 88 72 98 87 65 86 107 86 85 150 171 144 150 122 90 80 72 67 64 66 63 62 60 60 59 60 62 67 70 69 70 71 71 77 79
126 130 98 129 107 91 92 132 85 114 138 117 104 105 107 94 100 187 203 165 161 142 102 83 74 69 65 66 66 62 62 60 59 59 60 61 66 71 72 71 68 67 72
134 130 107 127 156 144 110 128 158 179 177 149 138 124 126 119 127 147 181 193 159 142 113 90 79 68 68 67 65 60 61 65 65 65 64 61 64 65 63 64 62 61 57
125 143 160 117 151 179 166 153 179 207 205 191 184 151 146 148 142 134 184 189 184 155 129 108 92 76 68 71 72 72 77 75 74 68 63 63 59 61 61 56 53 54 53
164 141 153 158 139 159 198 210 182 230 240 236 209 164 176 179 154 146 164 200 175 168 147 135 121 100 81 77 74 84 89 94 90 82 71 64 60 59 56 57 54 52 44
213 218 198 182 186 165 204 271 258 248 260 225 218 189 210 200 178 161 174 186 197 214 178 172 163 142 126 102 92 102 95 98 94 84 74 65 63 61 60 63 60 53 46
214 238 277 248 232 218 220 269 292 281 262 271 274 248 278 215 194 182 182 200 210 210 239 238 208 189 175 128 117 117 107 95 90 90 84 75 69 62 57 58 57 54 52
211 231 267 273 264 264 264 304 302 318 326 314 359 348 295 267 210 206 210 215 219 260 231 249 213 192 187 179 177 148 125 116 110 106 99 94 93 89 88 91 87 76 66
186 268 221 259 257 272 275 293 326 362 352 384 357 386 278 277 249 219 224 253 257 294 275 252 242 197 234 203 190 182 152 153 150 138 133 137 137 125 115 105 84 84 80
104 127 163 242 240 250 253 248 294 373 452 422 420 306 318 303 290 273 234 218 242 272 282 274 251 229 275 297 259 212 179 180 184 176 173 174 163 137 128 140 117 105 101
168 144 124 114 208 224 233 237 261 304 378 442 451 473 301 312 346 351 314 285 269 268 278 284 276 251 287 369 360 264 180 175 193 199 207 234 186 193 181 149 133 106 112
169 180 205 182 141 160 170 219 231 273 318 362 439 444 422 383 375 446 411 359 299 249 281 324 304 318 378 379 317 253 215 188 211 241 240 253 245 203 174 133 119 103 102
161 136 163 200 191 167 157 176 188 191 268 342 378 423 376 372 391 317 394 408 364 378 400 554 652 538 443 336 431 328 256 252 244 247 279 230 247 224 183 135 119 98 90
190 169 131 143 162 185 158 155 166 173 183 220 273 290 345 360 354 366 354 373 403 429 535 567 707 518 474 420 432 466 337 242 285 244 238 236 244 187 145 114 117 111 110
204 210 215 193 171 170 171 145 155 147 166 213 244 286 296 328 360 391 405 418 367 344 417 426 392 534 598 633 598 413 327 281 301 268 210 167 155 125 91 110 100 89 109
173 179 193 219 235 159 135 130 145 156 181 225 245 264 320 342 368 372 357 364 377 375 361 399 361 323 322 317 267 317 304 322 302 230 152 130 83 80 105 88 89 96 96
134 167 183 173 186 228 185 141 130 138 144 200 248 276 317 327 322 316 294 298 301 327 334 285 244 284 324 359 295 300 270 235 205 124 124 83 90 101 104 89 93 95 96
144 167 165 166 188 187 166 182 171 183 193 225 236 265 278 255 249 199 195 188 194 191 217 232 241 242 230 218 246 232 180 158 145 87 70 72 99 91 79 91 97 94 90
125 146 140 157 147 238 248 269 238 201 190 177 161 160 155 162 175 162 171 186 187 176 170 146 162 191 217 232 213 169 166 134 129 82 96 122 110 120 112 100 97 100 101
101 101 108 132 134 185 172 157 174 198 196 159 131 142 156 166 157 161 164 169 174 169 177 194 196 211 237 187 171 177 152 140 146 142 157 124 106 110 111 122 115 108 90
113 114 135 169 146 141 129 169 226 209 199 234 259 165 134 182 165 141 134 120 132 157 154 124 211 193 149 143 145 143 136 165 165 143 163 141 161 154 126 101 70 42 39
160 137 131 119 157 59 143 176 168 212 189 213 232 272 319 227 172 145 124 125 135 159 177 135 127 127 134 151 172 192 200 207 193 148 201 130 174 128 94 92 42 38 46
84 81 82 83 74 59 112 125 124 138 105 80 126 148 161 113 121 120 134 120 120 104 109 125 116 150 204 215 206 212 201 181 175 163 141 97 72 77 104 79 49 36 35
55 49 28 40 56 59 75 77 73 50 57 67 57 53 63 75 77 76 86 90 89 116 133 160 191 212 214 221 218 184 153 116 93 71 49 58 82 75 71 72 58 14 23
-12 -13 -8 -1 4 3 36 47 38 26 32 35 62 91 63 64 90 109 123 123 150 165 144 150 143 130 125 107 87 103 67 51 57 61 72 62 57 42 56 67 39 7 53
-10 -6 -18 -16 33 23 48 56 57 53 62 58 63 78 101 99 109 137 159 168 159 157 173 149 121 95 70 41 12 45 71 73 62 59 88 75 93 50 8 42 66 98 87

GFSMA_con_3kmhel_057.txt.gz
Helicity
104 113 89 95 82 100 104 90 76 77 74 81 80 90 97 97 136 149 136 142 138 117 113 101 89 81 79 77 75 74 71 66 67 65 67 69 67 71 71 76 82 83 81
122 134 134 119 101 88 93 100 108 93 88 96 110 105 110 111 145 159 152 149 160 137 118 102 90 82 79 76 76 74 72 72 71 70 70 70 73 70 72 73 73 76 80
129 151 140 156 128 113 87 121 99 119 117 120 134 133 137 125 149 168 171 174 171 154 134 109 99 84 82 79 78 71 71 72 75 73 71 70 72 72 71 74 68 71 73
142 153 175 173 157 144 155 173 166 160 179 206 191 157 156 161 156 175 188 187 186 170 142 117 114 92 84 80 78 74 71 74 71 69 71 71 73 78 76 72 68 60 58
155 171 186 172 188 192 176 191 197 243 240 242 228 196 173 175 178 217 209 205 191 189 169 128 145 111 94 84 78 78 74 72 76 73 72 72 74 74 72 70 66 62 53
180 203 188 187 204 222 212 225 244 274 260 269 266 237 215 190 210 217 244 242 222 212 196 174 178 158 130 88 79 79 81 83 87 86 80 75 79 79 79 78 71 71 61
181 198 243 221 236 243 214 221 254 285 287 333 353 289 256 192 202 214 223 256 254 233 222 211 211 200 176 125 93 89 92 85 88 93 85 79 84 87 84 86 71 68 73
168 221 215 257 254 284 273 264 277 336 362 401 406 367 300 286 237 231 246 241 261 305 268 252 250 234 217 213 174 115 112 85 78 92 91 78 80 87 80 79 83 76 75
120 143 182 210 235 280 260 288 283 317 300 422 450 418 333 307 262 253 247 269 277 313 332 326 279 261 243 232 186 177 163 113 105 92 84 78 76 92 99 95 90 86 85
112 97 125 152 208 200 209 235 260 328 416 366 454 404 445 327 247 230 205 209 259 267 283 324 293 272 247 235 209 216 184 178 118 73 87 96 93 87 96 110 109 100 105
111 100 91 112 159 191 222 234 227 222 276 272 407 439 394 435 391 319 249 249 271 288 294 269 312 288 268 245 251 223 176 175 136 99 91 115 124 117 104 117 125 136 130
118 121 102 131 147 158 144 166 155 188 204 231 313 368 438 418 330 400 350 292 280 282 279 281 297 322 382 258 249 261 273 260 171 159 160 147 116 137 138 161 127 144 148
187 236 223 151 134 133 141 145 151 142 167 195 215 298 321 380 421 413 329 312 284 342 353 403 433 451 499 552 568 563 415 324 234 273 291 261 178 173 153 115 129 128 130
176 190 205 235 200 125 116 124 147 145 127 150 145 214 279 315 383 369 373 276 294 298 391 371 463 507 590 686 670 645 536 388 319 323 203 206 175 114 123 143 124 128 135
148 154 160 178 205 188 165 161 160 131 131 122 134 135 172 246 302 289 330 374 245 229 259 338 406 483 577 585 521 483 351 266 245 192 157 193 188 124 149 131 114 122 130
124 122 129 146 172 217 227 191 187 130 124 106 123 135 206 265 301 310 273 318 321 251 272 324 342 365 394 426 363 404 368 296 217 175 168 137 109 86 98 103 98 111 98
83 79 80 109 125 163 199 167 141 141 144 165 185 205 206 197 222 221 218 185 96 166 122 165 202 209 248 279 240 267 280 239 207 126 103 71 71 84 96 101 108 98 85
76 62 58 79 97 112 132 127 164 160 150 193 216 190 178 166 163 133 123 119 93 136 157 194 202 193 138 208 220 224 189 198 168 120 85 97 79 92 77 68 83 101 104
87 94 88 91 102 122 144 143 182 137 157 213 209 181 146 164 181 164 168 165 138 159 159 101 134 168 162 175 193 180 173 130 110 80 82 75 96 120 104 89 94 109 111
110 116 121 111 111 131 131 96 160 179 196 222 225 180 144 169 168 135 131 147 139 134 148 140 118 148 172 176 172 148 158 143 134 136 135 125 132 112 110 128 148 151 132
106 120 120 102 75 112 95 75 130 151 207 202 150 164 160 166 174 167 123 141 133 97 97 99 115 145 182 168 148 168 169 179 183 181 170 173 169 153 145 137 129 114 91
107 99 91 95 78 70 91 94 67 52 107 109 101 150 180 209 167 113 125 121 134 99 87 90 122 122 128 139 163 186 204 215 217 191 229 175 178 178 162 99 47 39 43
72 93 101 71 51 23 43 36 44 41 53 63 79 92 108 114 129 104 98 129 117 122 108 111 124 143 166 179 203 205 189 192 192 171 142 126 140 98 64 60 32 27 28
21 18 13 -4 -6 -5 17 27 44 28 38 44 46 54 69 67 66 88 95 107 123 122 118 141 162 163 169 171 168 154 136 120 97 73 35 61 65 73 62 69 20 24 36
-2 -25 -32 -10 5 -3 24 31 35 42 58 68 77 86 96 87 95 120 129 126 122 138 145 146 136 129 122 108 95 113 92 91 67 63 43 63 64 49 70 61 69 71 73
-4 -20 -22 -15 24 17 44 53 59 56 65 70 85 99 111 112 112 115 117 117 123 124 130 121 115 100 81 59 36 60 78 94 81 74 77 77 73 50 55 53 72 94 102

GFSMA_con_3kmhel_060.txt.gz
Helicity
64 65 46 61 71 86 90 90 82 84 85 78 83 83 73 95 103 123 131 110 112 116 111 107 86 74 70 71 71 72 69 68 63 62 64 67 68 65 69 72 75 76 74
80 98 79 64 76 96 98 105 98 91 86 101 86 111 92 105 123 134 150 140 129 129 113 103 101 84 70 68 74 73 70 72 66 64 65 60 64 68 72 71 71 71 69
114 129 133 114 104 118 122 116 90 111 104 105 105 121 121 122 149 147 163 176 163 142 131 110 104 86 77 76 74 73 72 69 69 68 68 64 65 68 69 68 71 67 65
146 150 172 172 160 160 156 160 127 123 124 137 134 125 136 153 146 160 179 186 189 185 144 109 106 98 83 72 68 70 67 71 70 70 74 74 69 65 64 63 64 65 65
142 175 184 186 206 193 196 196 177 196 174 177 181 165 168 183 172 182 182 192 194 207 207 135 123 126 103 75 63 68 71 71 72 72 72 71 69 68 67 63 59 56 56
158 186 197 193 228 229 213 237 221 241 228 228 238 211 203 194 195 202 218 217 221 227 223 194 170 166 145 101 66 62 74 79 76 74 73 72 72 67 66 64 58 56 57
181 167 157 149 189 220 203 230 253 234 219 283 340 273 251 231 213 214 245 256 257 259 251 237 213 220 192 136 104 76 75 76 75 79 85 84 76 71 65 67 64 62 57
156 179 159 155 179 219 222 216 275 275 256 310 344 376 312 283 263 259 293 302 284 305 288 265 244 231 224 216 182 115 87 78 70 75 83 86 87 83 74 69 71 74 77
141 154 175 175 161 192 214 205 233 279 235 301 347 321 301 278 254 207 215 279 304 338 315 322 313 275 235 219 191 168 134 120 79 64 70 75 65 69 68 75 82 84 83
151 145 136 151 157 178 183 192 208 230 238 215 310 297 360 336 293 244 226 179 208 249 272 320 306 290 261 224 213 200 174 156 102 96 77 86 174 67 81 79 75 83 83
171 146 130 120 141 167 175 181 187 199 225 193 254 281 267 377 371 362 222 258 252 213 242 266 272 297 290 270 263 195 209 162 94 119 123 162 204 231 150 95 71 94 117
179 231 202 155 126 133 151 158 157 169 187 188 174 200 247 305 308 364 352 315 314 224 218 235 304 284 299 333 309 303 278 243 238 229 345 310 267 238 226 161 129 126 112
164 187 195 192 182 151 125 122 128 133 139 169 150 159 183 227 235 273 260 215 265 324 349 307 294 328 347 398 378 386 273 183 291 424 390 218 330 384 372 314 236 166 101
157 170 180 188 191 177 147 140 130 127 130 132 130 136 160 163 184 199 200 194 295 300 238 240 246 256 311 333 421 362 405 365 441 291 345 288 276 240 222 177 153 131 96
126 123 125 145 171 174 174 169 151 162 174 148 116 95 115 126 180 196 197 265 288 265 131 133 110 226 287 382 270 417 475 356 263 207 161 179 178 146 135 121 71 50 65
113 105 101 102 113 132 150 156 161 168 154 130 122 135 137 154 200 217 228 228 223 195 146 99 123 178 160 166 232 296 329 258 135 149 140 144 106 83 77 71 79 105 100
100 100 103 102 109 118 125 124 126 134 131 153 167 157 160 163 163 162 141 157 171 160 151 196 164 215 242 218 275 242 253 251 244 165 122 96 89 76 85 116 132 135 115
101 99 97 107 107 106 116 131 141 150 152 179 164 155 183 171 164 155 130 138 140 164 166 145 181 169 201 187 200 171 172 128 104 113 105 111 99 106 119 124 103 77 97
101 90 87 101 103 101 107 126 148 116 117 164 166 144 170 143 115 99 104 123 117 107 132 138 124 129 124 108 125 160 141 148 134 130 101 94 95 89 98 111 110 88 82
131 126 132 139 144 124 115 120 128 83 115 163 189 134 156 104 72 47 77 83 82 120 114 126 136 108 108 150 173 172 176 128 128 106 100 135 136 137 123 127 118 124 130
150 133 146 153 130 103 84 99 126 113 108 141 135 96 88 76 95 86 70 101 118 122 126 144 124 137 134 151 153 141 141 165 164 157 175 160 161 155 142 127 120 100 101
131 131 143 113 96 77 120 105 70 59 60 57 70 82 101 131 157 147 142 121 92 67 128 144 141 131 134 158 177 191 194 221 217 181 224 184 171 172 161 145 104 86 55
89 99 90 81 81 44 42 37 30 11 20 33 34 46 65 80 89 85 110 131 118 122 126 124 147 168 182 195 219 221 218 209 187 179 157 123 158 123 94 55 17 15 23
29 34 43 36 27 23 38 36 36 15 32 39 48 64 77 82 78 105 115 125 147 150 147 154 164 154 159 150 156 153 148 136 105 86 77 103 56 50 49 42 7 23 52
18 33 25 36 40 23 32 33 30 27 35 42 52 58 75 83 91 118 118 132 144 161 190 199 181 158 138 129 104 144 125 137 111 91 56 75 72 63 56 70 91 135 142
25 20 24 25 41 36 41 45 38 27 36 38 44 61 77 87 101 98 103 114 124 130 148 147 145 147 137 110 95 92 103 128 109 119 88 93 80 68 103 102 109 123 98

GFSMA_con_3kmhel_063.txt.gz
Helicity
61 63 45 44 39 60 72 76 81 76 72 67 70 76 81 96 100 112 110 88 85 82 79 83 82 74 72 69 61 61 60 56 50 52 56 53 63 67 58 56 56 60 61
67 71 61 62 59 66 72 85 93 92 84 87 70 75 64 93 103 101 114 102 90 93 84 75 74 74 69 74 69 63 59 54 53 54 56 54 56 61 64 60 56 50 51
86 91 88 89 79 93 85 91 87 92 83 90 87 75 81 76 105 109 127 130 123 108 109 77 68 66 63 60 68 70 64 59 55 57 60 64 63 61 63 62 59 57 50
115 117 123 117 113 134 137 131 125 125 122 125 128 113 117 111 112 125 149 160 162 165 131 105 85 65 62 53 53 67 71 72 65 69 65 69 67 64 65 63 62 59 55
134 147 163 154 169 167 176 183 172 182 170 159 159 140 147 154 153 148 160 178 187 197 198 153 121 112 91 73 55 62 73 80 91 91 89 79 76 73 67 66 66 61 59
146 169 156 166 193 191 184 215 200 216 208 192 190 168 175 175 194 182 187 203 215 226 245 232 201 175 133 112 67 49 63 69 78 86 87 94 92 86 82 76 72 70 66
120 151 163 178 199 198 182 201 227 211 198 236 242 195 185 181 184 209 237 225 221 251 260 262 249 233 198 143 111 73 52 62 67 73 76 80 83 86 86 90 87 85 79
132 155 156 155 165 193 183 196 255 257 233 234 246 243 170 153 197 218 265 265 244 293 289 269 274 254 226 204 185 110 85 64 74 74 86 85 88 90 89 87 95 100 91
136 138 150 163 162 181 179 176 218 235 202 230 254 242 218 192 196 180 160 191 207 263 277 267 253 250 255 242 214 174 136 114 82 74 71 89 94 94 107 117 116 144 144
169 167 147 152 163 180 180 178 194 206 225 181 227 195 248 272 218 150 181 179 181 171 191 222 225 213 240 259 243 235 184 168 129 77 67 45 83 124 109 144 167 147 160
205 205 194 156 131 142 142 141 150 150 174 181 210 204 174 189 223 230 141 180 180 145 137 120 135 153 182 227 253 193 189 145 139 125 121 99 91 63 171 223 277 372 271
159 177 184 185 173 149 132 139 137 139 143 146 155 168 181 184 187 176 190 172 183 150 155 184 185 201 209 213 198 204 176 172 278 281 240 495 341 347 306 218 186 212 254
151 172 169 178 182 194 182 170 160 142 141 161 155 149 165 177 167 193 190 196 216 189 181 161 176 206 236 198 240 189 185 153 235 297 326 313 217 288 264 300 327 308 328
146 161 168 175 184 189 199 206 198 204 193 188 186 176 169 159 155 164 190 203 206 191 196 172 172 150 144 207 248 217 220 118 153 141 170 187 131 202 230 249 260 281 167
141 150 149 154 165 173 173 170 184 193 188 184 189 185 167 189 184 183 179 201 189 232 208 159 159 161 125 113 124 163 255 145 178 140 161 108 131 106 157 161 110 51 48
125 118 118 121 132 140 144 139 153 166 160 159 148 153 161 160 189 198 208 206 189 195 206 185 158 159 123 124 111 184 215 101 61 98 119 67 48 86 101 112 69 59 49
113 112 109 110 126 138 139 129 129 135 130 131 143 133 160 178 173 180 194 190 171 150 139 164 152 139 148 134 146 140 172 178 211 195 110 105 87 68 82 104 81 109 182
111 109 107 121 138 136 144 144 138 135 136 154 154 146 161 154 145 153 147 123 100 97 103 105 98 115 128 114 111 148 110 124 125 166 191 148 135 126 99 86 124 115 105
130 136 129 142 143 142 137 126 143 159 166 163 126 146 150 120 121 128 107 83 63 87 90 96 115 111 111 119 147 128 138 127 114 107 127 119 106 114 110 99 115 132 136
142 123 118 132 120 123 129 140 147 151 153 145 152 148 117 90 98 93 71 64 93 109 108 117 113 106 91 109 135 114 148 133 135 122 110 117 129 150 146 141 130 113 118
134 121 124 127 130 163 145 133 131 145 111 100 126 121 132 118 83 76 62 89 89 84 107 127 133 143 140 140 127 122 138 127 125 127 133 143 144 144 140 124 116 102 95
133 134 148 137 122 101 133 124 79 61 54 48 39 42 51 71 75 89 85 112 127 106 108 135 143 151 164 176 173 174 186 180 174 160 180 165 147 140 141 134 108 110 102
127 120 123 108 102 84 83 77 69 30 40 43 48 53 61 66 79 89 109 123 132 153 163 150 164 181 198 198 197 200 192 170 143 111 95 78 113 90 104 91 62 40 32
78 71 65 54 50 48 70 66 65 40 44 47 53 58 66 73 61 89 98 114 127 140 141 158 166 164 167 161 176 171 164 142 111 92 80 98 88 88 59 40 16 12 19
45 47 38 49 57 51 58 54 46 39 45 47 49 57 61 76 90 95 89 102 113 125 153 166 162 152 143 132 120 169 151 158 138 124 102 112 94 83 70 54 49 74 132
34 30 46 41 51 44 47 51 41 24 33 36 42 59 75 74 79 80 87 90 96 97 127 139 144 153 150 139 140 119 138 152 152 157 98 115 119 105 123 90 110 107 122

GFSMA_con_3kmhel_066.txt.gz
Helicity
55 53 44 47 49 53 57 55 60 60 55 58 61 66 67 65 67 71 77 53 53 54 45 51 54 54 45 46 47 44 50 54 57 56 55 55 58 52 54 50 50 52 55
61 58 51 53 53 65 70 71 70 70 67 68 55 58 58 72 73 80 84 78 61 68 61 51 55 57 48 44 52 58 54 49 52 58 61 65 60 58 58 64 60 50 53
69 68 67 65 69 80 77 78 74 81 81 83 77 63 71 67 84 84 94 97 91 81 84 67 63 60 52 45 40 49 51 53 56 56 63 62 63 64 68 64 67 68 58
94 95 94 87 88 99 110 114 112 107 111 122 124 108 107 97 94 106 123 125 127 126 113 93 86 78 73 59 45 44 57 56 63 65 68 71 73 73 75 73 74 76 79
117 129 128 120 125 123 128 138 135 160 149 149 154 143 141 136 129 124 128 149 154 157 160 134 120 107 100 75 52 38 38 63 62 70 75 75 74 76 78 83 83 84 82
115 134 140 132 149 149 140 162 160 181 185 168 162 147 150 152 147 153 139 166 175 183 188 185 171 147 117 109 66 47 33 61 70 65 77 82 85 82 82 84 89 90 86
100 120 125 127 159 165 151 180 196 176 181 212 219 176 160 146 150 157 171 183 178 203 221 224 222 213 175 118 108 78 52 38 64 77 65 82 85 90 91 90 92 93 99
117 127 123 131 150 167 157 170 205 201 198 221 224 211 141 118 107 97 111 140 147 182 176 188 205 200 187 171 166 127 108 66 46 68 66 62 88 91 97 94 102 102 102
165 149 139 138 145 173 167 172 183 178 171 177 191 187 170 158 142 126 118 110 109 118 136 148 171 186 174 166 155 155 139 111 58 62 90 52 63 95 101 103 101 113 133
189 193 186 165 145 157 162 157 164 168 188 150 179 150 172 219 164 147 175 142 134 131 134 121 127 132 146 170 160 158 171 152 118 104 98 93 73 44 94 103 100 135 178
194 197 190 189 178 151 129 131 151 160 174 183 193 182 156 172 178 164 144 139 150 123 122 131 127 133 144 160 189 195 164 169 124 144 131 83 99 78 71 41 174 275 258
167 180 170 158 146 145 149 142 145 161 173 175 167 166 169 166 159 169 169 147 143 122 133 130 125 115 115 129 141 163 126 130 141 116 133 82 108 244 323 249 350 254 249
138 161 162 168 160 168 176 174 165 179 188 186 169 153 154 153 156 172 183 193 169 167 159 119 125 122 125 121 113 103 89 78 97 103 118 166 236 270 281 188 159 119 86
117 134 143 156 173 180 187 194 198 223 230 230 225 209 186 187 178 176 182 163 154 164 171 130 128 117 103 106 79 51 58 45 33 26 105 112 208 204 205 128 150 117 180
128 139 144 152 161 171 175 185 202 235 252 252 230 215 207 201 191 176 173 185 202 195 150 171 148 110 86 82 70 47 43 50 28 27 62 144 81 52 96 117 68 108 144
146 147 146 142 138 144 155 164 175 197 203 201 192 188 189 170 162 161 173 185 199 208 197 173 127 89 84 77 104 94 90 85 101 12 25 30 130 160 171 149 110 99 79
142 140 131 128 134 146 158 162 172 163 162 159 161 158 167 150 133 156 163 153 163 166 139 113 102 79 75 92 109 102 100 135 155 132 216 176 56 51 51 53 87 101 94
129 127 124 126 131 144 163 174 171 170 156 162 159 177 189 158 181 173 153 162 146 129 105 91 106 116 124 103 65 100 95 115 85 132 156 170 163 142 128 114 96 108 105
127 128 123 129 133 140 153 157 151 154 173 189 192 190 180 175 155 132 135 123 96 94 93 76 88 88 81 67 66 74 81 118 97 108 135 140 134 106 93 94 85 79 110
121 120 114 118 136 151 159 153 156 158 161 170 193 176 149 118 103 102 89 78 72 81 68 59 64 73 78 67 71 76 85 100 116 108 108 113 139 152 159 168 159 147 137
140 127 114 123 136 143 126 130 134 135 131 114 109 106 111 113 91 74 49 57 64 77 73 63 78 84 92 104 103 105 114 117 131 139 135 137 138 134 131 128 126 114 100
137 136 138 140 134 116 121 116 87 60 54 56 67 75 73 90 92 93 99 118 107 87 102 96 95 113 118 125 134 144 143 147 141 156 162 148 132 120 118 117 96 92 85
128 136 122 105 93 66 72 64 56 26 32 38 52 57 61 56 72 76 98 118 125 137 134 109 125 134 144 140 143 136 140 139 129 110 93 91 106 95 113 114 88 85 83
96 80 77 56 43 37 51 48 46 27 39 39 42 45 52 59 35 73 79 93 101 111 124 130 134 128 124 122 125 116 111 100 85 78 59 58 81 86 80 84 74 63 47
49 47 33 45 49 37 50 53 51 44 45 43 43 42 51 56 71 74 70 83 94 88 100 123 129 130 133 127 103 132 118 126 108 106 94 104 113 110 100 99 95 95 111
47 46 57 50 50 50 52 60 55 44 51 45 39 47 60 56 62 67 57 64 70 64 87 98 95 102 111 110 112 111 118 125 121 133 110 132 138 119 151 93 96 88 84

GFSMA_con_3kmhel_069.txt.gz
Helicity
44 44 38 37 38 40 44 48 51 49 47 48 49 52 54 55 55 62 61 48 38 41 38 38 51 53 43 34 34 38 47 44 45 43 40 40 42 50 55 61 63 56 59
45 45 39 40 42 47 51 52 55 57 55 55 51 57 57 60 63 64 68 60 51 48 45 40 41 44 50 37 30 39 41 48 51 53 55 60 60 56 51 57 61 61 59
53 48 48 47 47 54 53 59 60 66 71 75 67 63 74 72 74 68 72 75 69 62 56 44 40 43 48 42 32 31 46 44 50 55 59 66 66 67 72 66 66 68 61
61 63 63 60 63 71 75 78 82 87 89 93 96 90 90 86 77 76 84 87 87 86 83 67 53 42 51 59 42 32 39 57 42 45 53 64 75 78 77 80 82 80 72
65 74 75 70 77 85 90 98 98 105 103 109 109 87 85 94 88 95 80 87 91 104 101 93 85 74 65 63 54 41 34 64 68 56 44 63 71 80 80 82 84 87 88
68 78 76 70 82 92 98 113 108 108 110 101 107 101 108 101 100 111 96 97 101 96 97 98 98 92 85 71 60 51 46 48 82 67 68 51 68 71 79 84 87 88 87
77 80 82 77 91 99 82 85 104 113 126 133 146 123 130 108 118 112 95 90 88 103 95 101 113 107 104 87 76 67 52 50 68 85 67 67 50 70 76 83 93 94 97
96 100 98 96 97 108 96 102 116 143 152 158 170 180 129 94 105 86 66 80 74 83 82 82 86 92 99 110 98 98 85 55 52 64 99 113 76 50 82 96 103 101 97
175 162 144 129 118 127 126 114 129 150 165 168 145 163 168 141 151 119 89 85 83 75 70 72 65 77 92 105 117 103 89 81 54 55 66 99 131 93 36 86 118 102 90
191 193 184 172 150 146 142 136 144 158 176 168 182 147 142 200 163 154 152 121 101 85 82 72 74 68 77 97 105 116 132 107 85 60 70 60 79 149 91 33 91 152 71
225 219 205 192 186 163 139 126 128 148 176 189 199 197 172 177 163 170 155 137 154 118 91 94 102 98 105 101 89 94 94 88 77 66 48 49 84 111 221 103 160 211 224
174 191 179 170 160 151 143 129 122 121 154 182 194 195 202 194 171 158 150 119 112 111 105 80 115 119 108 94 79 72 76 79 67 51 29 47 58 74 78 112 126 178 319
167 177 169 165 154 149 138 138 150 154 165 193 191 190 183 164 174 149 136 140 135 138 116 110 141 110 95 72 74 83 79 70 53 47 47 23 16 112 126 155 144 93 170
151 163 164 161 164 165 167 162 174 192 210 226 241 229 199 198 169 156 159 160 154 149 160 153 128 105 90 67 59 83 89 89 84 48 29 36 55 -2 181 186 205 149 60
124 134 141 147 156 159 164 164 167 175 192 207 212 204 187 164 153 150 152 146 142 148 141 175 130 97 52 24 44 67 70 95 102 7 7 162 188 76 122 110 117 98 128
130 131 138 145 153 158 154 154 160 175 180 185 173 166 164 148 145 157 166 147 154 160 151 166 141 78 52 34 74 83 86 127 162 154 90 176 200 114 211 272 292 272 204
135 143 142 142 140 142 147 152 169 173 190 188 188 181 191 185 180 188 165 156 172 153 134 135 104 65 56 81 89 92 81 103 102 164 161 169 154 169 163 148 175 198 157
146 149 145 143 140 138 143 158 169 178 175 171 165 169 171 163 166 148 141 153 127 120 97 92 88 66 57 46 70 79 80 72 66 103 139 167 151 124 98 77 60 72 59
149 149 147 140 138 145 148 153 159 159 150 153 147 149 144 137 149 132 121 97 84 72 81 83 76 61 56 55 58 75 79 78 79 81 93 139 142 139 122 109 102 91 89
127 122 121 128 128 133 139 137 135 128 134 137 146 142 128 114 100 85 74 69 60 65 68 72 68 62 74 64 67 82 88 95 105 110 109 115 130 141 141 132 160 197 189
120 121 113 112 112 109 98 99 95 90 88 91 79 76 85 87 87 84 73 78 73 70 72 79 82 84 93 94 94 84 83 86 104 117 112 118 122 118 117 117 121 130 125
119 117 116 104 107 98 79 68 59 51 52 58 70 74 77 85 88 86 87 94 92 81 83 84 92 100 104 102 98 102 97 95 85 113 113 107 111 109 107 99 98 97 93
109 110 104 102 88 67 62 57 59 50 59 62 64 59 61 60 71 75 85 93 100 105 104 86 96 102 102 97 96 92 93 89 88 97 76 84 72 69 82 87 95 85 82
105 107 97 73 50 37 44 55 62 50 53 49 46 52 54 56 45 71 74 82 82 87 91 87 93 85 83 83 80 85 83 80 76 80 64 82 94 87 74 71 76 71 61
95 71 42 35 37 30 44 48 48 38 37 43 39 36 45 50 49 74 74 73 69 69 71 89 93 89 89 89 79 93 85 90 99 98 86 82 96 103 90 96 97 111 123
48 31 34 27 29 37 46 51 36 33 38 39 39 41 46 45 50 60 61 59 61 64 64 65 69 78 84 93 108 93 99 97 104 104 105 96 101 110 121 95 110 108 107

GFSMA_con_3kmhel_072.txt.gz
Helicity
45 44 43 43 44 49 48 49 48 50 52 49 48 49 51 50 51 60 61 95 62 47 37 36 39 52 55 48 35 36 36 39 41 46 48 53 55 56 58 61 64 62 71
49 51 50 49 50 51 54 54 59 62 63 61 58 57 59 61 60 63 67 65 92 58 48 43 39 32 35 52 47 41 43 38 39 42 45 52 60 65 63 64 67 67 64
49 51 55 60 62 58 56 63 64 68 72 70 62 69 76 72 70 70 69 74 83 90 68 53 43 39 39 41 44 44 50 56 40 44 45 54 58 60 61 70 68 71 77
54 57 63 67 68 69 68 70 75 76 75 80 82 85 92 87 78 74 82 86 89 87 96 80 61 55 49 46 48 51 56 59 68 55 51 49 61 69 72 76 73 80 82
61 60 64 67 70 75 74 77 79 81 89 92 86 88 91 96 85 95 94 90 83 86 87 99 106 88 75 67 57 58 62 83 78 70 73 52 60 68 73 80 79 80 82
77 79 76 68 73 80 82 84 82 91 92 101 102 103 96 99 100 99 95 95 94 96 88 83 88 85 100 82 73 64 60 67 94 95 69 74 61 58 65 78 85 86 85
89 91 93 88 90 88 82 92 103 107 114 107 136 121 110 93 106 99 94 101 104 94 89 86 87 87 95 108 83 65 59 49 50 87 107 87 65 55 48 53 76 86 91
100 106 106 105 106 112 103 109 122 127 127 129 162 193 142 117 96 85 83 84 80 90 95 81 64 79 88 94 89 100 79 60 53 66 81 90 95 87 83 74 75 98 105
146 152 147 151 141 144 138 136 152 162 174 160 136 171 170 131 168 129 104 91 87 101 102 84 79 86 100 103 129 127 119 104 72 54 51 69 76 126 103 104 78 59 86
158 164 163 158 145 137 123 123 140 143 168 164 184 153 139 199 168 155 163 128 115 86 82 84 82 95 105 111 120 116 130 131 124 98 69 47 51 75 205 153 105 49 51
175 184 183 169 160 150 136 116 113 116 139 159 182 194 158 170 170 187 180 147 160 116 82 83 99 96 109 117 117 127 132 119 108 80 53 41 29 43 44 180 135 97 104
172 188 178 166 152 144 130 123 124 111 128 136 154 188 207 211 194 203 187 149 125 107 125 110 104 116 117 124 104 112 118 121 113 92 72 55 20 19 42 144 177 104 108
161 169 160 150 145 141 137 130 126 131 139 146 144 173 183 190 206 198 189 145 112 110 132 145 143 123 135 123 115 119 103 112 96 81 85 77 74 112 73 101 142 99 96
157 154 150 147 146 140 133 128 123 140 168 192 216 219 223 255 240 197 161 131 113 107 106 141 148 152 126 104 75 63 62 88 93 53 61 98 105 82 33 -5 53 70 232
146 141 139 138 141 138 135 136 140 143 158 180 201 221 224 214 187 172 140 124 128 135 97 153 134 133 81 39 17 23 62 103 141 151 90 111 105 128 230 280 248 235 310
130 130 134 139 145 146 145 143 143 153 160 168 167 165 166 151 141 131 134 140 139 138 137 161 133 96 52 24 20 60 85 112 146 161 176 111 93 138 182 204 248 180 193
126 124 125 128 135 141 140 143 155 158 161 169 171 168 159 143 137 155 164 155 142 136 109 117 102 77 45 26 27 57 88 90 99 137 166 171 132 124 100 120 172 247 280
113 116 114 119 121 127 131 135 144 151 152 148 151 155 154 141 161 160 144 138 122 95 86 75 79 70 53 50 43 61 70 77 78 123 146 165 154 133 111 94 73 90 123
121 120 126 123 120 122 121 131 138 145 147 146 142 138 138 130 135 121 116 88 67 62 67 67 61 53 53 61 58 66 76 86 90 102 117 124 137 142 123 104 111 93 68
123 129 128 134 124 120 116 119 124 124 119 118 120 113 112 104 77 67 60 58 64 64 69 79 85 70 66 65 65 73 76 92 101 110 120 124 130 136 141 136 137 160 172
113 118 123 118 107 101 108 102 98 97 96 96 94 73 72 75 77 85 74 84 86 88 90 90 90 79 83 81 90 80 82 90 96 115 119 122 129 131 130 122 115 121 136
105 109 109 109 111 116 112 98 73 72 62 55 58 58 58 65 74 89 92 105 109 94 97 97 93 98 101 95 89 91 84 93 90 104 121 108 114 118 128 130 131 109 108
98 102 103 106 122 111 94 73 62 53 55 55 51 49 54 57 69 67 72 74 89 98 108 86 95 104 94 95 91 77 85 83 85 90 82 91 103 106 105 96 99 106 104
108 101 102 105 91 78 55 47 50 48 46 44 44 44 53 56 58 63 64 65 68 73 84 84 92 88 83 75 72 78 70 70 66 83 84 95 109 116 97 87 93 90 85
96 101 88 76 57 38 32 33 26 31 39 38 39 42 44 43 56 53 54 57 62 66 65 68 69 70 74 69 67 64 66 74 82 95 100 107 123 121 105 92 93 98 127
88 77 43 32 28 34 27 27 27 31 31 38 41 39 49 40 42 44 39 57 65 69 59 51 52 58 63 79 78 72 80 80 93 94 120 116 125 134 126 109 90 100 100

GFSMA_con_3kmhel_075.txt.gz
Helicity
72 68 66 60 60 60 56 55 54 52 55 55 56 54 52 54 56 71 72 120 104 76 58 49 43 48 64 66 67 65 64 61 54 50 51 50 50 53 54 62 68 64 72
69 71 68 64 63 62 60 60 61 65 67 65 63 60 62 64 66 73 82 89 108 92 72 60 52 47 49 52 66 74 67 67 60 57 57 53 54 60 62 60 67 71 66
61 65 65 73 72 70 66 66 65 69 71 69 65 71 75 69 74 78 91 98 112 112 100 71 56 56 59 56 58 72 68 80 83 63 58 52 59 60 60 64 73 73 77
62 68 73 76 77 82 79 74 73 73 73 75 79 83 91 91 84 85 105 106 136 126 124 99 86 72 68 71 67 65 81 88 71 75 76 57 57 56 58 64 72 76 75
66 77 84 86 85 92 89 87 86 82 87 95 99 100 119 109 103 105 104 107 125 146 136 124 117 97 94 78 75 67 71 93 105 85 65 66 50 48 49 61 67 74 75
84 91 91 91 92 103 98 96 93 95 98 103 111 126 122 109 121 140 126 125 129 118 163 115 109 85 82 72 72 73 64 63 94 100 101 81 71 60 47 44 54 67 75
97 97 97 94 103 106 105 103 104 119 122 114 127 133 104 111 131 129 93 91 99 126 115 103 100 103 106 71 76 85 71 52 47 66 85 102 98 82 67 57 48 63 76
108 117 115 128 143 151 126 114 136 147 157 154 177 174 140 110 103 185 138 115 92 124 142 108 99 97 92 103 154 140 141 134 97 57 51 65 72 90 86 80 64 57 54
145 159 159 157 158 166 153 157 159 160 168 171 153 188 186 171 175 178 128 113 128 140 119 113 92 107 116 124 132 170 204 181 153 118 82 57 48 62 60 144 127 111 108
143 146 145 144 144 145 147 147 154 166 164 160 159 166 147 182 175 190 194 169 185 106 109 61 96 103 114 136 170 207 177 153 143 137 120 99 62 41 41 21 101 189 151
142 153 165 162 162 166 161 153 137 125 137 149 137 136 140 164 186 211 215 190 161 149 141 114 133 139 124 115 138 147 158 147 137 131 124 109 89 64 34 53 47 114 110
118 143 158 157 151 146 139 131 122 128 127 120 134 137 150 198 191 229 205 163 173 152 145 138 155 130 125 108 127 136 137 138 126 117 109 100 95 96 98 103 43 181 191
104 134 147 152 149 142 130 123 120 116 118 129 133 141 146 175 189 202 198 190 152 117 126 151 156 133 142 150 139 122 123 98 104 93 69 69 85 78 56 23 65 48 260
162 149 140 138 137 132 128 124 120 117 148 141 178 192 193 231 224 225 211 165 140 116 96 139 165 142 150 123 106 92 50 58 73 103 83 79 97 77 49 97 12 54 66
161 146 134 134 131 126 127 128 127 141 127 135 156 168 178 182 206 202 170 137 139 131 105 190 138 136 116 92 75 19 10 50 100 139 107 104 92 71 73 84 171 220 258
130 127 123 121 122 118 121 123 125 126 122 138 145 156 160 158 155 153 140 153 138 149 166 164 135 107 85 53 35 4 26 43 97 134 147 118 90 114 125 172 235 262 243
131 127 123 116 117 120 121 119 131 132 132 130 151 161 165 165 151 139 140 136 140 138 124 125 98 75 64 66 37 25 31 49 62 104 110 112 108 123 134 152 187 131 101
115 125 124 124 125 131 134 135 131 143 143 138 140 158 156 147 148 134 128 132 120 113 98 90 72 51 55 49 47 42 44 62 70 86 93 107 120 115 132 136 127 108 91
115 113 121 127 126 132 127 125 124 133 152 159 167 169 164 142 142 138 129 111 83 56 51 51 61 58 60 65 60 56 62 56 73 80 96 105 123 132 146 160 151 122 93
113 118 124 133 131 132 126 122 133 143 154 159 156 148 155 142 122 82 71 56 62 61 64 75 84 65 60 63 59 83 94 92 95 100 98 99 111 124 131 136 144 167 178
115 121 117 120 124 126 132 128 136 133 124 125 126 112 101 74 84 98 81 82 87 94 103 99 99 80 87 88 91 88 93 92 86 106 108 108 119 134 123 134 139 153 148
111 122 127 135 133 120 127 138 115 126 111 96 81 59 51 54 66 80 91 106 108 100 103 103 95 109 109 96 99 91 79 88 107 77 95 97 103 115 129 139 141 129 107
110 122 121 116 115 117 118 114 116 112 90 67 57 43 51 52 61 55 63 71 88 100 123 108 119 125 110 106 83 78 94 85 79 73 71 88 100 102 99 90 103 97 98
125 116 112 109 116 112 108 95 72 63 62 50 43 42 50 47 64 56 62 56 53 65 83 92 109 109 100 95 76 75 62 62 62 81 78 82 92 95 92 87 104 100 93
153 156 134 113 113 95 72 68 56 39 52 49 48 48 52 50 53 44 51 40 39 63 62 70 72 72 72 65 67 71 80 87 87 94 101 93 101 99 85 87 94 93 96
162 128 118 102 81 64 47 41 47 47 39 49 43 46 50 62 48 38 33 48 50 79 75 62 58 59 53 75 71 80 99 95 100 93 119 115 118 124 128 102 92 91 104

GFSMA_con_3kmhel_078.txt.gz
Helicity
71 62 71 76 62 57 58 62 67 59 65 54 57 68 60 59 64 73 105 120 107 93 74 60 55 52 64 73 67 73 68 63 59 59 61 64 64 62 67 74 76 72 74
67 74 74 65 69 69 54 65 66 71 66 71 59 63 66 73 70 84 107 129 125 107 89 70 61 60 58 60 64 56 77 84 69 54 49 52 59 66 67 66 67 72 64
59 67 48 65 63 65 63 68 72 77 78 73 70 68 68 71 84 91 112 131 144 128 109 90 82 78 70 65 63 82 84 72 60 57 49 46 42 56 60 61 69 70 70
57 63 60 61 68 86 95 87 83 83 84 86 87 78 84 101 107 103 102 113 136 175 138 109 98 87 73 69 63 61 71 90 82 63 56 56 46 49 51 48 67 62 64
74 75 72 77 82 100 105 104 93 101 104 94 101 108 108 130 118 115 128 129 132 142 160 155 107 76 68 63 58 52 52 64 74 85 76 72 60 53 49 45 50 62 69
80 96 93 89 95 109 109 111 108 104 119 113 117 124 115 119 131 122 121 131 114 100 170 181 130 88 62 68 58 55 52 45 44 56 66 86 76 78 67 51 46 53 58
129 128 110 101 100 108 112 119 121 128 132 142 154 140 133 119 120 119 157 123 88 110 168 137 115 112 118 76 81 89 109 111 87 52 46 53 69 89 82 72 56 46 54
181 163 158 161 157 148 160 153 164 145 148 144 170 160 152 123 115 108 158 175 150 172 191 171 134 154 142 134 167 195 163 139 125 111 102 81 50 44 65 80 76 84 67
159 161 149 141 137 136 130 136 148 157 156 158 156 182 189 161 154 152 186 198 189 191 160 107 105 131 126 136 155 147 152 132 123 120 111 95 74 61 49 44 43 138 101
169 169 164 161 152 148 147 154 156 164 182 160 160 153 161 184 184 171 167 217 220 193 149 144 172 213 143 110 131 142 143 137 128 114 103 96 78 70 64 37 37 36 65
155 155 154 152 159 164 172 174 175 179 154 155 149 141 134 147 152 182 183 143 178 196 210 211 229 202 159 109 107 118 146 144 132 113 96 87 85 91 84 80 91 59 64
122 134 159 163 168 175 176 170 163 143 140 156 139 135 140 158 163 158 163 162 165 182 214 214 188 150 167 117 133 135 137 146 126 105 77 68 87 74 70 60 49 60 63
140 162 145 161 161 165 162 152 144 138 128 130 130 125 119 131 152 159 156 148 146 149 182 183 155 144 125 126 131 140 117 95 85 70 65 81 98 85 65 66 36 30 102
191 162 147 146 150 151 147 142 132 129 137 152 147 143 151 174 187 179 168 166 149 152 122 145 149 135 116 97 130 131 78 67 67 103 116 126 108 82 70 69 51 14 60
160 164 151 143 139 133 130 129 129 144 159 129 131 136 142 151 165 165 176 148 184 155 120 162 154 146 128 99 104 88 45 32 78 105 109 73 72 89 111 99 77 169 85
156 158 158 151 143 139 134 131 134 141 140 157 143 154 150 150 145 145 151 137 156 161 166 159 148 118 102 79 63 57 27 23 73 107 93 76 79 92 109 153 115 89 203
150 152 154 149 144 140 141 140 142 146 151 148 147 157 160 167 157 142 140 155 155 147 139 142 116 87 75 70 58 53 35 29 43 73 72 77 92 103 118 145 162 164 171
128 135 136 139 148 148 147 153 140 150 158 154 142 172 171 173 186 172 144 148 129 123 122 110 79 43 55 61 46 43 34 34 55 65 76 97 106 120 126 135 161 169 150
139 123 135 146 153 154 160 169 176 181 199 205 202 184 184 169 167 140 132 124 117 93 66 64 63 48 49 71 59 53 46 47 50 81 90 99 107 119 135 141 163 167 169
137 137 131 148 154 161 166 174 188 192 189 184 200 185 167 144 120 110 106 85 66 76 72 84 80 68 62 66 81 92 104 98 82 95 102 74 94 103 112 122 132 148 150
115 125 116 121 128 148 161 155 155 160 161 166 148 135 123 110 106 90 65 73 86 92 99 110 96 82 85 93 87 79 87 83 89 89 87 91 87 94 97 118 115 128 134
103 107 114 122 138 150 149 150 158 165 148 130 125 99 74 65 66 79 84 100 94 80 89 95 91 100 95 91 87 79 70 87 85 70 67 80 80 85 83 70 85 87 95
100 113 122 119 141 137 129 128 147 137 119 102 71 65 49 52 62 57 72 75 82 98 103 79 95 92 92 81 74 85 79 72 64 55 67 79 82 80 77 72 82 83 81
106 128 130 145 171 131 122 114 126 115 87 63 54 55 53 56 58 64 62 60 52 66 69 81 94 89 87 88 80 68 64 63 64 76 69 74 68 69 62 67 91 93 115
135 144 168 171 152 126 100 102 87 66 64 58 52 63 80 61 59 60 56 61 49 45 51 61 62 68 65 66 73 83 87 86 74 82 87 78 74 75 72 79 82 97 115
150 181 165 153 116 104 75 61 54 50 49 51 45 50 61 70 62 51 62 63 65 44 57 55 55 45 47 62 82 85 78 84 80 87 77 88 86 95 101 86 90 90 98

GFSMA_con_3kmhel_081.txt.gz
Helicity
51 57 38 35 32 32 46 38 32 36 38 35 41 46 43 50 51 54 76 84 94 84 71 65 58 57 62 77 74 69 67 67 48 40 35 40 48 55 62 68 66 70 65
54 43 47 47 40 46 42 50 52 47 50 58 49 54 52 57 62 74 90 103 109 104 91 74 69 70 71 61 61 78 74 64 61 44 36 32 37 45 55 60 57 60 61
59 58 57 39 39 49 48 53 50 70 67 68 64 65 68 66 78 78 93 110 125 111 118 86 62 65 65 54 37 42 63 89 74 53 49 42 35 38 43 45 52 55 61
56 56 52 46 43 54 67 73 72 70 72 77 81 74 69 76 84 107 112 113 129 129 136 119 96 59 44 44 27 8 14 52 66 71 59 59 47 34 41 35 36 52 55
59 68 58 51 59 74 81 83 80 96 94 90 88 94 96 96 104 102 97 111 121 120 129 127 95 77 54 57 46 36 23 22 43 45 66 61 61 52 49 43 38 42 45
69 85 76 69 78 86 83 93 95 100 108 106 108 108 101 96 106 101 93 104 115 107 149 156 129 116 142 127 108 81 70 76 87 77 41 40 67 70 64 64 57 43 42
99 90 81 89 112 86 89 109 115 114 115 117 112 120 132 110 109 103 110 106 120 174 167 168 138 145 160 200 186 156 128 105 92 84 69 55 34 51 73 68 67 62 48
199 168 152 135 129 117 124 131 140 129 130 132 142 143 126 120 101 72 67 97 163 187 201 167 161 150 141 124 122 132 119 114 106 95 89 79 60 59 41 41 73 70 66
180 177 171 147 142 122 112 122 130 144 141 147 138 164 159 158 139 128 163 170 181 188 162 195 230 209 189 148 115 97 111 108 109 104 93 79 72 58 52 58 47 47 56
176 175 170 168 165 157 167 166 190 190 197 164 154 172 199 204 181 162 147 178 201 209 226 276 306 247 152 114 79 103 118 118 116 111 97 83 75 78 75 70 67 60 31
177 178 177 173 178 177 178 182 186 187 181 165 164 155 160 166 172 211 183 131 196 230 254 286 293 235 201 115 105 110 114 118 115 104 95 69 86 92 66 59 54 48 56
179 166 161 165 174 178 175 169 165 164 155 158 159 149 157 168 176 176 195 161 148 208 250 257 235 204 142 120 134 132 127 118 110 86 83 99 88 59 56 51 48 28 4
172 148 138 146 154 160 164 166 163 156 157 164 166 159 158 144 132 127 153 156 157 180 220 245 197 138 95 62 105 123 112 108 91 119 141 131 100 74 59 59 63 47 14
170 153 138 142 149 160 154 156 153 155 155 152 166 152 135 137 149 158 154 162 146 156 215 193 165 135 105 100 122 113 87 79 99 113 90 78 73 106 110 54 51 79 39
162 144 149 147 150 151 155 147 141 143 162 162 158 146 142 145 155 161 171 153 160 163 179 190 140 128 117 107 98 93 85 77 85 91 86 80 72 91 102 106 79 129 146
136 180 187 156 170 162 149 152 141 147 158 166 161 151 153 160 170 163 166 166 170 168 179 147 142 138 124 96 95 85 86 74 79 85 89 76 63 80 94 108 117 122 135
160 156 172 183 160 149 152 150 142 146 152 155 168 145 156 162 169 161 154 138 139 129 130 160 154 126 114 97 66 53 48 48 49 59 64 68 75 85 103 122 143 154 139
215 179 160 167 166 162 163 165 148 156 150 163 167 164 169 174 182 159 144 147 135 135 126 130 114 82 61 53 50 56 52 57 52 66 82 83 91 117 135 144 150 167 179
156 135 162 157 157 157 154 159 172 183 197 194 195 170 152 152 159 155 143 135 116 112 105 90 81 59 52 63 72 76 86 84 70 86 84 101 109 115 120 121 128 157 180
121 130 133 133 133 132 140 159 178 194 200 200 194 182 161 151 135 130 132 122 105 93 57 69 73 66 73 77 86 94 85 88 81 82 88 100 104 107 106 114 125 132 147
124 115 112 116 112 124 146 138 151 154 171 182 179 167 145 135 125 105 81 89 69 67 76 88 89 81 82 84 76 73 74 65 79 92 77 70 78 78 87 81 80 95 108
93 96 102 108 117 135 140 139 158 163 150 144 122 115 99 101 93 84 74 80 77 65 84 88 85 83 84 73 67 64 64 71 64 67 65 70 84 75 73 54 66 69 80
77 75 89 100 115 134 138 153 154 158 146 121 103 89 84 77 67 82 79 85 99 101 98 71 76 68 70 62 60 62 62 64 61 49 61 58 70 61 56 60 68 76 84
66 68 84 113 131 136 139 134 138 142 130 107 79 52 52 58 47 57 61 65 65 65 67 72 73 63 65 67 64 53 48 49 54 56 59 64 65 63 59 64 76 91 97
89 82 114 139 148 140 125 127 138 124 105 81 64 64 58 46 48 57 59 61 46 51 58 62 54 59 63 66 60 69 73 72 66 66 73 76 79 81 71 88 102 127 108
102 114 130 135 125 131 104 100 100 79 68 56 53 61 59 48 48 48 55 52 60 41 47 53 53 45 63 65 73 59 60 69 64 77 69 89 89 99 95 84 94 90 100

GFSMA_con_3kmhel_084.txt.gz
Helicity
38 31 21 20 16 22 20 18 20 20 15 21 33 40 39 44 46 57 63 62 69 65 62 58 57 60 61 65 68 68 58 54 45 42 38 33 30 32 36 41 42 51 53
59 33 35 25 17 29 27 27 33 33 34 41 39 49 48 53 56 58 70 71 71 70 76 66 59 52 46 46 36 45 69 65 50 44 43 33 30 30 38 43 46 53 51
57 54 52 46 33 35 39 44 45 51 51 58 50 54 63 60 60 59 66 79 80 80 91 80 72 60 27 26 9 10 6 36 71 63 59 47 39 40 30 28 34 41 48
75 64 57 47 41 45 50 54 56 58 57 63 71 71 78 73 67 70 88 97 100 107 105 102 82 76 57 37 15 21 25 36 31 52 63 61 52 42 39 34 31 38 44
77 77 62 50 56 62 65 68 65 77 76 77 81 79 82 97 86 85 83 85 104 112 118 104 104 122 107 81 67 64 58 56 81 62 34 45 66 60 49 45 33 40 36
70 66 59 56 69 75 68 76 76 92 91 85 88 85 89 97 100 96 93 100 111 142 134 151 176 176 172 150 137 132 116 91 82 77 74 64 33 54 61 59 53 50 45
79 71 70 73 75 73 72 80 99 94 97 112 98 92 100 99 111 100 87 78 104 163 209 182 210 169 143 154 152 138 117 94 81 72 72 72 69 72 31 67 85 63 60
120 115 110 117 115 112 104 105 112 113 110 114 113 103 100 101 140 132 129 109 105 166 196 212 199 205 194 186 136 142 107 82 87 87 80 72 65 74 82 78 30 62 75
197 202 188 162 139 120 123 112 117 126 125 144 172 176 139 113 132 146 157 155 162 190 223 243 271 269 224 194 141 102 102 90 88 85 85 78 68 53 65 75 83 84 32
187 189 181 175 164 151 150 134 151 164 191 152 152 193 204 208 159 159 133 155 191 215 241 283 304 267 251 223 174 122 119 90 82 81 79 81 80 90 78 93 87 95 89
162 174 180 183 177 169 168 172 168 170 179 167 164 166 183 186 183 209 170 141 213 268 304 329 309 273 254 177 134 108 119 97 96 84 81 102 105 96 80 74 68 68 45
196 199 196 180 165 163 164 156 156 151 152 156 167 170 172 175 185 210 200 180 181 245 287 296 292 216 168 138 111 66 97 117 118 112 107 154 130 81 42 37 52 62 38
214 193 172 142 134 133 145 151 143 143 148 153 160 167 176 166 168 164 183 165 176 215 252 272 263 222 148 118 51 59 129 116 109 126 158 132 88 88 121 82 61 53 46
164 142 142 145 137 129 126 137 145 147 155 148 151 166 163 149 160 152 162 168 185 182 236 230 221 181 146 103 84 90 116 105 109 110 119 85 66 91 115 104 83 68 69
164 149 138 111 109 132 138 155 161 159 176 168 153 154 152 146 150 151 148 157 175 182 200 223 193 169 123 96 94 99 114 95 98 98 77 77 82 87 101 97 89 110 140
183 141 119 174 160 173 159 169 143 144 157 153 157 155 149 148 152 163 171 165 172 172 195 185 191 145 111 109 89 96 85 68 71 74 71 75 78 65 61 85 100 118 142
229 227 164 154 111 95 145 127 132 139 135 136 155 158 157 146 147 165 177 162 160 157 172 198 152 131 121 99 92 61 54 62 53 66 56 67 77 84 71 88 121 141 143
172 196 201 134 129 131 140 149 137 137 136 150 153 169 153 159 169 171 166 160 127 132 149 169 158 131 109 79 67 62 75 74 66 67 73 78 76 69 84 94 121 155 177
203 172 159 154 143 133 135 136 135 152 169 183 187 169 157 147 140 138 147 151 152 145 143 144 138 119 79 60 85 91 92 82 80 91 89 91 92 90 92 94 127 138 159
140 135 131 120 112 113 125 126 145 170 174 173 181 190 162 137 120 124 125 125 114 112 113 117 117 97 88 92 106 97 91 87 78 76 81 82 85 89 88 94 112 124 129
110 104 109 104 101 102 109 119 138 149 164 172 165 161 169 150 119 101 99 111 112 106 106 93 99 98 89 97 88 85 82 68 72 83 68 75 69 74 79 65 65 90 99
102 98 92 93 99 104 107 115 130 158 161 156 162 178 162 153 149 110 106 107 72 57 76 88 94 95 78 79 72 75 75 76 71 76 72 72 71 73 70 56 64 75 83
95 86 82 85 90 101 102 115 134 164 157 141 134 108 101 90 86 73 65 91 105 92 81 71 77 78 69 51 69 77 74 78 72 67 70 72 73 70 61 62 78 89 98
90 87 81 79 95 96 110 139 144 160 149 124 109 93 86 73 61 54 53 63 78 75 78 81 74 64 54 55 66 69 68 73 75 73 79 84 77 70 69 74 98 103 110
100 90 91 81 94 100 126 131 150 145 132 115 85 60 52 47 34 44 59 69 67 69 72 62 52 51 52 46 56 74 75 83 82 82 91 85 87 80 78 85 96 114 119
103 103 99 96 89 110 124 122 126 121 109 94 68 48 32 31 37 50 61 62 64 60 58 58 63 72 70 66 67 55 66 72 75 86 76 85 85 93 92 80 88 110 124

GFSMA_con_3kmhel_087.txt.gz
Helicity
35 36 26 21 16 19 18 15 15 15 15 16 18 26 25 31 42 55 62 47 51 51 42 47 56 52 46 46 47 48 56 47 42 39 31 29 25 25 27 37 38 40 41
51 51 42 22 17 20 17 20 20 23 23 31 27 36 39 45 49 52 58 62 49 59 54 53 58 54 44 12 15 27 25 39 55 57 48 42 37 32 33 37 41 42 37
59 60 57 37 25 28 21 29 30 39 39 44 36 40 50 56 52 59 75 81 78 65 60 75 69 64 36 20 17 26 52 52 21 57 70 55 46 41 37 31 31 35 36
87 79 69 52 43 46 50 50 47 46 45 46 49 48 64 70 62 68 74 73 89 98 93 77 76 93 91 47 51 45 62 72 80 66 35 59 53 55 46 41 39 38 36
90 94 86 70 61 58 54 54 52 60 57 54 52 57 57 70 75 81 70 86 96 108 117 112 104 128 116 101 84 93 86 77 76 82 92 51 33 62 56 52 46 45 42
83 96 87 73 71 68 62 65 58 68 70 60 54 64 65 60 70 77 81 89 100 109 121 148 186 151 147 127 118 102 111 95 73 72 72 81 71 78 32 55 56 48 42
82 81 74 59 57 61 54 62 68 62 63 81 82 71 66 62 59 84 96 71 81 96 143 194 195 181 170 185 133 118 106 87 72 64 62 67 76 87 80 90 39 71 70
68 85 82 82 80 85 79 78 86 76 86 102 94 82 71 62 95 107 136 127 125 145 190 231 248 274 242 224 202 177 77 66 45 60 68 67 65 65 81 91 83 46 82
127 98 85 100 110 115 103 106 108 95 89 121 153 149 114 74 94 131 155 143 151 175 207 247 268 262 251 228 189 207 111 87 71 53 55 56 56 62 89 103 119 112 105
169 184 205 149 146 167 138 136 131 121 131 112 140 170 190 189 136 135 145 165 188 213 244 275 298 284 258 225 181 190 118 77 60 48 51 58 62 106 108 96 101 124 127
180 179 167 150 138 142 146 145 130 125 132 127 131 137 155 167 171 184 131 155 203 237 279 297 304 276 248 206 169 139 112 71 59 52 48 86 141 111 74 71 76 83 89
130 111 131 132 137 159 146 129 130 135 128 122 131 140 141 147 170 178 189 164 168 222 261 287 282 256 240 199 171 117 85 73 93 81 121 154 111 119 112 71 67 60 57
207 173 158 137 131 112 120 117 124 121 128 121 114 124 149 149 168 169 185 168 172 199 226 271 275 232 212 168 139 114 91 102 114 91 128 130 98 91 92 88 91 72 71
181 155 159 156 126 120 120 119 110 86 127 118 114 124 148 153 156 164 170 161 162 219 269 239 220 197 190 163 157 133 92 110 123 93 94 91 78 70 82 77 70 62 85
190 168 151 117 132 141 120 105 72 94 83 108 117 125 142 148 147 144 157 160 167 186 200 225 222 209 189 142 131 88 93 126 91 80 94 84 72 60 70 82 89 100 103
186 168 121 106 59 68 62 58 74 51 106 117 127 135 148 157 152 148 158 167 168 177 188 203 223 201 168 155 104 93 108 104 79 65 76 79 75 68 63 72 87 108 103
198 135 94 104 83 121 121 88 96 97 102 123 138 143 155 154 141 157 165 177 182 202 187 205 213 194 184 103 65 90 100 75 72 66 70 64 64 72 77 72 93 110 126
267 247 194 178 137 155 135 121 106 113 118 123 127 141 146 144 152 158 159 164 162 164 148 164 175 161 123 119 105 101 85 87 86 84 81 79 85 88 82 90 109 131 138
212 168 152 181 154 129 113 104 99 110 133 147 156 159 159 139 131 142 142 139 147 148 147 169 178 172 143 102 94 97 86 82 79 102 99 91 95 100 94 106 114 133 143
191 186 159 138 118 102 97 99 111 125 139 148 156 162 160 150 136 141 146 144 140 140 150 155 145 141 123 88 90 81 79 90 83 87 87 89 88 116 102 96 103 114 130
153 132 118 107 100 93 87 88 92 107 124 139 160 151 146 138 118 107 114 120 111 114 114 125 127 120 99 79 79 83 75 72 77 88 75 76 74 82 91 92 76 87 99
112 107 94 86 80 75 72 76 92 112 135 139 137 134 148 157 136 121 101 98 88 89 73 82 88 88 81 79 85 87 75 79 63 77 78 71 75 78 81 82 89 89 91
105 90 80 75 64 60 56 75 87 138 145 142 138 135 126 115 122 119 104 100 114 84 57 53 64 72 76 66 78 77 67 68 77 81 77 78 80 75 78 81 87 91 111
87 82 76 75 79 70 58 81 141 157 156 147 132 119 114 91 73 69 66 57 63 74 74 86 71 78 74 73 63 61 65 83 88 87 88 77 78 74 78 92 117 105 114
91 87 92 87 83 71 62 83 133 138 138 130 119 91 75 64 38 40 40 38 46 64 81 86 72 71 61 57 57 79 81 88 79 76 85 76 84 83 86 90 102 116 113
103 104 93 84 71 72 58 75 124 139 131 121 110 82 47 43 20 23 33 37 33 55 77 75 82 78 72 63 70 61 65 73 74 78 75 82 84 87 85 88 98 105 110

GFSMA_con_3kmhel_090.txt.gz
Helicity
37 42 36 38 31 27 24 14 12 12 11 10 11 14 16 20 23 39 49 37 40 45 37 40 38 39 43 22 14 21 40 48 46 45 38 31 28 29 24 24 29 38 34
57 56 50 45 41 35 26 25 21 17 14 19 17 21 21 29 33 39 52 56 48 57 48 44 46 42 39 16 30 22 44 32 16 41 53 47 38 33 29 34 29 33 32
57 60 63 55 48 44 31 31 29 33 31 33 21 25 31 36 48 49 59 61 65 56 55 58 56 43 25 44 38 30 61 82 79 73 27 54 44 35 34 38 31 28 26
76 80 79 67 62 50 49 50 48 40 33 32 32 27 36 46 45 43 56 65 73 80 88 77 71 47 109 91 73 81 80 73 74 88 121 37 45 42 41 39 34 32 22
91 92 97 87 79 71 57 58 55 51 41 35 36 29 33 34 38 48 45 52 65 79 86 79 84 104 143 111 89 93 82 61 61 79 100 99 79 49 33 36 36 36 34
108 103 104 94 96 81 65 63 51 54 50 42 40 32 38 43 46 42 52 58 54 67 82 97 124 144 167 162 123 108 76 54 49 58 70 81 86 93 85 44 26 46 37
95 83 97 105 87 63 45 46 41 40 34 41 51 56 48 49 48 56 69 75 77 78 103 145 190 246 275 268 219 171 136 77 49 42 37 50 59 70 83 87 67 29 61
73 66 85 95 77 71 55 55 60 67 77 74 72 59 49 41 38 61 96 107 99 92 155 199 249 269 247 241 227 208 192 101 73 49 36 38 40 51 54 87 105 107 90
81 109 101 80 69 75 81 91 94 84 68 82 90 82 61 56 71 78 111 139 133 142 171 204 238 229 240 231 212 200 175 125 46 36 36 40 35 30 78 103 114 123 125
155 149 135 159 102 35 55 86 119 106 92 72 83 111 128 129 98 92 110 137 165 177 190 206 227 238 241 231 214 209 161 126 72 32 34 31 66 88 89 87 84 101 105
197 180 208 184 157 94 103 62 68 88 84 77 79 91 110 131 152 143 113 117 163 182 195 215 238 243 246 209 198 186 172 136 72 58 79 86 116 107 95 54 89 106 99
153 134 170 195 162 90 91 100 93 92 85 90 95 94 102 129 140 148 144 129 128 161 183 208 221 220 214 204 218 181 182 139 89 77 74 110 119 118 126 132 124 108 92
143 126 168 205 202 97 105 93 81 75 79 71 76 73 102 122 133 129 137 133 134 150 171 187 198 205 213 206 184 175 180 133 100 90 95 103 89 118 114 90 85 86 74
169 162 133 184 154 122 112 98 95 90 67 72 45 93 120 110 130 135 131 127 121 135 180 202 200 195 182 162 145 179 135 110 105 123 102 78 75 72 75 72 63 79 70
210 240 187 175 149 152 144 93 71 56 14 54 73 137 85 114 137 144 141 135 147 141 142 183 198 182 202 184 176 150 137 82 80 93 84 94 84 59 46 81 93 109 65
251 195 172 153 163 168 89 41 49 25 90 74 78 78 93 124 143 150 147 142 153 168 170 197 200 183 180 183 159 154 104 65 107 77 71 78 85 72 67 60 98 120 66
257 229 240 224 193 128 74 68 105 103 84 83 92 98 114 136 146 150 146 144 151 175 187 200 203 193 219 193 146 121 46 59 105 71 64 68 69 62 56 51 88 121 104
233 239 197 156 85 103 110 127 102 98 104 99 95 99 100 119 134 134 141 148 153 165 178 170 177 193 178 159 147 102 93 114 106 79 70 63 66 63 62 79 96 130 128
213 195 162 160 163 149 123 125 112 107 103 106 114 125 134 138 128 130 130 134 149 156 157 163 161 172 179 158 135 96 95 97 82 93 85 87 87 78 79 88 116 138 135
186 181 192 181 151 134 149 116 92 89 95 103 113 123 127 126 111 113 119 123 135 143 149 161 175 151 130 111 99 85 81 89 73 79 93 91 89 94 84 88 111 121 119
180 172 163 160 159 141 96 79 73 73 88 109 115 123 118 110 113 115 125 119 118 126 133 131 148 141 114 91 78 62 73 77 73 76 76 79 76 72 80 91 82 103 116
164 153 157 148 121 90 70 59 46 61 86 102 118 135 139 148 160 152 137 112 104 101 100 102 110 100 79 54 60 69 82 80 64 70 73 67 69 70 78 88 93 99 118
153 139 120 103 91 75 56 52 40 70 106 126 136 139 136 145 153 151 131 129 109 80 35 24 38 52 52 58 85 77 62 70 65 60 61 67 77 71 80 91 84 89 101
118 113 100 89 78 65 60 55 70 108 131 142 136 126 122 117 110 108 101 81 59 47 30 32 26 54 70 70 65 55 59 77 71 60 67 74 80 76 73 94 111 91 95
125 109 97 81 80 77 66 60 79 102 132 131 129 125 114 102 71 75 77 66 46 39 45 68 75 83 76 71 71 84 60 60 57 57 69 69 76 76 74 76 85 105 98
132 116 96 86 64 72 68 64 90 103 129 132 123 106 82 79 55 50 46 34 44 25 47 77 79 81 81 63 62 44 47 57 53 57 51 68 66 79 74 73 77 84 89

GFSMA_con_3kmhel_093.txt.gz
Helicity
27 36 37 39 35 39 34 31 32 27 20 15 12 6 6 12 17 29 36 29 22 19 25 20 14 23 27 17 22 32 10 9 31 40 49 41 35 30 25 21 22 32 41
45 48 43 41 42 42 42 36 28 25 20 20 15 18 17 23 28 34 45 49 49 35 38 39 34 25 20 20 63 62 60 25 23 45 28 43 39 37 28 26 29 28 29
50 51 49 47 49 51 45 43 33 29 28 27 20 22 20 22 26 28 41 37 44 36 38 44 42 30 40 69 96 98 74 75 76 77 69 19 51 42 29 26 29 25 26
52 56 56 50 63 62 56 53 46 37 31 28 28 26 22 17 12 21 36 43 49 50 60 61 43 42 74 94 109 91 61 58 63 63 75 96 65 30 30 25 26 26 26
48 55 63 63 72 77 68 67 59 47 37 28 26 26 24 20 18 36 44 48 49 54 60 67 72 77 108 126 133 109 76 64 45 38 70 88 105 83 65 20 26 31 32
44 57 67 71 88 93 94 74 58 45 43 32 27 25 28 27 31 44 33 37 43 51 55 72 94 127 140 181 190 143 98 92 77 37 40 54 74 90 98 76 62 19 37
27 65 89 86 102 92 75 61 60 37 37 43 39 41 40 45 38 64 55 59 69 70 74 86 121 161 232 320 245 200 160 123 80 60 33 35 43 70 68 65 68 54 11
74 70 96 93 86 97 77 58 61 88 87 69 57 42 36 35 34 74 73 71 86 81 95 123 150 197 219 221 223 211 186 134 109 61 39 29 31 57 82 90 104 123 89
101 99 104 81 101 121 123 118 85 86 87 64 62 63 46 48 72 68 81 105 107 109 120 140 170 198 229 216 220 218 200 131 90 64 29 13 13 49 92 90 90 100 105
97 108 135 155 153 130 144 91 71 70 76 66 56 69 70 86 64 46 72 102 134 118 124 133 158 184 199 215 221 213 190 140 116 92 61 44 77 90 95 63 66 87 100
69 137 140 146 168 128 141 87 79 102 130 56 30 60 75 82 89 88 81 115 115 128 141 148 156 176 191 202 199 203 181 166 134 101 60 61 128 112 111 110 94 119 119
123 85 150 150 155 113 131 230 141 104 61 32 56 84 93 88 92 97 102 129 104 107 116 137 153 165 184 186 186 191 179 169 144 132 92 79 79 76 118 148 184 154 123
214 197 211 124 128 142 177 141 170 122 103 111 96 80 76 75 109 107 145 114 112 111 112 122 149 171 173 170 155 169 191 199 166 109 89 110 73 70 111 127 119 131 87
145 189 217 234 170 176 169 172 136 120 119 135 77 44 71 97 105 129 151 111 107 100 119 137 146 151 169 168 174 153 131 156 173 91 77 98 67 78 107 111 105 82 75
174 173 183 208 202 161 167 204 168 150 114 86 39 35 116 134 117 117 106 118 122 106 96 135 161 147 156 158 143 178 165 176 119 66 64 87 94 91 88 86 90 109 101
205 204 217 227 232 241 216 183 153 124 77 66 50 98 102 115 128 131 132 133 131 143 144 168 149 160 152 157 152 162 166 157 133 48 69 96 92 84 69 76 82 98 102
253 268 291 278 265 222 180 166 135 83 93 97 111 110 103 116 126 129 130 131 135 149 165 192 196 185 178 179 183 165 132 116 71 56 84 80 78 78 76 68 65 78 96
243 261 246 246 226 185 143 110 68 83 122 116 108 102 99 119 115 123 122 125 134 156 179 163 177 180 180 193 177 143 110 83 72 93 98 75 60 76 57 69 72 93 98
229 246 239 221 201 171 153 118 122 135 117 110 107 110 125 131 120 124 121 120 132 152 168 174 172 166 167 171 180 153 100 82 81 88 74 75 68 73 69 80 91 107 114
204 212 208 196 180 167 143 150 136 111 109 108 109 117 123 130 119 118 125 129 143 151 159 155 167 170 154 131 140 124 102 77 65 55 54 65 79 87 83 84 92 100 116
205 204 199 187 165 154 146 124 101 84 86 96 103 109 121 121 120 127 139 137 143 156 155 144 151 149 133 113 86 81 79 68 59 59 51 62 63 68 73 87 62 91 109
195 180 166 153 141 140 112 103 85 71 61 75 106 128 142 149 148 147 143 131 120 123 135 132 124 114 103 68 40 42 68 55 43 63 55 58 61 58 61 73 88 95 104
185 174 165 140 130 117 88 74 55 45 49 80 115 132 141 146 155 168 164 163 146 124 85 68 71 57 39 28 55 46 57 52 63 58 47 44 56 59 64 76 77 92 88
158 149 137 129 122 105 83 70 68 68 66 93 118 134 133 132 135 139 128 125 119 97 66 39 23 24 33 53 57 49 50 71 67 53 50 40 56 59 57 80 91 89 89
152 148 138 126 111 102 71 62 77 65 58 85 114 128 123 119 111 112 112 118 101 82 52 46 62 84 84 58 60 54 55 59 57 47 45 37 44 51 51 57 71 102 90
162 152 142 114 92 90 56 60 76 72 58 86 129 127 97 91 85 95 98 89 103 65 42 49 64 88 63 47 48 41 43 43 57 48 38 31 38 47 49 53 58 66 63

GFSMA_con_3kmhel_096.txt.gz
Helicity
16 31 38 37 39 39 39 38 34 29 24 20 16 10 6 5 10 20 25 50 29 25 23 22 24 15 19 20 41 31 25 9 11 18 41 40 38 27 29 27 30 39 49
44 47 51 49 45 44 48 42 39 31 26 22 21 18 17 13 14 24 33 41 49 37 33 28 18 15 21 40 64 67 74 84 66 49 49 33 39 33 32 29 31 34 39
55 56 55 50 50 52 50 47 47 37 34 31 22 23 17 14 18 17 23 29 39 31 23 21 20 4 8 70 94 95 89 68 45 54 70 79 30 39 34 26 23 32 38
59 59 54 49 53 56 58 58 57 46 42 39 29 26 21 21 12 9 22 15 22 24 46 39 41 26 29 73 98 72 88 65 58 62 60 72 101 85 32 19 25 26 33
62 58 57 51 55 59 57 67 69 55 53 46 39 36 31 25 18 21 16 30 30 36 37 67 59 57 55 82 83 91 107 92 59 55 72 47 71 88 76 74 18 19 26
66 58 70 58 73 78 75 82 76 74 68 59 47 40 34 25 20 22 17 17 30 34 39 49 53 82 113 98 120 163 164 120 89 72 67 63 52 56 66 84 82 59 20
63 72 77 75 88 91 80 89 111 92 71 62 63 55 40 27 32 41 27 43 37 53 61 57 66 99 148 297 273 221 164 141 110 70 55 50 40 31 49 58 71 83 59
68 83 86 97 100 117 130 135 134 109 100 98 96 84 59 47 62 48 66 44 51 55 62 85 106 131 136 182 219 253 202 152 121 99 42 24 29 17 42 83 97 94 100
104 87 87 113 119 149 196 224 211 183 161 128 94 83 81 66 63 53 51 56 51 66 109 121 137 156 176 197 210 205 189 165 120 98 61 55 14 22 63 65 57 40 48
75 63 78 86 113 185 164 195 178 169 160 166 117 84 57 63 49 43 25 54 79 93 115 123 122 145 172 192 218 229 192 168 142 127 117 97 86 92 93 88 68 69 102
71 68 156 145 182 187 219 262 214 96 152 149 132 95 37 33 46 46 49 58 58 81 120 130 125 132 152 174 208 217 228 196 158 153 141 103 78 75 89 92 125 121 115
128 45 52 101 188 124 73 101 142 128 151 218 128 95 14 24 24 49 68 84 84 93 121 109 118 133 149 161 189 197 186 179 200 186 171 128 104 76 76 94 154 184 136
211 169 149 94 142 156 110 143 146 125 112 88 123 88 64 42 72 75 96 96 124 132 135 103 122 145 156 160 177 185 196 158 156 162 167 133 54 49 64 115 135 134 112
165 192 195 179 152 131 183 132 116 119 142 131 113 107 114 99 68 75 82 125 108 88 81 80 116 123 148 172 183 174 172 193 160 132 146 101 63 62 93 112 122 122 114
145 182 142 149 166 167 163 172 145 147 149 141 121 100 84 96 109 116 116 133 129 135 114 143 109 119 146 166 176 173 199 193 149 162 103 91 74 70 77 88 104 105 103
154 203 183 159 186 194 200 202 185 153 138 126 114 101 98 116 110 130 142 143 150 152 169 161 145 138 140 174 184 169 166 168 186 147 88 71 69 80 72 74 93 82 90
170 201 200 217 219 225 217 192 149 143 143 143 145 100 106 138 151 166 157 151 136 135 134 162 171 166 163 171 178 166 155 170 170 150 98 50 80 78 70 58 66 77 98
152 205 245 266 267 254 215 169 146 143 134 119 84 98 115 134 128 134 134 130 133 147 170 143 174 169 171 169 172 174 163 151 145 118 77 93 78 72 57 54 62 68 87
180 215 241 249 248 220 182 164 154 149 130 100 119 111 118 122 126 134 126 126 130 149 158 170 185 187 187 180 188 168 156 140 94 61 73 97 80 63 44 46 56 78 88
179 200 209 220 215 207 195 178 165 155 128 127 126 120 121 125 132 125 122 124 136 144 156 155 173 187 179 164 162 148 123 88 66 51 66 67 61 55 53 52 65 82 101
193 194 197 203 201 192 185 168 159 138 116 116 109 111 119 137 152 139 119 127 132 143 149 154 168 173 157 143 131 107 91 66 43 50 48 44 46 53 58 61 64 88 98
187 191 185 182 182 176 154 138 138 118 106 92 90 103 120 136 124 132 139 151 143 123 116 130 141 145 126 108 94 80 54 61 46 46 47 50 47 64 62 60 66 84 100
159 166 171 170 158 159 139 120 102 107 96 88 94 103 125 139 142 135 158 158 155 143 117 98 100 88 81 57 49 45 45 51 58 52 41 37 50 52 55 58 70 73 77
148 159 164 160 161 154 115 99 92 96 83 61 60 79 97 115 129 117 118 126 130 121 111 90 63 62 45 54 47 49 48 65 57 47 35 54 41 42 51 54 68 77 101
148 142 143 142 138 135 100 90 88 86 70 55 60 75 105 124 118 110 117 116 107 110 103 99 87 65 72 86 65 62 78 76 50 53 42 39 50 48 32 39 56 92 92
178 167 156 135 122 116 99 84 94 100 78 82 75 86 95 119 106 102 105 102 107 104 94 83 74 71 61 81 66 55 52 64 63 51 42 44 38 39 41 41 49 54 49

GFSMA_con_3kmhel_099.txt.gz
Helicity
47 38 34 32 36 38 40 36 30 27 20 17 18 9 5 2 10 23 28 43 28 23 21 18 9 7 -0 18 39 27 20 13 31 39 33 24 44 37 30 31 32 32 36
57 51 44 50 49 45 42 38 32 30 30 22 13 12 11 18 19 18 16 43 43 33 26 22 16 -8 -3 38 49 71 78 67 58 44 42 57 33 40 31 33 38 32 30
55 58 62 61 58 53 40 45 37 40 40 37 27 23 23 9 23 14 16 27 48 41 37 35 27 18 15 32 54 74 76 65 83 63 59 65 82 64 27 28 37 32 30
56 70 71 62 49 48 47 47 45 47 44 41 38 26 29 24 17 14 20 32 31 45 41 51 51 46 38 42 49 73 108 95 108 74 58 68 72 79 70 48 24 29 35
72 78 74 66 62 62 62 49 54 59 60 56 50 46 62 37 38 27 23 36 34 40 38 44 50 52 56 47 92 157 144 150 137 87 69 69 68 68 67 68 64 58 17
81 83 90 86 69 76 78 65 55 73 81 81 101 77 66 54 41 35 47 42 55 39 36 44 47 119 102 103 149 167 156 156 157 112 75 53 52 63 63 58 54 59 49
82 78 94 78 83 72 81 74 82 104 127 121 105 83 73 54 49 79 52 43 55 42 48 49 60 145 124 260 294 233 194 193 179 137 99 64 43 44 62 54 77 88 95
96 92 96 115 107 107 91 90 117 143 142 127 139 180 127 86 92 76 61 67 61 49 67 67 94 151 176 204 211 268 239 199 169 118 107 74 59 38 42 62 75 65 67
127 112 117 116 105 123 108 148 179 163 194 207 214 202 185 163 137 60 70 59 51 53 72 75 102 146 180 182 172 206 211 186 158 121 142 107 88 79 65 95 86 54 35
97 108 107 104 101 132 186 263 316 311 267 245 198 176 170 158 133 102 56 10 49 50 74 77 106 134 151 167 199 214 230 200 173 158 135 123 115 100 62 71 92 68 75
117 111 88 69 128 181 191 241 198 399 219 221 239 190 233 193 95 78 95 35 44 61 95 127 164 166 171 161 179 211 239 233 204 186 178 176 147 120 81 80 75 102 124
113 105 160 89 71 237 193 160 106 91 34 118 143 170 198 278 188 118 166 57 35 87 164 158 159 153 167 175 193 193 217 212 205 187 179 222 173 108 75 63 90 96 138
154 129 151 154 175 110 62 119 85 109 100 94 119 139 117 72 91 78 98 77 82 110 121 126 143 153 144 136 171 189 225 222 210 191 215 223 140 106 67 58 101 120 119
108 79 81 103 158 123 76 89 106 90 126 94 93 97 91 94 103 96 105 126 111 93 109 111 153 112 143 178 179 177 194 200 196 192 187 163 139 122 88 82 89 105 107
140 170 146 194 228 213 139 122 154 120 105 100 98 104 113 121 130 133 167 166 124 132 128 177 176 143 125 124 141 163 189 202 192 198 187 175 146 132 89 76 81 93 108
151 184 191 220 211 174 142 161 153 132 135 137 131 136 139 143 124 121 127 134 141 143 169 171 172 138 121 126 149 176 200 197 199 185 171 156 122 91 70 83 78 92 96
171 187 219 220 190 185 193 215 209 180 179 159 139 130 131 140 150 142 159 148 139 131 127 142 191 184 139 152 163 183 191 182 178 172 165 147 95 71 72 66 71 76 84
130 146 195 222 213 210 221 231 231 198 177 157 135 134 146 150 158 139 122 125 139 150 159 135 178 172 178 170 185 188 180 184 176 177 143 89 19 73 74 55 61 63 72
122 166 192 217 224 232 245 222 205 180 159 144 140 138 150 150 118 133 144 151 168 162 168 170 178 194 184 183 195 195 174 162 148 124 81 62 67 59 53 50 47 49 73
119 141 173 197 215 243 246 228 208 192 183 166 161 164 153 139 121 142 140 137 136 137 142 154 155 196 181 179 171 162 151 127 106 78 62 68 58 39 34 42 48 63 84
111 122 160 198 211 214 222 202 188 176 163 154 157 158 157 167 204 198 151 120 113 132 131 133 165 181 162 159 144 132 119 102 66 51 54 51 31 32 33 51 50 66 80
149 163 180 188 204 201 202 194 181 173 159 150 149 143 150 130 129 135 137 162 181 132 117 124 135 143 135 138 133 115 99 93 88 57 44 48 43 64 61 49 77 73 92
153 161 171 184 183 194 172 164 181 174 162 150 144 136 123 112 126 132 148 162 168 160 157 144 120 115 105 97 103 77 58 65 83 48 23 56 36 45 40 51 57 69 76
145 163 170 174 183 193 149 160 168 197 174 151 129 106 95 100 95 110 113 148 145 137 139 122 104 113 87 81 67 56 66 90 84 62 47 100 57 54 34 39 52 65 81
160 157 172 179 182 196 150 149 157 159 137 117 101 91 90 96 85 100 127 139 140 143 138 131 142 141 131 105 78 90 104 96 102 74 43 60 61 62 51 51 40 51 66
160 181 178 168 160 169 148 141 142 154 126 132 112 102 80 82 76 82 111 142 136 134 136 134 133 121 95 105 94 86 84 77 79 73 61 78 84 53 51 37 39 19 36

GFSMA_con_3kmhel_102.txt.gz
Helicity
97 71 42 22 27 22 -3 20 29 31 40 17 13 23 10 13 -8 26 51 44 35 16 11 8 4 5 8 28 42 46 52 58 71 60 53 53 37 51 51 47 37 30 27
87 91 57 41 44 57 64 57 34 28 25 27 21 17 11 17 31 34 53 46 45 20 16 8 9 9 31 44 49 96 96 94 90 66 57 54 67 43 43 36 33 39 36
146 129 101 81 77 73 59 57 40 45 33 38 32 31 36 23 24 20 31 72 48 21 33 14 9 23 50 57 63 116 107 117 109 86 66 60 65 68 69 77 63 24 33
116 108 101 89 88 83 61 64 52 62 62 52 44 22 29 34 33 30 49 56 55 43 26 24 27 31 23 48 72 125 136 142 131 120 92 86 60 64 60 60 70 59 15
116 116 107 87 77 75 66 59 51 73 60 62 61 48 72 59 56 83 83 89 85 77 48 22 31 29 34 44 72 150 152 159 150 143 109 81 66 60 68 72 56 59 55
126 116 109 94 95 99 88 73 64 68 53 64 87 125 107 94 90 95 97 86 69 60 61 52 44 63 68 77 123 173 158 156 153 141 124 102 59 54 53 62 71 74 82
116 116 132 122 107 92 67 66 73 67 71 149 130 127 108 83 112 123 107 110 71 62 66 59 63 79 111 208 229 208 174 157 159 146 140 111 78 68 50 69 81 74 69
107 109 118 124 129 115 91 85 84 85 102 134 157 163 160 155 179 142 120 103 85 64 78 73 91 100 120 143 203 252 233 187 166 157 146 112 105 112 108 107 92 62 57
121 127 122 132 141 140 154 138 141 155 141 166 157 176 205 215 200 126 113 118 97 86 84 70 100 154 141 157 181 211 193 191 181 181 170 140 128 129 131 99 76 88 66
136 117 122 114 128 124 135 162 215 227 214 263 301 208 269 216 245 182 117 114 97 87 101 80 104 128 188 199 222 194 178 169 183 172 161 131 160 162 145 117 81 73 84
140 126 105 97 93 118 144 182 245 336 334 267 303 297 380 260 319 337 165 143 62 22 48 61 147 200 192 157 153 172 169 176 196 199 186 210 206 147 120 116 72 59 79
174 200 109 103 114 112 103 141 109 273 291 189 187 96 95 102 116 90 110 60 41 98 120 86 146 220 202 156 157 178 188 175 176 183 187 233 194 166 154 136 108 75 95
158 229 139 151 126 137 148 45 55 148 46 1 67 93 96 73 97 143 114 126 121 137 143 136 177 187 186 162 153 162 179 185 189 202 221 218 198 188 152 133 106 83 83
4 68 119 99 115 75 146 108 180 97 4 32 82 102 131 108 90 85 81 97 130 125 130 131 188 187 165 141 131 139 154 181 189 201 191 197 175 160 140 111 94 69 81
32 111 119 169 128 125 142 133 124 92 102 90 100 88 79 72 87 103 130 149 158 134 104 176 200 177 142 134 121 131 154 178 186 207 197 186 185 162 130 101 80 70 74
93 138 140 130 148 179 201 199 167 149 141 117 97 91 95 100 115 132 153 166 159 153 140 163 176 152 129 119 118 147 154 180 206 204 183 172 161 135 105 79 78 69 61
91 99 131 162 181 205 220 218 210 146 166 162 159 144 134 129 130 147 150 158 158 155 140 156 154 173 146 123 133 155 152 157 183 185 183 150 147 126 63 55 63 53 50
109 109 121 143 152 173 192 197 215 204 188 191 182 168 154 157 151 163 160 144 133 138 158 140 178 176 170 144 145 143 145 155 167 179 169 135 107 83 22 46 40 40 41
92 107 128 156 187 209 231 230 215 210 183 195 181 160 139 139 130 148 171 156 157 168 167 157 164 170 176 178 180 170 151 147 146 138 122 105 87 60 54 32 31 27 37
99 102 122 156 180 202 199 196 204 199 201 188 172 157 155 142 150 163 190 174 165 156 151 147 158 180 181 177 164 149 139 138 135 111 90 73 55 34 28 28 31 32 37
93 99 118 140 163 178 189 213 207 204 202 208 189 179 183 199 212 200 196 173 145 149 148 155 175 203 184 153 136 132 132 135 99 82 63 58 36 21 18 35 23 39 45
99 109 123 147 169 188 183 172 195 207 203 206 203 192 206 204 202 193 199 188 157 124 113 131 150 134 116 123 136 136 148 133 108 57 61 48 35 41 47 47 67 61 58
119 125 131 134 135 156 149 159 163 203 204 196 194 194 197 180 166 177 157 144 145 162 150 141 124 108 105 113 133 123 101 90 105 48 53 57 31 41 34 44 53 68 66
97 118 129 138 148 153 133 142 169 224 216 201 191 192 196 172 163 170 159 136 119 137 143 139 123 98 91 107 111 93 88 111 105 61 63 85 52 56 35 28 33 38 43
98 119 146 136 152 151 133 133 166 217 223 204 204 191 178 170 113 93 140 123 111 139 148 132 126 133 153 115 126 150 138 148 99 80 61 69 48 62 55 38 35 44 46
109 117 123 142 144 170 146 143 176 227 215 206 188 174 131 161 93 71 137 126 125 124 159 169 158 152 160 157 114 75 97 119 125 103 47 74 78 81 60 27 31 38 34

GFSMA_con_3kmhel_105.txt.gz
Helicity
161 154 123 101 65 50 29 12 10 10 10 14 25 18 19 7 0 27 28 26 22 10 4 3 1 0 5 9 25 42 62 76 69 60 50 48 39 35 48 44 46 41 38
145 124 124 86 47 27 9 20 17 21 14 31 17 15 4 20 11 35 32 38 28 28 1 1 -4 -1 21 18 35 66 93 103 95 87 74 60 68 71 68 77 58 27 31
106 113 109 78 29 37 37 30 23 41 40 30 27 18 17 19 21 28 48 67 48 25 21 16 19 16 28 21 32 80 101 107 119 113 97 74 63 69 63 68 69 63 37
132 145 120 88 84 88 76 72 65 47 45 47 43 30 38 31 41 39 74 76 68 50 42 34 23 31 31 10 26 96 108 133 145 137 125 105 66 68 55 60 60 57 62
170 180 148 135 122 108 92 78 66 70 62 54 46 39 41 35 51 97 125 101 91 83 61 41 57 49 26 19 20 111 127 145 156 163 152 118 78 74 51 48 62 70 86
173 178 154 141 126 113 88 90 80 70 74 56 56 76 73 96 119 117 148 125 107 83 68 77 64 65 56 34 35 124 151 148 156 154 137 112 104 88 67 71 65 94 96
156 161 148 127 112 102 89 80 87 82 74 94 109 88 97 134 140 127 139 144 125 98 95 87 74 76 82 156 178 190 177 167 167 153 120 106 106 96 90 92 87 72 67
137 137 126 116 105 113 104 97 102 111 98 123 131 149 146 184 177 154 151 155 137 117 114 103 88 88 99 130 201 268 242 188 154 115 124 125 131 110 119 105 96 69 68
109 103 114 126 120 126 125 114 99 96 130 164 174 174 200 181 222 239 162 143 135 127 109 107 110 104 110 144 181 204 181 162 125 121 118 120 127 129 136 120 93 72 85
127 121 122 136 135 139 119 110 115 134 174 196 253 256 258 229 238 218 249 213 157 141 119 98 74 106 140 132 175 192 176 145 144 142 137 112 146 148 130 117 99 84 88
146 149 129 123 124 123 106 82 147 184 234 243 268 324 277 256 312 398 333 214 215 121 143 57 74 120 152 142 168 146 163 163 172 176 164 183 219 169 130 119 115 118 98
171 126 144 157 140 104 123 128 120 143 214 248 284 322 354 300 192 141 141 74 86 128 158 152 186 189 170 134 138 152 164 169 157 151 148 185 177 153 159 141 133 108 70
105 73 90 111 159 192 146 183 150 184 169 165 181 271 238 222 146 160 132 101 92 159 175 200 217 237 175 150 123 124 143 152 159 167 205 255 202 177 157 141 115 79 79
87 60 131 140 138 124 113 140 190 193 217 266 120 48 -17 19 93 126 119 146 131 128 167 163 220 209 166 134 131 131 134 144 155 174 203 237 193 188 158 142 120 82 66
63 61 110 -6 -19 120 109 109 123 105 118 37 34 89 76 78 113 131 136 143 169 139 137 169 190 193 177 145 126 110 118 134 150 183 196 200 198 177 157 137 95 73 64
56 47 33 32 29 93 150 124 128 123 86 61 83 103 125 111 99 106 119 136 142 145 131 169 169 164 152 143 108 95 112 132 140 158 171 199 188 182 145 110 74 59 57
49 60 65 68 101 131 141 170 155 190 152 105 124 115 113 126 138 149 150 144 147 168 150 202 207 178 160 134 130 105 114 148 160 171 185 173 170 153 132 98 43 54 37
53 59 75 92 101 105 133 155 200 193 188 156 133 139 144 168 165 170 177 155 156 172 192 161 178 174 147 130 124 118 127 146 159 167 166 155 142 135 104 42 39 42 24
57 64 66 76 88 98 117 132 145 158 170 185 197 179 181 185 183 195 177 170 166 188 196 177 142 168 174 167 161 145 138 140 147 131 125 135 123 92 59 29 33 21 22
52 64 61 56 66 88 108 128 145 156 172 160 166 175 189 178 173 173 163 166 187 196 205 182 175 187 182 171 169 150 140 138 125 124 112 96 83 53 39 39 17 6 25
80 82 88 94 99 108 122 128 130 126 129 144 162 157 168 164 149 159 191 181 198 202 192 171 163 173 185 184 159 133 131 132 110 109 101 79 59 45 38 18 -1 3 19
95 92 83 89 102 125 113 104 143 168 172 167 171 176 188 180 194 162 183 160 176 205 177 167 169 168 160 143 138 136 147 141 122 107 91 53 43 36 24 27 46 52 56
98 96 101 107 107 111 99 98 103 158 175 181 182 195 197 196 184 191 178 169 185 153 146 153 146 139 137 136 142 126 113 112 110 68 76 53 45 41 33 30 42 45 63
113 114 116 116 121 120 101 104 109 153 148 155 167 181 190 180 175 185 206 208 194 185 176 166 142 131 120 106 125 122 113 119 105 81 73 69 69 58 45 24 32 34 40
140 141 127 114 113 108 99 100 127 165 166 155 168 170 168 179 142 137 211 197 189 178 150 137 130 110 100 80 111 169 156 180 109 78 73 75 73 59 45 38 41 52 59
133 149 143 131 121 121 92 85 124 177 159 174 177 186 135 182 114 107 204 209 191 157 164 180 168 160 149 127 115 137 140 162 142 110 75 105 82 63 56 44 34 42 42

GFSMA_con_3kmhel_108.txt.gz
Helicity
239 183 144 144 135 96 83 56 39 22 13 11 14 17 10 21 22 26 22 3 14 5 2 -1 1 0 5 4 5 26 43 57 67 69 66 59 57 38 36 41 43 39 39
218 209 163 142 94 102 85 60 40 27 17 26 20 25 16 18 28 31 36 36 8 21 20 4 9 7 14 14 15 44 70 87 94 100 95 76 58 50 53 56 54 66 47
190 221 162 119 88 89 72 62 41 38 26 39 19 25 27 19 18 12 14 46 24 35 41 16 21 33 43 33 20 42 92 109 114 123 121 97 81 60 58 56 47 48 52
177 233 147 111 126 85 63 67 59 45 41 45 39 30 32 37 36 45 42 57 65 66 53 43 39 63 49 24 15 46 96 105 125 143 137 119 94 58 47 59 54 58 68
241 148 106 113 122 78 74 83 77 80 72 56 50 48 55 53 35 74 97 97 103 87 87 79 91 70 44 36 24 21 92 112 127 134 122 120 107 78 54 48 53 55 75
69 125 133 118 107 100 103 112 108 90 82 71 68 59 56 57 88 138 149 150 124 127 100 80 88 89 95 66 28 41 155 143 147 141 155 136 97 78 64 57 62 61 58
163 143 161 137 125 123 129 119 113 87 77 90 109 91 98 117 115 165 184 179 165 151 131 105 90 99 110 133 129 164 178 173 163 166 142 119 103 99 90 71 84 93 78
182 185 174 159 153 150 132 114 126 133 103 118 136 139 123 137 152 184 177 173 164 164 176 141 117 112 108 98 126 186 178 165 149 140 123 109 117 114 94 101 92 78 75
179 190 170 160 151 148 127 122 122 121 137 125 106 116 153 156 219 195 153 185 195 175 170 184 138 110 103 99 127 176 163 166 176 125 115 102 108 121 128 98 83 81 72
137 149 136 139 138 140 132 121 124 142 159 149 170 156 183 172 178 211 212 225 245 253 192 202 120 88 100 86 125 179 185 146 140 113 103 104 106 159 120 110 99 96 91
98 102 131 157 166 172 159 143 139 126 129 126 160 144 159 223 229 196 292 347 338 271 166 148 143 117 123 114 121 133 146 141 158 148 134 133 186 189 146 138 116 103 89
80 75 110 108 133 119 124 126 129 123 151 124 154 188 183 224 263 379 386 281 226 213 185 175 166 157 149 134 114 135 135 140 143 138 126 140 224 185 160 141 122 105 72
114 132 141 167 176 105 111 125 125 158 202 177 215 264 311 372 350 322 253 214 196 243 189 220 168 169 170 136 129 121 115 138 143 141 163 208 208 165 153 138 126 102 85
77 104 66 88 94 97 131 164 207 200 219 206 215 227 268 252 271 283 253 178 181 155 181 174 179 192 175 145 123 132 121 118 117 118 154 211 168 169 164 145 126 96 77
32 88 64 83 86 110 104 144 196 154 165 202 189 188 219 91 68 119 163 144 150 128 135 146 176 184 189 176 144 141 128 118 124 150 161 154 158 159 166 154 125 88 72
39 30 32 22 46 55 49 62 73 105 113 124 134 106 43 18 63 135 183 190 194 191 170 174 164 174 165 169 149 145 118 108 120 114 136 153 153 162 166 152 123 77 44
28 31 41 37 44 14 5 14 39 82 103 75 125 129 68 108 112 153 164 195 184 193 195 197 195 176 199 191 171 141 116 95 113 130 121 140 161 157 147 131 98 61 26
56 58 59 61 54 62 82 71 66 101 109 100 133 145 171 186 151 186 162 177 193 190 186 191 205 218 199 161 154 146 123 113 110 131 137 132 113 124 125 95 69 20 30
70 79 89 90 94 93 88 92 99 113 140 156 166 157 162 205 192 194 216 202 231 197 217 193 197 206 213 204 173 154 142 124 121 123 125 120 120 117 90 63 38 17 19
74 71 63 57 57 61 73 91 114 123 128 135 159 166 162 148 196 195 194 230 172 229 212 207 202 213 205 192 189 162 136 130 123 123 107 112 117 96 66 63 30 19 19
83 87 92 97 99 103 108 104 107 116 129 136 141 152 164 181 180 187 184 235 263 189 237 232 231 219 222 230 196 151 134 133 118 125 120 121 111 90 64 43 22 10 15
98 105 117 113 111 117 116 111 116 130 131 139 152 153 150 136 132 120 123 153 216 253 234 272 236 209 224 211 210 175 179 156 125 123 134 109 98 72 52 21 27 38 44
97 110 115 118 123 132 141 137 133 157 163 167 173 186 198 193 170 140 160 150 136 144 196 227 238 222 213 191 211 196 186 173 139 111 129 85 79 62 50 45 40 35 32
128 130 134 141 142 129 127 139 149 171 173 169 169 166 182 207 193 215 212 211 192 204 169 187 184 163 152 162 180 179 174 189 172 130 109 87 71 69 69 57 48 39 25
84 93 101 107 135 151 130 124 134 147 165 159 154 153 162 174 148 96 188 188 191 196 189 159 143 126 114 130 173 250 221 201 155 124 94 98 67 93 79 47 37 33 50
64 78 88 127 154 172 176 156 162 146 148 158 161 161 108 138 118 87 180 199 201 185 215 221 194 154 141 149 131 162 210 185 186 155 86 117 125 110 92 51 52 48 51

GFSMA_con_3kmhel_111.txt.gz
Helicity
220 216 189 179 168 161 127 95 82 60 39 29 27 19 16 22 21 28 27 9 4 -6 -3 1 6 1 4 4 -2 8 27 34 51 66 60 66 72 60 44 43 51 55 58
228 221 199 187 168 152 139 98 88 63 46 44 28 22 21 38 33 29 35 31 10 -16 3 18 17 6 11 19 14 19 43 61 78 82 84 88 79 70 62 55 43 37 47
220 235 208 199 164 150 161 110 92 73 59 55 26 29 36 37 38 32 31 30 28 25 17 29 34 25 34 34 23 17 61 83 94 99 106 108 100 90 65 56 42 37 53
236 253 207 193 171 158 158 142 89 67 60 53 51 42 50 43 30 35 44 52 73 61 64 35 55 54 65 50 28 21 73 105 112 104 112 123 112 96 76 55 48 49 52
273 302 267 202 172 159 139 125 87 72 66 58 55 52 49 47 43 61 50 59 75 84 94 70 97 111 84 48 40 32 65 126 124 122 134 117 117 107 83 65 47 48 56
382 219 277 232 187 144 136 117 95 88 66 75 78 66 67 59 53 57 76 103 111 122 125 123 126 120 101 82 58 37 99 137 115 128 129 141 141 114 88 75 71 61 72
196 199 188 159 140 139 111 84 122 100 75 96 111 88 79 77 74 85 125 144 125 153 139 121 119 118 108 142 113 97 133 118 119 128 131 156 129 114 105 93 78 58 59
208 137 109 86 115 85 79 114 131 137 102 125 127 127 108 119 114 120 160 164 149 160 150 148 142 139 162 155 169 190 131 128 131 118 135 94 110 101 90 104 92 77 67
188 127 70 -2 102 126 131 142 134 134 124 132 138 149 147 138 161 189 176 186 186 187 188 192 177 185 170 135 120 121 141 157 160 148 94 99 82 84 110 105 92 66 76
213 148 167 112 139 160 144 145 155 152 156 143 169 155 173 151 126 145 160 195 225 228 230 273 272 223 145 94 79 97 134 133 150 128 112 94 73 101 151 123 103 88 76
181 111 96 114 137 169 141 155 179 171 177 184 190 195 208 194 160 158 134 192 229 219 324 281 280 224 154 122 153 151 139 140 156 152 139 106 122 163 151 127 113 105 78
176 152 149 129 144 178 169 165 146 140 149 159 174 172 193 194 107 194 212 215 254 301 403 256 239 202 182 195 145 112 137 117 132 129 106 97 181 186 156 129 110 92 81
175 178 193 115 56 86 97 107 113 132 155 151 155 191 138 168 242 326 378 331 397 482 383 291 206 208 207 201 144 143 117 112 117 118 128 168 202 172 139 115 115 106 78
193 108 72 66 103 113 112 122 94 99 136 171 148 153 213 231 302 301 321 421 517 456 389 255 269 213 207 181 149 120 122 119 124 129 163 208 170 139 139 137 120 108 94
40 73 70 81 45 83 91 103 134 127 155 179 121 122 201 237 192 292 289 200 222 184 151 186 210 199 190 177 148 152 132 128 125 136 154 155 142 144 135 126 124 113 88
4 18 43 66 48 46 68 79 91 147 137 122 146 165 202 240 195 193 249 151 150 167 151 206 225 190 161 160 148 146 146 140 121 109 130 148 156 153 135 132 124 112 83
47 35 35 43 44 35 61 62 72 53 71 58 121 149 136 147 150 178 179 148 188 232 220 223 227 179 198 198 183 177 168 141 132 108 114 136 140 142 141 126 105 100 62
39 26 21 41 55 66 101 98 85 76 71 77 86 123 134 161 163 196 201 194 186 215 273 260 264 239 218 198 188 180 160 152 140 126 129 139 134 124 133 103 88 75 43
65 74 76 82 87 85 82 85 83 88 95 100 106 103 103 143 158 189 168 239 246 212 300 341 222 247 269 240 244 200 168 162 147 138 139 145 126 112 108 95 93 49 48
80 86 90 90 94 105 107 116 124 123 117 115 112 114 111 114 116 134 211 255 319 247 314 389 232 325 250 194 229 212 171 156 140 161 138 136 133 129 115 115 87 55 50
86 84 94 104 103 105 116 131 136 137 135 128 120 118 129 139 138 156 196 177 209 212 291 343 228 345 325 232 204 196 160 155 130 154 165 156 160 133 110 117 80 52 45
77 77 85 85 101 100 116 121 119 128 153 175 184 190 185 175 165 143 145 159 168 233 212 306 305 242 312 326 216 212 210 203 159 144 177 148 139 116 110 89 62 58 47
59 80 93 98 105 114 128 146 154 144 128 141 148 152 165 188 190 200 171 149 146 118 153 231 192 185 245 229 219 231 251 224 182 156 195 133 116 111 99 76 66 60 59
68 68 81 99 110 129 146 174 195 187 182 178 181 179 174 164 174 175 173 194 225 177 157 207 163 181 140 154 179 221 215 214 207 178 161 135 119 124 99 81 58 61 63
58 78 90 92 106 109 118 128 143 135 151 173 169 160 167 167 157 134 205 208 208 203 248 241 201 160 93 106 181 254 248 236 189 157 150 127 122 128 101 86 74 66 58
61 67 69 78 80 114 100 104 124 133 137 155 146 144 125 138 121 80 134 159 195 159 173 184 174 179 137 157 109 176 208 202 207 162 128 151 155 136 126 90 96 77 68

GFSMA_con_3kmhel_114.txt.gz
Helicity
140 189 199 170 165 163 144 132 125 103 71 57 51 48 44 29 22 28 31 12 3 -10 -10 -3 2 6 3 4 12 7 13 36 51 61 74 75 83 74 61 51 56 48 50
169 187 200 177 180 165 169 138 126 104 70 68 48 41 33 32 27 28 34 30 11 -8 -12 -14 1 14 7 9 21 23 20 57 67 75 87 93 90 81 69 67 67 52 54
196 255 236 211 216 179 159 157 152 122 94 56 49 44 42 37 34 32 36 38 32 11 13 18 9 20 27 29 37 40 25 80 86 83 98 97 89 92 79 70 77 62 53
188 236 312 272 256 204 167 172 172 136 103 52 56 46 43 47 41 37 44 40 49 50 51 48 42 42 53 60 41 39 32 89 96 93 96 90 85 93 85 85 71 60 58
208 220 303 369 301 233 209 184 179 147 98 76 58 58 49 47 48 61 42 48 51 60 70 67 71 82 80 62 45 45 43 101 97 94 81 96 104 115 81 99 82 68 60
228 268 274 301 284 259 249 149 165 128 97 96 75 65 60 58 52 55 61 66 67 75 91 96 139 124 97 76 69 60 56 122 86 78 95 105 109 122 112 106 69 54 49
256 302 357 435 321 285 212 158 115 104 86 119 97 78 62 61 53 64 80 85 99 121 140 127 135 131 125 127 128 82 59 108 90 93 104 103 127 134 101 85 78 68 67
238 345 320 266 249 268 277 102 87 87 75 132 119 109 82 79 89 95 101 111 115 145 148 129 130 134 144 162 185 206 150 101 89 97 99 84 102 107 98 90 88 64 75
226 259 256 265 189 260 277 197 113 107 85 121 130 124 101 101 98 127 142 139 159 158 160 148 148 150 175 208 231 198 160 163 134 160 113 94 88 74 90 112 102 81 67
194 200 244 236 147 98 100 203 289 129 127 113 139 147 172 148 108 118 127 129 138 145 170 203 190 183 212 263 252 176 148 167 140 132 120 104 96 91 162 161 136 113 90
179 166 212 157 202 120 91 -56 101 102 133 135 177 183 212 206 189 176 170 157 147 131 173 228 224 269 292 313 244 235 172 171 144 161 122 126 122 150 162 167 136 106 82
152 194 181 152 105 120 145 28 106 112 134 169 179 209 201 203 178 242 228 200 179 124 226 344 393 336 382 377 185 180 151 161 156 117 124 109 162 215 188 170 138 113 97
179 91 128 104 138 124 141 134 78 92 90 106 120 101 117 158 215 216 228 205 171 130 256 317 393 382 383 264 189 177 150 133 135 116 131 140 232 199 182 159 141 124 106
237 165 123 87 119 128 78 58 71 88 108 110 100 100 140 169 199 202 219 215 157 242 326 333 419 499 393 262 154 145 175 144 132 138 146 238 200 188 177 159 151 131 117
105 108 169 142 109 121 132 111 92 112 112 79 102 111 133 109 140 152 185 280 237 237 257 241 286 247 254 252 219 197 178 141 132 129 170 172 170 166 153 142 144 140 119
37 31 49 85 104 77 83 54 81 93 87 118 157 151 175 126 136 172 207 310 309 218 250 212 223 308 272 285 192 212 167 140 120 137 132 133 143 140 138 131 121 122 107
77 71 60 52 43 39 55 50 40 19 26 34 97 90 74 75 113 137 209 223 245 272 230 278 232 370 288 300 232 180 171 143 158 102 88 99 111 118 116 115 114 117 100
50 42 49 53 55 68 76 77 75 72 74 90 87 73 79 93 114 138 150 175 236 279 295 212 253 306 303 225 230 201 180 147 149 108 89 82 91 103 110 107 99 97 92
75 74 72 71 72 76 86 96 99 107 112 112 110 111 114 109 109 140 174 170 177 213 274 360 369 397 372 340 278 176 173 136 137 118 93 80 82 85 107 96 80 80 76
62 61 54 61 72 78 84 95 106 110 111 115 122 128 131 141 150 155 152 156 169 228 329 327 434 474 452 437 408 329 180 189 174 137 113 117 109 105 93 100 79 82 58
54 48 57 71 83 94 100 111 114 119 125 128 131 131 130 124 107 111 152 169 201 204 265 294 367 365 375 418 390 370 288 289 165 149 130 147 166 180 146 110 81 61 81
37 41 51 46 59 55 76 91 87 79 95 111 124 134 154 164 169 159 134 119 164 180 243 299 295 312 294 321 338 361 256 253 230 129 168 173 189 145 122 112 66 67 78
37 55 60 59 71 82 111 130 136 117 131 144 150 157 163 166 172 174 165 150 152 159 151 219 268 250 266 263 292 307 259 222 196 172 146 130 165 136 126 98 68 72 75
25 26 48 60 69 96 142 146 152 123 118 130 149 160 137 140 180 172 167 158 139 156 172 161 160 175 208 201 205 237 239 228 228 190 202 176 161 127 126 85 71 70 60
34 46 54 65 71 82 134 154 148 102 86 59 59 93 130 141 152 152 163 152 138 112 139 144 151 171 168 174 150 264 293 251 199 217 173 192 140 154 125 100 69 52 64
6 9 16 26 39 26 37 81 93 73 94 84 52 66 136 173 164 142 155 167 171 151 168 202 191 164 117 197 211 246 302 313 323 228 150 199 159 146 128 114 87 86 106

GFSMA_con_3kmhel_117.txt.gz
Helicity
123 141 132 152 113 97 98 105 99 90 69 59 46 34 33 33 29 33 29 19 1 -10 -11 -14 -3 8 11 10 4 14 12 32 52 60 61 60 55 57 58 57 55 57 60
102 129 138 178 126 111 110 105 101 102 90 72 57 41 32 32 34 32 31 27 11 1 -8 -13 -4 -5 5 9 17 26 32 37 64 74 71 66 69 62 55 58 65 70 61
94 89 115 186 212 168 166 142 104 96 108 88 70 58 45 30 29 30 36 34 30 14 4 0 8 12 15 16 27 32 33 47 71 76 75 73 73 68 69 83 92 80 68
86 117 138 161 237 238 222 202 186 115 96 92 74 68 58 41 31 30 42 42 40 30 23 14 32 38 41 39 39 37 34 44 87 84 79 81 82 80 89 99 105 105 87
52 103 142 160 188 262 244 260 251 183 110 76 77 62 69 45 41 43 34 41 40 45 44 33 39 50 60 57 42 34 46 57 105 99 96 99 94 94 91 100 117 106 87
59 121 152 201 216 263 304 302 262 273 134 76 72 61 73 52 47 48 45 54 59 58 50 46 67 86 76 71 54 42 52 77 111 100 105 110 105 101 107 114 106 91 74
67 103 167 247 265 299 318 289 334 315 206 66 84 60 52 45 44 64 70 71 66 70 71 83 104 114 102 85 66 42 46 73 131 114 99 94 111 107 116 122 115 97 102
91 132 164 250 256 289 345 301 348 420 275 160 94 49 37 35 62 78 97 93 79 95 104 118 106 113 104 100 97 93 99 155 203 144 115 94 110 116 118 120 97 103 106
131 154 163 249 282 252 272 301 289 268 271 344 136 102 90 54 48 64 86 110 116 119 122 120 116 127 128 121 132 178 220 213 146 135 98 105 120 144 149 142 128 116 140
144 141 144 160 189 233 240 259 301 336 364 389 156 99 120 93 71 59 64 75 99 103 110 143 146 143 151 178 207 203 235 248 217 166 108 121 128 141 159 166 172 174 134
125 125 132 157 164 185 204 185 187 229 246 300 342 320 117 130 149 145 81 83 129 132 132 132 135 171 188 286 317 305 252 257 209 98 108 103 131 124 132 176 193 169 146
122 122 108 161 180 178 198 185 173 194 165 203 226 108 115 162 161 171 154 130 106 123 174 147 147 223 311 356 346 371 337 325 116 97 84 86 112 95 159 177 164 155 123
115 104 111 147 234 190 105 169 145 134 62 60 143 170 121 104 101 123 124 114 111 153 145 153 207 262 316 345 383 430 391 270 162 86 55 82 106 202 216 161 164 136 114
165 150 130 104 153 171 148 103 141 95 69 45 76 93 117 87 119 138 125 158 157 189 213 241 284 334 283 332 391 322 312 196 107 82 78 76 196 202 153 139 126 118 106
228 173 131 115 109 112 77 100 89 111 151 119 96 78 109 127 136 136 137 138 222 172 219 234 311 257 232 299 312 284 216 191 131 133 97 166 204 169 147 136 121 106 99
80 115 99 74 89 113 91 95 110 109 118 99 93 72 81 36 84 200 159 166 146 151 172 205 215 227 216 258 246 304 321 246 199 161 139 134 120 128 128 110 98 92 84
173 144 101 184 147 141 168 96 94 101 82 63 85 41 -8 56 104 106 128 125 120 148 121 171 282 291 278 302 316 327 313 267 269 193 93 86 80 72 94 102 91 87 83
76 67 71 49 76 110 162 135 143 175 132 89 79 115 128 126 114 98 88 99 133 154 183 146 208 256 320 324 379 324 375 418 419 365 180 86 72 71 76 81 83 79 79
77 73 72 80 79 82 94 94 100 101 117 113 111 105 102 106 110 120 129 145 161 172 191 195 226 288 360 348 375 430 403 433 389 376 223 79 66 68 68 71 71 80 70
69 75 74 76 80 82 96 94 94 105 115 113 118 122 132 141 138 144 155 153 155 172 189 192 247 326 369 384 439 470 458 382 429 444 276 213 200 116 52 86 86 90 73
49 48 60 69 79 78 89 102 99 103 116 129 138 142 145 155 156 157 171 172 179 191 204 220 259 332 381 423 316 362 396 375 347 386 376 219 237 157 117 80 126 90 69
57 61 77 82 97 86 136 136 111 96 100 105 113 122 124 128 148 144 151 153 155 182 210 244 237 295 265 363 345 405 313 402 381 300 312 293 233 160 125 166 109 78 73
43 50 47 54 68 74 123 118 122 83 85 90 95 101 108 105 125 144 156 166 162 138 118 169 206 218 197 259 276 344 339 342 327 318 349 207 196 125 150 133 100 72 72
57 58 60 51 48 43 90 109 111 74 85 98 84 91 81 67 82 115 133 145 159 186 192 194 184 177 185 190 237 225 264 346 428 360 266 256 136 115 143 136 102 77 70
43 55 54 66 58 56 91 83 64 29 12 -2 -23 -29 -7 -3 21 92 131 141 154 197 168 123 102 94 108 92 151 288 273 367 287 326 325 267 80 125 147 134 130 88 64
7 -5 -12 -16 5 21 43 56 48 30 60 68 70 51 35 61 80 96 112 106 136 154 183 130 126 85 120 103 115 164 208 280 225 256 184 283 119 175 161 128 116 115 74